[[{"header":{"parameterUnit":"m.s-1","parameterCategory":1,"la1":30.6,"la2":28.766,"lo1":-90.7593,"lo2":-88.6598,"dy":0.0162,"dx":0.0183,"nx":116,"ny":114,"refTime":"2023-05-11T12:00:00:Z","depth":0,"parameterNumber":2,"parameterNumberName":"U-component_of_WINDS"},"data":[0.0,0.0,0.0,0.0,0.0,0.0,0.0,0.0,0.0,0.0,0.0,0.0,0.0,0.0,0.0,0.0,0.0,0.0,0.0,0.0,0.0,0.0,0.0,0.0,0.0,0.0,0.0,0.0,0.0,0.0,0.0,0.0,0.0,0.0,0.0,0.0,0.0,0.0,0.0,0.0,0.0,0.0,0.0,0.0,0.0,0.0,0.0,0.0,0.0,0.0,0.0,0.0,0.0,0.0,0.0,0.0,0.0,0.0,0.0,0.0,0.0,0.0,0.0,0.0,0.0,0.0,0.0,0.0,0.0,0.0,0.0,0.0,0.0,0.0,0.0,0.0,0.0,0.0,0.0,0.0,0.0,0.0,0.0,0.0,0.0,0.0,0.0,0.0,0.0,0.0,0.0,0.0,0.0,0.0,0.0,0.0,0.0,0.0,0.0,0.0,0.0,0.0,0.0,0.0,0.0,0.0,0.0,0.0,0.0,0.0,0.0,0.0,0.0,0.0,0.0,0.0,0.0,0.0,0.0,0.0,0.0,0.0,0.0,0.0,0.0,0.0,0.0,0.0,0.0,0.0,0.0,0.0,0.0,0.0,0.0,0.0,0.0,0.0,0.0,0.0,0.0,0.0,0.0,0.0,0.0,0.0,0.0,0.0,0.0,0.0,0.0,0.0,0.0,0.0,0.0,0.0,0.0,0.0,0.0,0.0,0.0,0.0,0.0,0.0,0.0,0.0,0.0,0.0,0.0,0.0,0.0,0.0,0.0,0.0,0.0,0.0,0.0,0.0,0.0,0.0,0.0,0.0,0.0,0.0,0.0,0.0,0.0,0.0,0.0,0.0,0.0,0.0,0.0,0.0,0.0,0.0,0.0,0.0,0.0,0.0,0.0,0.0,0.0,0.0,0.0,0.0,0.0,0.0,0.0,0.0,0.0,0.0,0.0,0.0,0.0,0.0,0.0,0.0,0.0,0.0,0.0,0.0,0.0,0.0,0.0,0.0,0.0,0.0,0.0,0.0,0.0,0.0,0.0,0.0,0.0,0.0,0.0,0.0,0.0,0.0,0.0,0.0,0.0,0.0,0.0,0.0,0.0,0.0,0.0,0.0,0.0,0.0,0.0,0.0,0.0,0.0,0.0,0.0,0.0,0.0,0.0,0.0,0.0,0.0,0.0,0.0,0.0,0.0,0.0,0.0,0.0,0.0,0.0,0.0,0.0,0.0,0.0,0.0,0.0,0.0,0.0,0.0,0.0,0.0,0.0,0.0,0.0,0.0,0.0,0.0,0.0,0.0,0.0,0.0,0.0,0.0,0.0,0.0,0.0,0.0,0.0,0.0,0.0,0.0,0.0,0.0,0.0,0.0,0.0,0.0,0.0,0.0,0.0,0.0,0.0,0.0,0.0,0.0,0.0,0.0,0.0,0.0,0.0,0.0,0.0,0.0,0.0,0.0,0.0,0.0,0.0,0.0,0.0,0.0,0.0,0.0,0.0,0.0,0.0,0.0,0.0,0.0,0.0,0.0,0.0,0.0,0.0,0.0,0.0,0.0,0.0,0.0,0.0,0.0,0.0,0.0,0.0,0.0,0.0,0.0,0.0,0.0,0.0,0.0,0.0,0.0,0.0,0.0,0.0,0.0,0.0,0.0,0.0,0.0,0.0,0.0,0.0,0.0,0.0,0.0,0.0,0.0,0.0,0.0,0.0,0.0,0.0,0.0,0.0,0.0,0.0,0.0,0.0,0.0,0.0,0.0,0.0,0.0,0.0,0.0,0.0,0.0,0.0,0.0,0.0,0.0,0.0,0.0,0.0,0.0,0.0,0.0,0.0,0.0,0.0,0.0,0.0,0.0,0.0,0.0,0.0,0.0,0.0,0.0,0.0,0.0,0.0,0.0,0.0,0.0,0.0,0.0,0.0,0.0,0.0,0.0,0.0,0.0,0.0,0.0,0.0,0.0,0.0,0.0,0.0,0.0,0.0,0.0,0.0,0.0,0.0,0.0,0.0,0.0,0.0,0.0,0.0,0.0,0.0,0.0,0.0,0.0,0.0,0.0,0.0,0.0,0.0,0.0,0.0,0.0,0.0,0.0,0.0,0.0,0.0,0.0,0.0,0.0,0.0,0.0,0.0,0.0,0.0,0.0,0.0,0.0,0.0,0.0,0.0,0.0,0.0,0.0,0.0,0.0,0.0,0.0,0.0,0.0,0.0,0.0,0.0,0.0,0.0,0.0,0.0,0.0,0.0,0.0,0.0,0.0,0.0,0.0,0.0,0.0,0.0,0.0,0.0,0.0,0.0,0.0,0.0,0.0,0.0,0.0,0.0,0.0,0.0,0.0,0.0,0.0,0.0,0.0,0.0,0.0,0.0,0.0,0.0,0.0,0.0,0.0,0.0,0.0,0.0,0.0,0.0,0.0,0.0,0.0,0.0,0.0,0.0,0.0,0.0,0.0,0.0,0.0,0.0,0.0,0.0,0.0,0.0,0.0,0.0,0.0,0.0,0.0,0.0,0.0,0.0,0.0,0.0,0.0,0.0,0.0,0.0,0.0,0.0,0.0,0.0,0.0,0.0,0.0,0.0,0.0,0.0,0.0,0.0,0.0,0.0,0.0,0.0,0.0,0.0,0.0,0.0,0.0,0.0,0.0,0.0,0.0,0.0,0.0,0.0,0.0,0.0,0.0,0.0,0.0,0.0,0.0,0.0,0.0,0.0,0.0,0.0,0.0,0.0,0.0,0.0,0.0,0.0,0.0,0.0,0.0,0.0,0.0,0.0,0.0,0.0,0.0,0.0,0.0,0.0,0.0,0.0,0.0,0.0,0.0,0.0,0.0,0.0,0.0,0.0,0.0,0.0,0.0,0.0,0.0,0.0,0.0,0.0,0.0,0.0,0.0,0.0,0.0,0.0,0.0,0.0,0.0,0.0,0.0,0.0,0.0,0.0,0.0,0.0,0.0,0.0,0.0,0.0,0.0,0.0,0.0,0.0,0.0,0.0,0.0,0.0,0.0,0.0,0.0,0.0,0.0,0.0,0.0,0.0,0.0,0.0,0.0,0.0,0.0,0.0,0.0,0.0,0.0,0.0,0.0,0.0,0.0,0.0,0.0,0.0,0.0,0.0,0.0,0.0,0.0,0.0,0.0,0.0,0.0,0.0,0.0,0.0,0.0,0.0,0.0,0.0,0.0,0.0,0.0,0.0,0.0,0.0,0.0,0.0,0.0,0.0,0.0,0.0,0.0,0.0,0.0,0.0,0.0,0.0,0.0,0.0,0.0,0.0,0.0,0.0,0.0,0.0,0.0,0.0,0.0,0.0,0.0,0.0,0.0,0.0,0.0,0.0,0.0,0.0,0.0,0.0,0.0,0.0,0.0,0.0,0.0,0.0,0.0,0.0,0.0,0.0,0.0,0.0,0.0,0.0,0.0,0.0,0.0,0.0,0.0,0.0,0.0,0.0,0.0,0.0,0.0,0.0,0.0,0.0,0.0,0.0,0.0,0.0,0.0,0.0,0.0,0.0,0.0,0.0,0.0,0.0,0.0,0.0,0.0,0.0,0.0,0.0,0.0,0.0,0.0,0.0,0.0,0.0,0.0,0.0,0.0,0.0,0.0,0.0,0.0,0.0,0.0,0.0,0.0,0.0,0.0,0.0,0.0,0.0,0.0,0.0,0.0,0.0,0.0,0.0,0.0,0.0,0.0,0.0,0.0,0.0,0.0,0.0,0.0,0.0,0.0,0.0,0.0,0.0,0.0,0.0,0.0,0.0,0.0,0.0,0.0,0.0,0.0,0.0,0.0,0.0,0.0,0.0,0.0,0.0,0.0,0.0,0.0,0.0,0.0,0.0,0.0,0.0,0.0,0.0,0.0,0.0,0.0,0.0,0.0,0.0,0.0,0.0,0.0,0.0,0.0,0.0,0.0,0.0,0.0,0.0,0.0,0.0,0.0,0.0,0.0,0.0,0.0,0.0,0.0,0.0,0.0,0.0,0.0,0.0,0.0,0.0,0.0,0.0,0.0,0.0,0.0,0.0,0.0,0.0,0.0,0.0,0.0,0.0,0.0,0.0,0.0,0.0,0.0,0.0,0.0,0.0,0.0,0.0,0.0,0.0,0.0,0.0,0.0,0.0,0.0,0.0,0.0,0.0,0.0,0.0,0.0,0.0,0.0,0.0,0.0,0.0,0.0,0.0,0.0,0.0,0.0,0.0,0.0,0.0,0.0,0.0,0.0,0.0,0.0,0.0,0.0,0.0,0.0,0.0,0.0,0.0,0.0,0.0,0.0,0.0,0.0,0.0,0.0,0.0,0.0,0.0,0.0,0.0,0.0,0.0,0.0,0.0,0.0,0.0,0.0,0.0,0.0,0.0,0.0,0.0,0.0,0.0,0.0,0.0,0.0,0.0,0.0,0.0,0.0,0.0,0.0,0.0,0.0,0.0,0.0,0.0,0.0,0.0,0.0,0.0,0.0,0.0,0.0,0.0,0.0,0.0,0.0,0.0,0.0,0.0,0.0,0.0,0.0,0.0,0.0,0.0,0.0,0.0,0.0,0.0,0.0,0.0,0.0,0.0,0.0,0.0,0.0,0.0,0.0,0.0,0.0,0.0,0.0,0.0,0.0,0.0,0.0,0.0,0.0,0.0,0.0,0.0,0.0,0.0,0.0,0.0,0.0,0.0,0.0,0.0,0.0,0.0,0.0,0.0,0.0,0.0,0.0,0.0,0.0,0.0,0.0,0.0,0.0,0.0,0.0,0.0,0.0,0.0,0.0,0.0,0.0,0.0,0.0,0.0,0.0,0.0,0.0,0.0,0.0,0.0,0.0,0.0,0.0,0.0,0.0,0.0,0.0,0.0,0.0,0.0,0.0,0.0,0.0,0.0,0.0,0.0,0.0,0.0,0.0,0.0,0.0,0.0,0.0,0.0,0.0,0.0,0.0,0.0,0.0,0.0,0.0,0.0,0.0,0.0,0.0,0.0,0.0,0.0,0.0,0.0,0.0,0.0,0.0,0.0,0.0,0.0,0.0,0.0,0.0,0.0,0.0,0.0,0.0,0.0,0.0,0.0,0.0,0.0,0.0,0.0,0.0,0.0,0.0,0.0,0.0,0.0,0.0,0.0,0.0,0.0,0.0,0.0,0.0,0.0,0.0,0.0,0.0,0.0,0.0,0.0,0.0,0.0,0.0,0.0,0.0,0.0,0.0,0.0,0.0,0.0,0.0,0.0,0.0,0.0,0.0,0.0,0.0,0.0,0.0,0.0,0.0,0.0,0.0,0.0,0.0,0.0,0.0,0.0,0.0,0.0,0.0,0.0,0.0,0.0,0.0,0.0,0.0,0.0,0.0,0.0,0.0,0.0,0.0,0.0,0.0,0.0,0.0,0.0,0.0,0.0,0.0,0.0,0.0,0.0,0.0,0.0,0.0,0.0,0.0,0.0,0.0,0.0,0.0,0.0,0.0,0.0,0.0,0.0,0.0,0.0,0.0,0.0,0.0,0.0,0.0,0.0,0.0,0.0,0.0,0.0,0.0,0.0,0.0,0.0,0.0,0.0,0.0,0.0,0.0,0.0,0.0,0.0,0.0,0.0,0.0,0.0,0.0,0.0,0.0,0.0,0.0,0.0,0.0,0.0,0.0,0.0,0.0,0.0,0.0,0.0,0.0,0.0,0.0,0.0,0.0,0.0,0.0,0.0,0.0,0.0,0.0,0.0,0.0,0.0,0.0,0.0,0.0,0.0,0.0,0.0,0.0,0.0,0.0,0.0,0.0,0.0,0.0,0.0,0.0,0.0,0.0,0.0,0.0,0.0,0.0,0.0,0.0,0.0,0.0,0.0,0.0,0.0,0.0,0.0,0.0,0.0,0.0,0.0,0.0,0.0,0.0,0.0,0.0,0.0,0.0,0.0,0.0,0.0,0.0,0.0,0.0,0.0,0.0,0.0,0.0,0.0,0.0,0.0,0.0,0.0,0.0,0.0,0.0,0.0,0.0,0.0,0.0,0.0,0.0,0.0,0.0,0.0,0.0,0.0,0.0,0.0,0.0,0.0,0.0,0.0,0.0,0.0,0.0,0.0,0.0,0.0,0.0,0.0,0.0,0.0,0.0,-0.4943,-0.4355,0.0,0.0,0.0,0.0,0.0,0.0,0.0,0.0,0.0,0.0,0.0,0.0,0.0,0.0,0.0,0.0,0.0,0.0,0.0,0.0,0.0,0.0,0.0,0.0,0.0,0.0,0.0,0.0,0.0,0.0,0.0,0.0,0.0,0.0,0.0,0.0,0.0,-0.5302,-0.5251,-0.4997,-0.4544,-0.4688,-0.4815,-0.4881,0.0,0.0,0.0,0.0,0.0,0.0,0.0,0.0,0.0,0.0,0.0,0.0,0.0,0.0,0.0,0.0,0.0,0.0,0.0,0.0,0.0,0.0,0.0,0.0,0.0,0.0,0.0,0.0,0.0,0.0,0.0,0.0,0.0,0.0,0.0,0.0,0.0,0.0,0.0,0.0,0.0,0.0,0.0,0.0,0.0,0.0,0.0,0.0,0.0,0.0,0.0,0.0,0.0,0.0,0.0,0.0,0.0,0.0,0.0,0.0,0.0,0.0,0.0,0.0,0.0,0.0,0.0,0.0,0.0,0.0,-0.4654,-0.4211,0.0,0.0,0.0,0.0,0.0,0.0,0.0,0.0,0.0,0.0,0.0,0.0,0.0,0.0,0.0,0.0,0.0,0.0,0.0,0.0,0.0,0.0,0.0,-0.6194,-0.6307,-0.6307,-0.6386,-0.6379,0.0,0.0,0.0,0.0,0.0,0.0,-0.6273,-0.6463,-0.6098,-0.5192,-0.5349,-0.5246,-0.4937,-0.5211,-0.5283,-0.519,-0.5014,0.0,0.0,0.0,0.0,0.0,0.0,0.0,0.0,0.0,0.0,0.0,0.0,0.0,0.0,0.0,0.0,0.0,0.0,0.0,0.0,0.0,0.0,0.0,0.0,0.0,0.0,0.0,0.0,0.0,0.0,0.0,0.0,0.0,0.0,0.0,0.0,0.0,0.0,0.0,0.0,0.0,0.0,0.0,0.0,0.0,0.0,0.0,0.0,0.0,0.0,0.0,0.0,0.0,0.0,0.0,0.0,0.0,0.0,0.0,0.0,0.0,0.0,0.0,-0.5047,-0.4831,-0.4646,-0.4592,-0.4358,-0.4049,-0.4059,-0.3863,-0.3487,-0.3477,0.0,0.0,0.0,0.0,0.0,0.0,0.0,0.0,0.0,0.0,0.0,0.0,0.0,0.0,0.0,0.0,0.0,0.0,0.0,-0.5825,-0.5846,-0.6112,-0.6301,-0.6301,-0.6202,-0.6178,-0.6274,0.0,0.0,0.0,0.0,0.0,-0.57,-0.534,-0.5016,-0.4683,-0.4725,-0.481,-0.4999,-0.5038,-0.5216,-0.5535,-0.5199,-0.4961,-0.4736,0.0,0.0,0.0,0.0,0.0,0.0,0.0,0.0,0.0,0.0,0.0,0.0,0.0,0.0,0.0,0.0,0.0,0.0,0.0,0.0,0.0,0.0,0.0,0.0,0.0,0.0,0.0,0.0,0.0,0.0,0.0,0.0,0.0,0.0,0.0,0.0,0.0,0.0,0.0,0.0,0.0,-0.5628,-0.5905,0.0,0.0,0.0,0.0,0.0,0.0,0.0,0.0,0.0,0.0,0.0,0.0,0.0,-0.5946,-0.6005,-0.5531,-0.549,-0.589,-0.4716,-0.4678,-0.5658,-0.4467,-0.4202,-0.4638,-0.3911,0.0,-0.3416,-0.3415,0.0,0.0,0.0,0.0,0.0,0.0,0.0,0.0,0.0,0.0,0.0,0.0,0.0,0.0,0.0,0.0,0.0,0.0,0.0,0.0,0.0,-0.5261,-0.5276,-0.5506,-0.5392,-0.5293,-0.5273,-0.5397,0.0,0.0,0.0,-0.5281,-0.5207,-0.5089,-0.4951,-0.4813,-0.489,-0.4992,-0.512,-0.5233,-0.5294,-0.5314,-0.5334,-0.5265,-0.5202,-0.5045,0.0,0.0,0.0,0.0,0.0,0.0,0.0,0.0,0.0,0.0,0.0,0.0,0.0,0.0,0.0,0.0,0.0,0.0,0.0,0.0,0.0,0.0,0.0,0.0,0.0,0.0,0.0,0.0,0.0,0.0,0.0,0.0,0.0,0.0,0.0,0.0,0.0,0.0,0.0,-0.5575,-0.5712,-0.6023,-0.5848,-0.5751,0.0,0.0,0.0,0.0,0.0,0.0,0.0,0.0,0.0,-0.5862,-0.6052,-0.622,-0.6403,-0.6274,-0.612,-0.5926,-0.5387,-0.5049,-0.4949,-0.4704,-0.4393,-0.402,-0.4015,-0.3893,-0.3704,-0.3458,-0.3375,-0.3408,0.0,0.0,0.0,0.0,-0.3139,-0.3113,0.0,0.0,0.0,0.0,0.0,0.0,0.0,0.0,0.0,0.0,0.0,0.0,-0.4941,-0.4489,-0.43,-0.4577,-0.4494,-0.4423,-0.4402,-0.4653,-0.4654,-0.4301,-0.4646,-0.4783,-0.4622,-0.4678,-0.4757,-0.4808,-0.4971,-0.5076,-0.5221,-0.5361,-0.5374,-0.5221,-0.5438,-0.5491,-0.5413,-0.5338,-0.5055,-0.46,0.0,0.0,0.0,0.0,0.0,0.0,0.0,0.0,0.0,0.0,0.0,0.0,0.0,0.0,0.0,0.0,0.0,0.0,0.0,0.0,0.0,0.0,0.0,0.0,0.0,0.0,0.0,0.0,0.0,0.0,0.0,0.0,0.0,0.0,0.0,0.0,0.0,-0.5743,-0.5799,-0.6091,-0.599,-0.5895,0.0,0.0,0.0,0.0,0.0,0.0,-0.5868,-0.5905,-0.6054,-0.6258,-0.6432,-0.6526,-0.6537,-0.6568,-0.6318,-0.5706,-0.5466,-0.4976,-0.424,-0.4588,-0.4275,-0.3437,-0.3968,-0.4041,-0.3823,-0.3632,-0.3597,-0.3671,-0.3619,-0.3687,-0.3783,-0.3269,-0.3162,-0.3212,0.0,0.0,0.0,0.0,0.0,0.0,0.0,0.0,0.0,0.0,0.0,-0.4458,-0.4611,-0.4161,-0.3828,-0.3864,-0.3745,-0.3777,-0.411,-0.39,-0.4003,-0.4473,-0.3959,-0.3738,-0.3852,-0.3732,-0.3905,-0.4344,-0.4461,-0.4803,-0.53,-0.5306,-0.5422,-0.5568,-0.5574,-0.5358,-0.4957,-0.5248,-0.5197,-0.489,-0.4886,0.0,0.0,0.0,0.0,0.0,0.0,0.0,0.0,0.0,0.0,0.0,0.0,0.0,0.0,0.0,0.0,0.0,0.0,0.0,0.0,0.0,0.0,0.0,0.0,0.0,0.0,0.0,0.0,0.0,0.0,0.0,0.0,0.0,0.0,0.0,0.0,0.0,0.0,-0.6135,-0.6193,0.0,0.0,0.0,0.0,-0.6098,-0.6324,-0.6416,-0.6268,-0.6506,-0.6665,-0.6669,-0.6985,-0.6807,-0.6047,-0.5715,-0.5417,-0.5141,-0.4104,-0.3851,-0.4277,-0.3815,-0.3566,-0.3493,-0.3533,-0.3516,-0.3459,-0.3963,-0.4504,-0.4943,-0.4295,-0.45,-0.4938,-0.3525,-0.3329,-0.3661,0.0,0.0,0.0,0.0,0.0,0.0,0.0,0.0,-0.4598,-0.4465,-0.3896,-0.3503,-0.3575,-0.279,-0.2423,-0.2869,-0.2661,-0.2598,-0.2868,-0.2944,-0.2986,-0.2954,-0.2992,-0.3105,-0.3268,-0.3612,-0.3862,-0.3966,-0.4313,-0.457,-0.4654,-0.4813,-0.4892,-0.4896,-0.5158,-0.5139,-0.4919,-0.5313,-0.5166,-0.4722,-0.4944,-0.4823,0.0,0.0,0.0,0.0,0.0,0.0,0.0,0.0,0.0,0.0,0.0,0.0,0.0,0.0,0.0,0.0,0.0,0.0,0.0,0.0,0.0,0.0,0.0,0.0,0.0,0.0,0.0,0.0,0.0,0.0,0.0,0.0,0.0,0.0,0.0,0.0,0.0,-0.6342,-0.6421,0.0,-0.6266,-0.6597,-0.6722,-0.6505,-0.6905,-0.7113,-0.7077,-0.7167,-0.7257,-0.7408,-0.7076,-0.6809,-0.6652,-0.6018,-0.5574,-0.5365,-0.5028,-0.4688,-0.4358,-0.4693,-0.4387,-0.3585,-0.406,-0.4177,-0.3985,-0.4232,-0.4149,-0.3856,-0.3619,-0.3671,-0.3851,-0.3258,-0.3179,-0.3321,0.0,0.0,0.0,0.0,0.0,0.0,0.0,0.0,-0.4257,-0.3909,-0.3272,-0.276,-0.2577,-0.171,-0.1303,-0.1761,-0.1658,-0.1652,-0.1912,-0.2154,-0.2262,-0.215,-0.2395,-0.2584,-0.274,-0.3301,-0.3628,-0.3751,-0.4212,-0.4437,-0.4452,-0.4614,-0.4654,-0.4582,-0.4935,-0.4986,-0.4914,-0.5323,-0.5219,-0.481,-0.4922,-0.4833,-0.468,0.0,0.0,0.0,0.0,0.0,0.0,0.0,0.0,0.0,0.0,0.0,0.0,0.0,0.0,0.0,0.0,0.0,0.0,0.0,0.0,0.0,0.0,0.0,0.0,0.0,0.0,0.0,0.0,0.0,0.0,0.0,0.0,0.0,0.0,-0.588,-0.6208,-0.6455,-0.6641,-0.6663,-0.6475,-0.681,-0.6976,-0.6796,-0.733,-0.745,-0.6989,-0.724,-0.7257,-0.6947,-0.6678,-0.648,-0.6315,-0.5817,-0.5345,-0.4946,-0.4984,-0.4732,-0.4206,-0.4583,-0.4267,-0.3448,-0.3814,-0.3827,-0.3648,-0.3711,-0.3392,-0.2901,-0.3247,-0.3468,-0.3529,-0.2971,-0.2857,-0.2949,0.0,0.0,0.0,0.0,0.0,0.0,-0.4049,-0.4111,-0.3975,-0.344,-0.285,-0.2271,-0.1746,-0.1019,-0.0589,-0.0589,-0.0768,-0.1026,-0.1354,-0.1572,-0.1829,-0.2146,-0.2187,-0.2183,-0.2184,-0.272,-0.3175,-0.3571,-0.4032,-0.4411,-0.4664,-0.4666,-0.4666,-0.4708,-0.4915,-0.4938,-0.4834,-0.5278,-0.5381,-0.518,-0.4848,-0.4836,-0.4983,0.0,0.0,0.0,0.0,0.0,0.0,0.0,0.0,0.0,0.0,0.0,0.0,0.0,0.0,0.0,0.0,0.0,0.0,0.0,0.0,0.0,0.0,0.0,0.0,0.0,0.0,0.0,0.0,0.0,0.0,0.0,0.0,0.0,-0.5774,-0.6101,-0.6368,-0.6521,-0.6813,-0.6974,-0.683,-0.7127,-0.7241,-0.6991,-0.753,-0.73,-0.5963,-0.6685,-0.6525,-0.5249,-0.5826,-0.5746,-0.4957,-0.4991,-0.4649,-0.3865,-0.3812,-0.3767,-0.373,-0.3299,-0.3064,-0.3062,-0.2668,-0.2477,-0.2385,-0.2385,-0.2312,-0.2297,-0.3276,-0.3937,-0.4146,-0.2654,-0.2384,-0.2699,0.0,0.0,0.0,0.0,0.0,0.0,-0.4024,-0.3789,-0.3461,-0.3036,-0.2214,-0.1601,-0.1296,-0.073,-0.0432,-0.0589,-0.0653,-0.0739,-0.08,-0.0961,-0.1212,-0.1522,-0.1916,-0.2127,-0.2109,-0.2456,-0.2696,-0.2859,-0.3034,-0.3358,-0.383,-0.3959,-0.4216,-0.4554,-0.4695,-0.477,-0.4743,-0.4865,-0.4979,-0.5063,-0.5152,-0.516,-0.5054,0.0,0.0,0.0,0.0,0.0,0.0,0.0,0.0,0.0,0.0,0.0,0.0,0.0,0.0,0.0,0.0,0.0,0.0,0.0,0.0,0.0,0.0,0.0,0.0,0.0,0.0,0.0,0.0,0.0,0.0,0.0,-0.5416,-0.5751,-0.6054,-0.6357,-0.6676,-0.7106,-0.7341,-0.7365,-0.726,-0.7547,-0.7372,-0.6413,-0.6789,-0.6551,-0.537,-0.5537,-0.5501,-0.5074,-0.4784,-0.4484,-0.4222,-0.3626,-0.3253,-0.303,-0.2954,-0.2938,-0.2938,-0.2777,-0.2712,-0.2668,-0.255,-0.25,-0.2485,-0.2485,-0.2437,-0.2413,-0.2547,-0.2679,-0.2768,-0.232,-0.2244,-0.2329,0.0,0.0,0.0,0.0,0.0,0.0,-0.3928,-0.3547,-0.3114,-0.2615,-0.1854,-0.1193,-0.0824,-0.0425,-0.0235,-0.0348,-0.0416,-0.0508,-0.0646,-0.0821,-0.095,-0.1052,-0.1391,-0.1587,-0.1655,-0.2003,-0.2262,-0.2422,-0.267,-0.2949,-0.3255,-0.3387,-0.3562,-0.3868,-0.4208,-0.4357,-0.44,-0.4703,-0.4875,-0.5027,-0.5116,-0.5181,-0.527,-0.5119,-0.5271,-0.5526,-0.5625,-0.5898,-0.6237,-0.6381,0.0,0.0,0.0,0.0,0.0,0.0,0.0,0.0,0.0,0.0,0.0,0.0,0.0,0.0,0.0,0.0,0.0,0.0,0.0,0.0,0.0,0.0,0.0,0.0,-0.5527,-0.582,-0.6282,-0.6464,-0.6751,-0.7115,-0.7309,-0.7419,-0.7333,-0.7209,-0.6798,-0.6111,-0.6028,-0.5456,-0.4279,-0.4548,-0.4478,-0.3833,-0.366,-0.3533,-0.3493,-0.2961,-0.2705,-0.2694,-0.2643,-0.2598,-0.2598,-0.2432,-0.232,-0.223,-0.2071,-0.198,-0.2002,-0.2002,-0.2002,0.0,0.0,0.0,0.0,0.0,-0.1755,-0.1753,0.0,0.0,0.0,0.0,0.0,0.0,-0.3793,-0.3345,-0.2825,-0.2273,-0.1609,-0.0929,-0.0313,-0.0079,0.0039,0.0038,-0.0148,-0.0387,-0.0617,-0.087,-0.0908,-0.0699,-0.0748,-0.0867,-0.0978,-0.1322,-0.1614,-0.1884,-0.2194,-0.2372,-0.2508,-0.2508,-0.2597,-0.2822,-0.3401,-0.3714,-0.3849,-0.4563,-0.4877,-0.4868,-0.4826,-0.5056,-0.541,-0.5289,-0.5274,-0.5411,-0.5743,-0.5806,-0.5798,-0.6181,0.0,0.0,0.0,0.0,0.0,0.0,0.0,0.0,0.0,0.0,0.0,0.0,0.0,0.0,0.0,0.0,0.0,0.0,0.0,0.0,0.0,0.0,0.0,0.0,-0.5593,-0.5769,-0.6382,-0.6534,-0.6653,-0.6824,-0.6928,-0.702,-0.702,-0.6256,-0.5728,-0.5586,-0.5048,-0.4188,-0.2881,-0.3553,0.0,0.0,0.0,-0.2733,-0.2727,-0.2619,-0.2569,-0.2574,-0.2475,-0.2449,-0.2449,-0.2068,-0.1875,-0.1794,-0.1385,-0.1207,-0.1222,-0.1219,-0.1218,-0.1257,-0.1648,-0.1743,-0.1669,-0.1257,-0.108,-0.1055,0.0,0.0,0.0,0.0,0.0,0.0,-0.3796,-0.3047,-0.2397,-0.2214,-0.1166,-0.0297,0.0,0.0157,0.0274,0.0312,0.0074,-0.0138,-0.0292,-0.0452,-0.0553,-0.0634,-0.0727,-0.0801,-0.0771,-0.0135,0.0179,0.0134,0.0804,0.0759,0.0,0.0,-0.0716,-0.2014,-0.2149,-0.2551,-0.3135,-0.363,-0.3985,-0.416,-0.4548,-0.4826,-0.4914,-0.4865,-0.4925,-0.5087,-0.4982,-0.5104,-0.5313,-0.5225,-0.5222,-0.5239,-0.54,-0.54,0.0,0.0,0.0,0.0,0.0,0.0,0.0,0.0,0.0,0.0,0.0,0.0,0.0,0.0,0.0,0.0,0.0,0.0,0.0,-0.554,-0.5805,-0.6087,-0.6305,-0.6388,-0.6588,-0.7057,-0.641,-0.5911,-0.5911,-0.4965,-0.4024,-0.3184,-0.3196,-0.2751,-0.1598,-0.1904,-0.1991,-0.171,-0.1772,-0.1787,-0.1758,-0.1687,-0.1665,-0.1649,-0.1658,0.0,-0.1641,-0.134,-0.1196,-0.117,-0.0862,-0.0731,-0.0726,-0.0752,-0.0746,-0.0746,-0.0982,-0.1096,-0.105,-0.0797,-0.0703,-0.0685,0.0,0.0,0.0,0.0,0.0,0.0,-0.3379,-0.2529,-0.1815,-0.1765,-0.0888,-0.0179,0.0038,0.0112,0.0223,0.0446,0.028,0.0169,0.0206,0.0071,-0.0038,-0.0085,0.0299,0.0394,0.0185,0.113,0.1519,0.1385,0.1876,0.1876,0.1385,0.1385,0.0849,-0.0224,-0.085,-0.1433,-0.2063,-0.2901,-0.3301,-0.3451,-0.3944,-0.4181,-0.423,-0.4704,-0.487,-0.4897,-0.4787,-0.4793,-0.4846,-0.4818,-0.4739,-0.4691,-0.4901,-0.4872,-0.475,0.0,0.0,0.0,0.0,0.0,0.0,0.0,0.0,0.0,0.0,0.0,0.0,0.0,0.0,-0.4932,-0.5258,0.0,-0.5573,-0.5938,-0.6106,-0.6217,-0.6336,-0.6401,-0.6487,-0.6786,-0.5979,-0.5377,-0.5377,-0.4069,-0.2967,-0.2415,-0.2016,-0.1564,-0.101,-0.1111,-0.1207,-0.1196,-0.1162,-0.1139,-0.1127,-0.1093,-0.1037,-0.1048,-0.1048,-0.1042,-0.1031,-0.0898,-0.0839,-0.0856,-0.0719,-0.0623,-0.0609,-0.0595,-0.0593,-0.06,-0.06,-0.0675,-0.0745,-0.062,-0.0603,-0.0582,0.0,0.0,0.0,0.0,0.0,0.0,0.0,-0.2048,-0.1322,-0.1272,-0.0669,-0.0173,0.0036,0.0107,0.0209,0.0445,0.0396,0.04,0.0572,0.0494,0.045,0.0447,0.1394,0.173,0.1353,0.2469,0.2932,0.265,0.283,0.2825,0.2679,0.2679,0.2324,0.17,0.0763,-0.009,-0.0903,-0.1934,-0.2531,-0.2817,-0.3281,-0.35,-0.3582,-0.433,-0.4667,-0.4756,-0.4715,-0.4634,-0.4539,-0.4625,-0.4525,-0.4415,-0.4587,-0.462,-0.4518,-0.4268,-0.4404,0.0,0.0,0.0,0.0,0.0,0.0,0.0,0.0,-0.4829,-0.4868,-0.4857,-0.4865,-0.5054,-0.5505,-0.5547,-0.5665,-0.6129,-0.6248,-0.6284,-0.6326,-0.6187,-0.6087,-0.6087,-0.5331,-0.4728,-0.4528,-0.297,-0.1913,-0.1913,-0.116,-0.0707,-0.0707,-0.0758,-0.0808,-0.0808,-0.0782,-0.0815,-0.0815,-0.0752,-0.0698,-0.0698,-0.0709,-0.0708,-0.0694,-0.0648,-0.0635,-0.0656,-0.0567,-0.0553,-0.0491,-0.0482,-0.0483,-0.0451,-0.0287,-0.0324,-0.0477,-0.0473,-0.0498,-0.048,0.0,0.0,0.0,0.0,0.0,0.0,0.0,0.0,-0.121,-0.1137,-0.0487,0.0071,0.0327,0.0392,0.0443,0.041,0.0447,0.0492,0.0509,0.0597,0.0655,0.067,0.1733,0.2296,0.2235,0.4144,0.4957,0.4597,0.5425,0.5418,0.4694,0.4694,0.4069,0.2998,0.2964,0.193,0.0092,-0.0329,-0.1183,-0.2322,-0.2847,-0.3083,-0.3069,-0.3106,-0.3774,-0.4665,-0.4444,-0.4492,-0.4658,-0.448,-0.4403,-0.4387,-0.4413,-0.4468,-0.443,-0.3972,-0.3912,-0.3941,-0.3646,-0.3925,-0.4273,-0.4342,-0.4408,-0.4562,0.0,-0.4896,-0.4784,-0.5022,-0.5139,-0.524,-0.5158,-0.5346,-0.5533,-0.5594,-0.582,-0.6029,-0.6039,-0.5438,-0.4985,-0.4985,-0.4078,-0.3071,-0.2116,-0.0958,-0.0252,-0.0252,-0.0353,-0.0455,-0.0455,-0.0657,-0.0808,-0.0808,-0.0792,-0.0783,-0.0783,-0.072,-0.0713,-0.0713,-0.0714,-0.0708,-0.0694,-0.0509,-0.0411,-0.0402,-0.0175,-0.0086,-0.0084,-0.0084,-0.0084,-0.0084,-0.0042,-0.0042,-0.0083,-0.008,-0.0078,-0.0077,0.0,0.0,0.0,0.0,0.0,0.0,0.0,0.0,0.0,-0.0533,-0.0201,0.0102,0.0319,0.0549,0.0655,0.062,0.073,0.0829,0.0914,0.0996,0.1003,0.0956,0.2528,0.3323,0.3126,0.5199,0.6211,0.5947,0.6441,0.6403,0.5882,0.5882,0.5376,0.4453,0.4068,0.2957,0.1223,0.048,-0.0529,-0.1623,-0.2315,-0.2552,-0.2569,-0.2795,-0.3193,-0.3646,-0.3655,-0.3674,0.0,-0.3984,-0.3961,-0.3909,-0.4094,-0.4075,-0.391,-0.3637,-0.365,-0.3747,-0.3885,-0.4015,-0.4199,-0.4474,-0.461,-0.4756,-0.5043,-0.501,-0.5008,-0.5263,-0.5389,-0.5425,-0.5388,-0.5464,-0.5594,-0.5658,-0.5804,-0.5678,-0.5063,-0.4655,-0.3975,-0.2622,-0.2085,-0.1734,-0.1615,-0.0606,0.0,0.0,-0.0101,-0.0152,-0.0152,-0.0253,-0.0354,-0.0354,-0.0347,-0.0344,-0.0344,-0.0292,-0.0291,-0.0291,-0.0294,-0.0194,-0.0047,0.0047,0.0139,0.0269,0.0351,0.039,0.0386,0.0423,0.0424,0.0386,0.0386,0.0389,0.0391,0.0083,0.008,0.0157,0.0,0.0,0.0,0.0,0.0,0.0,0.0,0.0,0.0,0.0,0.0,0.0099,0.0342,0.0554,0.0718,0.0825,0.0948,0.1065,0.1172,0.1235,0.1381,0.154,0.3333,0.4274,0.4309,0.6177,0.7083,0.6935,0.7039,0.6925,0.6602,0.6552,0.6222,0.5661,0.5115,0.3833,0.2113,0.1371,0.0245,-0.1068,-0.1721,-0.1955,-0.1966,-0.2382,-0.2537,-0.2578,-0.2961,-0.3011,-0.3021,-0.3376,-0.342,-0.3361,-0.3575,-0.3576,-0.3445,-0.3305,-0.336,-0.3577,-0.3905,-0.4041,-0.4206,-0.4478,-0.4742,-0.4916,-0.4984,-0.5036,-0.5154,-0.5331,-0.5395,-0.5397,-0.5416,-0.5404,-0.5409,-0.5484,-0.5623,-0.5321,-0.4213,-0.3869,-0.3039,-0.1017,-0.0563,-0.0513,-0.0864,-0.0203,0.0254,0.0202,0.0202,0.0202,0.0202,0.0202,0.0202,0.0202,0.0199,0.0198,0.0198,0.0198,0.0198,0.0198,0.0201,0.0347,0.0524,0.0471,0.0553,0.0717,0.0707,0.0702,0.0702,0.069,0.0692,0.0702,0.0702,0.0709,0.067,0.0303,0.0292,0.04,0.0,0.0,0.0,0.0,0.0,0.0,0.0,0.0,0.0,0.0,0.0,0.0,0.0,0.046,0.0531,0.0856,0.0968,0.1014,0.111,0.1229,0.1745,0.2687,0.3851,0.5016,0.6096,0.7221,0.7659,0.7466,0.7472,0.7257,0.6891,0.6602,0.6505,0.6464,0.6305,0.4888,0.2595,0.2694,0.1359,-0.0857,-0.111,-0.1248,-0.127,-0.1456,-0.1603,-0.1758,-0.2517,-0.2823,-0.2808,-0.2809,-0.2833,-0.2831,-0.284,-0.296,-0.309,-0.2954,-0.3066,-0.3227,-0.3395,-0.3808,-0.421,-0.4222,-0.4506,-0.4826,-0.4822,-0.4892,-0.5033,-0.5077,-0.5079,-0.5017,-0.5019,-0.4896,-0.4836,-0.4839,-0.5171,-0.4994,-0.3792,-0.3071,-0.2174,-0.0932,0.0102,0.0763,0.0829,0.083,0.0824,0.0759,0.0758,0.0758,0.0758,0.0758,0.0758,0.0758,0.0757,0.0757,0.0757,0.0757,0.0757,0.0757,0.0757,0.0792,0.0809,0.0732,0.0673,0.0718,0.0717,0.0717,0.0717,0.0717,0.0717,0.0717,0.0717,0.0717,0.0717,0.0672,0.0697,0.067,0.0,0.0,0.0,0.0,0.0,0.0,0.0,0.0,0.0,0.0,0.0,0.0,0.0,0.0,0.0,0.0,0.1014,0.1097,0.1274,0.1272,0.17,0.2772,0.3875,0.4874,0.571,0.7001,0.7624,0.758,0.758,0.751,0.7355,0.716,0.7066,0.6957,0.6712,0.5782,0.4235,0.3213,0.1928,0.0462,-0.0551,-0.0952,-0.0958,-0.109,-0.1159,-0.1202,0.0,-0.1959,-0.2235,-0.2518,-0.2605,-0.2622,-0.2755,-0.2772,-0.2722,-0.2553,-0.2568,-0.2787,-0.3331,-0.3647,-0.3935,-0.4472,-0.4769,-0.4924,-0.4924,-0.4949,-0.4998,-0.509,-0.4845,-0.4634,-0.4696,-0.4632,-0.4542,-0.4651,-0.4937,-0.4496,-0.2617,-0.2165,-0.1288,0.0561,0.1128,0.1393,0.1454,0.1079,0.0814,0.0809,0.0808,0.0808,0.0808,0.0808,0.0808,0.0808,0.0808,0.0808,0.0808,0.0808,0.0803,0.0793,0.0918,0.0995,0.0981,0.1135,0.1166,0.1166,0.1166,0.1166,0.1166,0.1166,0.1256,0.1436,0.1436,0.1525,0.166,0.148,0.141,0.1329,0.0,0.0,0.0,0.0,0.0,0.0,0.0,0.0,0.0,0.0,0.0,0.0,0.0,0.0,0.0,0.0,0.0,0.1291,0.1445,0.1452,0.1924,0.2959,0.392,0.4803,0.5741,0.6748,0.7351,0.7447,0.7456,0.7466,0.7511,0.7324,0.7286,0.7267,0.6973,0.6226,0.5077,0.3685,0.2391,0.1142,-0.0145,-0.0671,-0.067,-0.0816,-0.089,0.0,-0.1065,-0.1356,-0.1706,-0.1994,-0.211,-0.2147,-0.2283,-0.2354,-0.2341,-0.2268,-0.2352,-0.2564,-0.3112,-0.3325,-0.3503,-0.4083,-0.4271,-0.4369,-0.4396,-0.4558,-0.4738,-0.4825,-0.4652,-0.4551,-0.461,-0.4547,-0.4493,-0.452,-0.4451,-0.3784,-0.188,-0.1378,-0.0461,0.1429,0.1641,0.165,0.1713,0.1328,0.1114,0.1122,0.1122,0.1119,0.1112,0.1061,0.1061,0.1061,0.1061,0.1061,0.1061,0.1061,0.1101,0.108,0.1179,0.1249,0.1248,0.1449,0.1525,0.157,0.166,0.1705,0.1705,0.1705,0.1794,0.193,0.193,0.2064,0.2199,0.2019,0.1903,0.1778,0.0,0.0,0.0,0.0,0.0,0.0,0.0,0.0,0.0,0.0,0.0,0.0,0.0,0.0,0.0,0.0,0.0,0.0,0.1611,0.1793,0.2325,0.3341,0.388,0.4816,0.6122,0.6477,0.6826,0.7172,0.7107,0.7173,0.7371,0.7102,0.7114,0.7327,0.7036,0.6206,0.4988,0.3967,0.2702,0.1282,0.009,-0.0392,-0.0419,-0.0598,-0.0711,-0.0769,-0.0779,-0.0938,-0.1199,-0.1346,-0.1393,-0.1408,-0.1484,-0.1691,-0.1916,-0.2114,-0.2324,-0.2502,-0.2718,-0.2869,-0.299,-0.3152,-0.3183,-0.3249,-0.3354,-0.3783,-0.4169,-0.4245,-0.4425,-0.4635,-0.4596,-0.4568,-0.4524,-0.4396,-0.3881,-0.3054,-0.1771,-0.0897,0.0101,0.1397,0.1532,0.1578,0.1659,0.1636,0.1682,0.1712,0.1713,0.1647,0.1618,0.1617,0.1617,0.1617,0.1617,0.1617,0.1617,0.1615,0.16,0.162,0.1558,0.1528,0.1526,0.1723,0.1841,0.1839,0.2109,0.2199,0.2199,0.2199,0.2199,0.2199,0.2199,0.2243,0.2243,0.2199,0.2171,0.2089,0.0,0.0,0.0,0.0,0.0,0.0,0.0,0.0,0.0,0.0,0.0,0.0,0.0,0.0,0.0,0.0,0.0,0.0,0.1577,0.1659,0.2207,0.3347,0.3663,0.4405,0.5649,0.6002,0.6293,0.6535,0.6605,0.6678,0.6743,0.666,0.6509,0.6285,0.5931,0.5291,0.4346,0.302,0.2132,0.1468,0.0328,-0.0082,-0.0125,-0.0263,-0.0325,-0.0357,-0.0457,-0.0657,-0.0867,-0.1161,-0.1369,-0.1548,-0.1616,-0.1702,-0.1779,-0.1803,-0.1899,-0.2034,-0.234,-0.2472,-0.2642,-0.3071,-0.3262,-0.3349,-0.3415,-0.3523,-0.3646,-0.3711,-0.3558,-0.344,-0.3361,-0.3739,-0.402,-0.3836,-0.4185,-0.4073,-0.2903,-0.2561,-0.1867,-0.0355,0.0354,0.0915,0.1346,0.1911,0.2271,0.2282,0.1897,0.1625,0.1617,0.1617,0.1617,0.1617,0.1617,0.1617,0.1617,0.1794,0.1875,0.1915,0.2013,0.2067,0.2036,0.2072,0.2094,0.2109,0.2154,0.2199,0.2199,0.2199,0.2289,0.2424,0.2424,0.2558,0.2694,0.2513,0.2416,0.2404,0.0,0.0,0.0,0.0,0.0,0.0,0.0,0.0,0.0,0.0,0.0,0.0,0.0,0.0,0.0,0.0,0.0,0.0,0.0,0.1817,0.22,0.292,0.3291,0.3852,0.4598,0.4968,0.5329,0.5725,0.5569,0.5632,0.5925,0.5691,0.5555,0.5443,0.5239,0.4748,0.4024,0.2803,0.1969,0.0,0.0,0.0,0.0,-0.0071,-0.0104,-0.0105,-0.0197,-0.0428,-0.0751,-0.1029,-0.1301,-0.1522,-0.1543,-0.1573,-0.1562,-0.1606,-0.1669,-0.1772,-0.1985,-0.2074,-0.2146,-0.2453,-0.2559,-0.2648,-0.2681,-0.2881,-0.3085,-0.3191,-0.3196,-0.3155,-0.2995,-0.3315,-0.3532,-0.327,-0.3355,-0.3214,-0.254,-0.209,-0.1449,-0.0554,0.0252,0.0861,0.1229,0.1999,0.2459,0.2459,0.2149,0.1936,0.1769,0.1869,0.1919,0.1768,0.1869,0.1969,0.1969,0.2081,0.216,0.2159,0.2263,0.2266,0.2222,0.2315,0.2381,0.2334,0.2469,0.2513,0.2513,0.2513,0.2558,0.2694,0.2694,0.2784,0.292,0.2962,0.2962,0.3005,0.0,0.0,0.0,0.0,0.0,0.0,0.0,0.0,0.0,0.0,0.027,0.0506,0.0,0.0,0.0,0.0,0.0,0.0,0.0,0.0,0.2221,0.2357,0.2859,0.3251,0.3469,0.3773,0.4224,0.4804,0.4388,0.4462,0.4953,0.4527,0.445,0.4663,0.4576,0.4178,0.3567,0.2654,0.187,0.1127,0.0313,0.0,0.0,0.0,0.0,0.0,-0.0034,-0.032,-0.069,-0.0926,-0.1179,-0.1398,-0.141,-0.1435,-0.1424,-0.1528,-0.1566,-0.1606,-0.1683,-0.1684,-0.1714,-0.1714,-0.1639,-0.1643,-0.1783,-0.2161,-0.253,-0.2687,-0.2989,-0.3175,-0.295,-0.305,-0.3062,-0.276,-0.2257,-0.185,-0.1725,-0.0985,-0.0347,-0.0202,0.0555,0.1111,0.1313,0.2018,0.2522,0.2522,0.2561,0.2413,0.2073,0.2271,0.2271,0.2071,0.2271,0.2422,0.2422,0.2431,0.2461,0.246,0.2416,0.2369,0.2323,0.2549,0.2609,0.2558,0.2784,0.292,0.292,0.292,0.2918,0.3008,0.3008,0.3002,0.3129,0.3528,0.3655,0.3691,0.0,0.0,0.0,0.0,0.0,0.0,0.0,0.0,0.0,0.0,0.0202,0.0573,0.0,0.0,0.0,0.0,0.0,0.0,0.0,0.0,0.0,0.2221,0.2587,0.2924,0.3245,0.3465,0.3631,0.377,0.3941,0.3938,0.3805,0.3864,0.3687,0.3332,0.3197,0.2579,0.1578,0.131,0.083,0.0237,0.0062,0.0,0.0,0.0,0.0,0.0,-0.0202,-0.0324,-0.0511,-0.0948,-0.1207,-0.144,-0.1516,-0.1561,-0.1592,-0.1628,-0.1659,-0.1684,-0.17,-0.1684,-0.1714,-0.1714,-0.1639,-0.1643,-0.1783,-0.188,-0.1969,-0.2114,-0.2305,-0.2384,-0.2081,-0.2479,-0.2768,-0.2432,-0.2707,-0.2921,-0.2907,-0.2761,-0.2212,-0.1109,-0.0303,0.0656,0.1765,0.2574,0.3079,0.3079,0.3088,0.2835,0.2372,0.2371,0.2371,0.2321,0.2371,0.2422,0.2422,0.2615,0.2711,0.271,0.2907,0.2948,0.2938,0.2936,0.2882,0.2829,0.2873,0.0,0.292,0.292,0.3142,0.3499,0.3499,0.3636,0.3883,0.3968,0.3925,0.3879,0.0,0.0,0.0,0.0,0.0,0.0,0.0,-0.1714,-0.0909,-0.0471,-0.0034,0.0337,0.0607,0.0909,0.1109,0.0,0.0,0.0,0.0,0.0,0.0,0.0,0.2051,0.2204,0.2372,0.2569,0.2816,0.3091,0.0,0.3133,0.3224,0.2935,0.2688,0.2415,0.2217,0.1696,0.0923,0.0836,0.0486,0.0,0.0,0.0,0.0,0.0,0.0,0.0,-0.0105,-0.0256,-0.0427,-0.0652,-0.0895,-0.1165,-0.1508,-0.1605,-0.1626,-0.1671,-0.1694,-0.1707,-0.1723,-0.1706,-0.168,-0.1718,-0.1627,-0.161,-0.1663,-0.1702,-0.1776,-0.1827,-0.1972,-0.2052,-0.1866,-0.2155,-0.2318,-0.2139,-0.2291,-0.2465,-0.2463,-0.2407,-0.1997,-0.0907,-0.005,0.0857,0.1916,0.2725,0.318,0.318,0.318,0.3029,0.2623,0.2623,0.2674,0.2826,0.2826,0.2826,0.2826,0.2927,0.3013,0.2934,0.3054,0.3091,0.3048,0.3018,0.2974,0.292,0.292,0.3053,0.3275,0.3275,0.3544,0.3942,0.3942,0.4051,0.4228,0.44,0.4441,0.4402,0.0,0.0,0.0,0.0,0.0,0.0,-0.2919,-0.2183,-0.1446,-0.0807,-0.037,0.0034,0.0371,0.074,0.0975,0.0,0.0,0.0,0.0,0.0,0.0,0.0,0.0,0.0,0.148,0.0,0.0,0.235,0.2118,0.0,0.0,0.0,0.0,0.0,0.1554,0.1178,0.0745,0.067,0.0381,0.0,0.0,0.0,0.0,0.0,0.0,0.0,0.0,-0.0148,-0.0305,-0.0401,-0.0542,-0.0785,-0.1289,-0.1483,-0.1506,-0.1601,-0.168,-0.1702,-0.1786,-0.1722,-0.1697,-0.1721,-0.1672,-0.1588,-0.1597,-0.1674,-0.1737,-0.1686,-0.1824,-0.19,-0.1861,-0.1883,-0.1881,-0.1822,-0.1749,-0.1732,-0.1735,-0.1686,-0.124,-0.0255,0.0407,0.1167,0.2181,0.2833,0.318,0.318,0.318,0.313,0.2876,0.2876,0.2977,0.318,0.318,0.318,0.318,0.3167,0.3137,0.309,0.3065,0.305,0.3004,0.3083,0.3097,0.3053,0.3141,0.3409,0.3765,0.3765,0.4022,0.4404,0.4404,0.4423,0.4511,0.4803,0.4898,0.4954,0.0,0.0,0.0,0.0,0.0,0.0,-0.342,-0.2552,-0.1783,-0.1547,-0.0874,-0.0336,0.0,0.0337,0.0539,0.0,0.0,0.0,0.0,0.0,0.0,0.0,0.0,0.0,0.0,0.0,0.0,0.1244,0.1344,0.0,0.0,0.0,0.0,0.0,0.0,0.1035,0.0513,0.0452,0.0,0.0,0.0,0.0,0.0,0.0,0.0,0.0,0.0,0.0,-0.0076,-0.032,-0.0408,-0.0496,-0.0783,-0.1056,-0.1247,-0.13,-0.1501,-0.1725,-0.1701,-0.1706,-0.1697,-0.1721,-0.1637,-0.1615,-0.1605,-0.1695,-0.1769,-0.173,-0.1824,-0.1861,-0.1662,-0.1634,-0.1576,-0.1464,-0.1439,-0.1485,-0.1596,-0.1617,-0.1001,0.058,0.0783,0.1448,0.3002,0.3212,0.318,0.318,0.318,0.318,0.318,0.318,0.318,0.318,0.318,0.318,0.318,0.3126,0.3095,0.3089,0.3027,0.3015,0.3003,0.3356,0.3549,0.3544,0.3987,0.421,0.0,0.4255,0.4429,0.4745,0.4745,0.4882,0.5124,0.5308,0.5276,0.5195,0.0,0.0,0.0,0.0,0.0,0.0,-0.3553,-0.2854,-0.2252,-0.1849,-0.1144,-0.0573,-0.0337,-0.0101,0.0135,0.0472,0.0,0.0,0.0,0.0,0.0,0.0,0.0,0.0,0.0,0.0,0.0908,0.0908,0.1109,0.0,0.0,0.0,0.0,0.0,0.0,0.0671,0.0387,0.0309,0.0,0.0,0.0,0.0,0.0,0.0,0.0,0.0,0.0,0.0,0.0,-0.0118,-0.0159,-0.0159,-0.028,-0.0495,-0.0736,-0.1167,-0.1358,-0.1495,-0.1661,-0.1679,-0.1671,-0.1642,-0.1598,-0.1529,-0.149,-0.1507,-0.1473,-0.1411,-0.1458,-0.1538,-0.1591,-0.1595,-0.1597,-0.1643,-0.156,-0.1531,-0.1604,-0.1574,-0.0916,0.0706,0.0864,0.1427,0.3062,0.3193,0.318,0.318,0.318,0.318,0.318,0.318,0.318,0.318,0.318,0.318,0.318,0.3121,0.3286,0.3578,0.3575,0.3717,0.4047,0.4202,0.4204,0.4156,0.4336,0.4529,0.0,0.4743,0.4945,0.5347,0.5231,0.5278,0.5351,0.5295,0.5227,0.5184,0.0,0.0,0.0,0.0,0.0,-0.4331,-0.3956,-0.3389,-0.282,-0.2285,-0.1582,-0.0977,-0.0539,-0.0404,-0.0169,0.0303,0.0337,0.0,0.0,0.0,0.0,0.0,0.0,0.0,0.0,0.0,0.0572,0.0572,0.0774,0.0875,0.0,0.0,0.0706,0.0638,0.0,0.0,0.0,0.0,0.0,0.0,0.0,0.0,0.0,0.0,0.0,0.0,0.0,0.0,0.0,0.0,0.0,-0.0155,-0.0038,-0.0152,-0.0394,-0.089,-0.116,-0.1329,-0.151,-0.1649,-0.1707,-0.1624,-0.1613,-0.1585,-0.1497,-0.1488,-0.1474,-0.1383,-0.1429,-0.1493,-0.1572,-0.1611,-0.1602,-0.1651,-0.1586,-0.1521,-0.1522,-0.151,-0.0977,0.0435,0.0689,0.1242,0.245,0.2716,0.2927,0.318,0.318,0.318,0.318,0.318,0.3281,0.343,0.343,0.3531,0.3682,0.3614,0.3774,0.4112,0.4131,0.4332,0.4715,0.4858,0.485,0.4712,0.4848,0.502,0.0,0.5191,0.5395,0.5626,0.554,0.5486,0.5437,0.5344,0.5295,0.5281,0.0,0.0,0.0,0.0,0.0,0.0,-0.4797,-0.4228,-0.3591,-0.3056,-0.2353,-0.1548,-0.0607,-0.0506,-0.0371,-0.0034,0.0,0.0,0.0,0.0,0.0,0.0,0.0,0.0,0.0,0.0,0.0,0.0,0.0202,0.0303,0.0303,0.0438,0.0438,0.0303,0.0,0.0,0.0,0.0,0.0,0.0,0.0,0.0,0.0,0.0,0.0,0.0,0.0,0.0,0.0,0.0,0.0,0.0,0.0,-0.0149,-0.0298,-0.0369,-0.0782,-0.1183,-0.1209,-0.1465,-0.1707,-0.1624,-0.1694,-0.1786,-0.1711,-0.1805,-0.1886,-0.1799,-0.1854,-0.1848,-0.165,-0.1611,-0.1533,-0.1335,-0.1323,-0.1323,-0.1381,-0.1416,-0.1094,-0.0285,0.0382,0.0865,0.1027,0.1646,0.232,0.313,0.318,0.318,0.318,0.318,0.343,0.3982,0.3982,0.4234,0.4784,0.4695,0.4698,0.4698,0.4708,0.4715,0.4715,0.5187,0.5319,0.5216,0.5675,0.5793,0.0,0.5688,0.5618,0.5508,0.5508,0.5477,0.5427,0.5459,0.5502,0.5502,0.0,0.0,0.0,0.0,0.0,0.0,-0.4797,-0.4295,-0.3861,-0.3694,-0.3155,-0.2584,-0.2049,-0.2016,-0.1848,-0.1478,-0.0572,0.0,0.0,0.0,0.0,0.0,0.0,0.0,0.0,-0.0202,-0.0236,-0.0337,-0.027,-0.0236,-0.0236,-0.024,-0.024,-0.0236,-0.0374,-0.0408,0.0,0.0,0.0,0.0,0.0,0.0,-0.0583,0.0,0.0,0.0,0.0,0.0,0.0,0.0,0.0,0.0,0.0,0.0,0.0,-0.0525,-0.0699,-0.092,-0.1267,-0.1431,-0.1479,-0.149,-0.1592,-0.1716,-0.171,-0.1785,-0.1893,-0.1877,-0.1877,-0.1887,-0.1808,-0.169,-0.1588,-0.1556,-0.1409,-0.1305,-0.1384,-0.1452,-0.1169,-0.0374,0.0387,0.1043,0.1648,0.1859,0.232,0.313,0.3531,0.3732,0.3732,0.4083,0.4183,0.3982,0.3982,0.4234,0.4784,0.4745,0.4927,0.5336,0.5291,0.5523,0.5883,0.6031,0.5975,0.5842,0.5982,0.5915,0.5688,0.5688,0.5667,0.5623,0.554,0.5483,0.5445,0.5442,0.5426,0.5426,0.0,0.0,0.0,0.0,0.0,0.0,-0.503,-0.4694,-0.4359,-0.4125,-0.3754,-0.332,-0.2817,-0.2718,-0.2584,-0.2248,-0.1344,0.0,0.0,0.0,0.0,0.0,0.0,0.0,-0.0975,-0.0975,-0.1009,-0.111,-0.111,-0.111,-0.1111,-0.1163,-0.1127,-0.1111,-0.1231,-0.1263,0.0,0.0,0.0,0.0,0.0,0.0,-0.1529,0.0,0.0,0.0,0.0,0.0,0.0,0.0,0.0,0.0,0.0,0.0,0.0,0.0,-0.075,-0.0829,-0.1158,-0.1309,-0.1395,-0.1413,-0.1508,-0.1634,-0.168,-0.1794,-0.1858,-0.1889,-0.1887,-0.1887,-0.1808,-0.169,-0.1586,-0.1551,-0.1425,-0.1323,-0.1373,-0.1452,-0.122,-0.0417,-0.0192,0.0396,0.1547,0.1757,0.2217,0.3127,0.3882,0.4284,0.4284,0.4634,0.4734,0.4583,0.4583,0.4885,0.5386,0.5372,0.552,0.5884,0.5921,0.6072,0.6384,0.6393,0.6268,0.6083,0.6037,0.5909,0.0,0.5688,0.5688,0.5683,0.5605,0.5575,0.5567,0.5534,0.5507,0.5507,0.0,0.0,0.0,0.0,0.0,0.0,0.0,-0.5256,-0.4954,-0.4453,-0.4225,-0.3823,-0.3113,-0.2917,-0.2753,-0.2551,-0.2348,0.0,0.0,0.0,0.0,0.0,0.0,0.0,-0.2114,-0.2114,-0.2114,-0.2147,-0.2147,-0.2147,-0.2147,-0.2151,-0.2151,-0.2147,-0.2353,-0.2421,0.0,0.0,0.0,0.0,0.0,0.0,0.0,0.0,0.0,0.0,0.0,0.0,0.0,0.0,0.0,0.0,0.0,0.0,0.0,0.0,0.0,0.0,0.0,-0.123,-0.1378,-0.138,-0.1442,-0.155,-0.1658,-0.1752,0.0,-0.1878,-0.1887,-0.1848,-0.165,-0.1611,-0.1534,-0.1342,-0.1337,-0.134,-0.1315,-0.1384,-0.1205,-0.0556,-0.104,-0.0771,0.088,0.1345,0.1963,0.3022,0.4029,0.4684,0.4734,0.4784,0.5085,0.5636,0.5634,0.5884,0.6387,0.6387,0.6387,0.6387,0.6387,0.6381,0.6371,0.6317,0.6246,0.0,0.5953,0.5839,0.5688,0.5688,0.5688,0.5688,0.5688,0.5688,0.5688,0.5688,0.5688,0.5688,0.0,0.0,0.0,0.0,0.0,0.0,0.0,0.0,0.0,0.0,-0.5093,-0.4894,-0.4392,-0.4325,-0.4195,0.0,0.0,0.0,0.0,0.0,0.0,0.0,0.0,0.0,-0.2315,-0.2315,-0.2417,-0.2551,-0.2551,-0.2551,-0.2552,-0.2573,-0.257,-0.2554,-0.2609,-0.2636,0.0,0.0,0.0,0.0,0.0,0.0,0.0,0.0,0.0,0.0,-0.2364,-0.2034,0.0,0.0,0.0,0.0,0.0,0.0,0.0,0.0,-0.1526,-0.1675,-0.1633,0.0,-0.1259,-0.1323,-0.1432,-0.1576,0.0,-0.1775,-0.1874,-0.1885,-0.1887,-0.1887,-0.1848,-0.169,-0.1591,-0.1605,-0.1337,-0.1155,-0.1372,-0.1289,-0.1136,-0.1041,-0.0977,-0.0543,0.0481,0.0643,0.1059,0.1915,0.2571,0.3325,0.4126,0.4582,0.5236,0.6187,0.6234,0.6287,0.6387,0.6387,0.6387,0.6387,0.6387,0.6391,0.6309,0.6331,0.6151,0.5945,0.5915,0.5839,0.5688,0.5688,0.5688,0.5688,0.5688,0.5688,0.5688,0.5688,0.5688,0.5688,0.0,0.0,0.0,0.0,0.0,0.0,0.0,0.0,0.0,0.0,-0.5395,-0.5329,-0.5096,-0.4994,-0.4861,0.0,0.0,0.0,0.0,0.0,0.0,0.0,0.0,-0.3155,-0.3255,-0.3255,-0.3322,-0.3424,-0.3424,-0.3491,-0.3556,-0.3576,-0.3608,-0.3658,-0.368,-0.3675,0.0,0.0,0.0,0.0,-0.3745,0.0,0.0,0.0,0.0,0.0,-0.3021,-0.265,0.0,-0.1725,-0.1566,-0.1636,0.0,0.0,0.0,0.0,-0.1808,-0.1882,-0.1856,-0.1629,-0.146,-0.1498,-0.1533,-0.1529,-0.1603,-0.1611,-0.1611,-0.1611,-0.1611,-0.1572,-0.1454,-0.1467,-0.1404,-0.122,-0.1216,-0.1237,-0.1307,-0.1126,-0.0995,-0.1013,-0.0886,-0.0595,0.0,0.0499,0.1009,0.1563,0.2319,0.3022,0.3624,0.4381,0.5085,0.5634,0.6134,0.6387,0.6387,0.6385,0.6361,0.6358,0.6301,0.6244,0.6184,0.6127,0.6029,0.5899,0.5847,0.5745,0.5688,0.5688,0.5688,0.5688,0.5688,0.5688,0.5688,0.5688,0.5688,0.5688,0.0,0.0,0.0,0.0,0.0,0.0,0.0,0.0,0.0,0.0,0.0,0.0,0.0,0.0,0.0,0.0,0.0,0.0,0.0,0.0,0.0,0.0,-0.4367,-0.4331,-0.4331,-0.4367,-0.4367,-0.4331,-0.4331,-0.4431,-0.4592,-0.4592,-0.4661,-0.4797,-0.4797,-0.4806,-0.4873,0.0,0.0,0.0,-0.4691,0.0,0.0,0.0,0.0,0.0,0.0,0.0,0.0,-0.214,-0.2019,-0.2135,-0.1638,0.0,0.0,0.0,0.0,0.0,-0.1995,-0.1863,-0.178,-0.1819,-0.1607,-0.1448,-0.1556,-0.1454,-0.1296,-0.1296,-0.1296,-0.122,-0.0952,-0.1084,-0.109,-0.068,-0.1044,-0.1316,-0.1176,-0.0913,-0.0761,-0.0731,-0.069,-0.0596,-0.035,0.0503,0.1109,0.1361,0.2217,0.2771,0.2922,0.3979,0.4634,0.4784,0.5837,0.6387,0.6387,0.6325,0.6317,0.6317,0.6146,0.6075,0.6053,0.595,0.5893,0.5871,0.5731,0.0,0.5688,0.5688,0.5688,0.5688,0.5688,0.5688,0.5688,0.5688,0.5688,0.5688,0.0,0.0,0.0,0.0,0.0,0.0,0.0,0.0,0.0,0.0,0.0,0.0,0.0,0.0,0.0,0.0,0.0,0.0,0.0,0.0,0.0,-0.4731,-0.4628,-0.4561,-0.4561,-0.4664,-0.4664,-0.4561,-0.4561,-0.4561,-0.4592,-0.4592,-0.4661,-0.4797,-0.4797,-0.4892,-0.5074,-0.516,0.0,0.0,-0.5419,0.0,0.0,0.0,0.0,0.0,0.0,0.0,0.0,-0.2235,-0.2032,-0.2119,-0.1664,0.0,0.0,0.0,0.0,0.0,-0.2334,-0.2228,-0.2097,-0.1913,-0.1689,-0.1517,-0.1601,-0.1454,-0.1296,-0.1296,-0.1296,-0.1233,-0.0952,-0.0931,-0.0885,-0.0638,-0.0717,-0.085,-0.0849,-0.0609,-0.0452,-0.0481,-0.025,-0.0101,-0.0048,0.0099,0.0202,0.0252,0.0404,0.0908,0.1815,0.2871,0.3879,0.4784,0.5837,0.6387,0.6387,0.6325,0.6317,0.6317,0.6146,0.6032,0.5931,0.5912,0.585,0.5715,0.0,0.5688,0.5688,0.5688,0.5688,0.5688,0.5688,0.5688,0.5688,0.5688,0.5688,0.5688,0.0,0.0,0.0,0.0,0.0,0.0,0.0,0.0,0.0,0.0,0.0,0.0,0.0,0.0,0.0,0.0,0.0,0.0,0.0,0.0,-0.5193,-0.5126,-0.5123,-0.499,-0.4728,-0.4764,-0.4764,-0.4694,-0.4694,-0.4761,-0.4858,-0.4994,-0.506,-0.513,-0.513,-0.5208,-0.5385,-0.549,-0.556,0.0,0.0,0.0,0.0,0.0,0.0,0.0,0.0,0.0,0.0,0.0,-0.2337,-0.22,-0.1627,0.0,0.0,0.0,0.0,0.0,-0.2437,-0.2388,-0.229,-0.2141,-0.1844,-0.1585,-0.1622,-0.1482,-0.1324,-0.1309,-0.1195,-0.1046,-0.0854,-0.0808,-0.0778,-0.0737,-0.051,-0.0377,-0.0544,-0.0348,-0.0197,-0.0194,-0.0099,0.0,0.0,0.0,0.0,0.0,0.0,0.0202,0.0707,0.1765,0.2569,0.3073,0.468,0.5536,0.5536,0.5966,0.617,0.6168,0.6045,0.5926,0.5812,0.5812,0.5737,0.5688,0.0,0.5688,0.5688,0.5688,0.5688,0.5688,0.5688,0.5688,0.5688,0.5688,0.5688,0.5725,0.0,0.0,0.0,0.0,0.0,0.0,0.0,0.0,0.0,0.0,0.0,0.0,0.0,0.0,0.0,0.0,0.0,0.0,0.0,-0.5683,-0.562,-0.5524,-0.562,-0.5455,-0.4994,-0.5027,-0.5043,-0.5044,-0.5009,-0.5057,-0.5219,-0.5392,-0.5458,-0.5458,-0.5425,-0.5498,-0.5647,-0.5755,-0.5798,0.0,0.0,0.0,0.0,0.0,0.0,0.0,0.0,0.0,0.0,0.0,0.0,0.0,0.0,0.0,0.0,-0.2013,-0.2101,-0.2136,-0.228,-0.2274,-0.2187,-0.2155,-0.1902,-0.1683,-0.1695,-0.1557,-0.1395,-0.133,-0.117,-0.0922,-0.075,-0.0629,-0.0554,-0.0673,-0.0287,-0.0096,-0.0345,-0.0148,0.0,0.0,0.0,0.0,0.0,0.0,0.0,0.0,0.0,0.0,0.0,0.1009,0.1613,0.1613,0.3425,0.4524,0.4754,0.5465,0.5902,0.6083,0.5961,0.5858,0.5729,0.5729,0.5729,0.5726,0.5699,0.5688,0.5688,0.5688,0.5688,0.5688,0.5688,0.5688,0.5688,0.5688,0.5688,0.5719,0.0,0.0,0.0,0.0,0.0,0.0,0.0,0.0,0.0,0.0,0.0,0.0,0.0,0.0,0.0,0.0,0.0,0.0,0.0,-0.5888,-0.5888,-0.5859,-0.5888,-0.5785,-0.555,-0.5719,-0.5829,-0.5806,-0.5624,-0.555,-0.555,-0.5583,-0.5583,-0.5583,-0.5458,-0.5556,-0.5786,-0.5796,-0.5973,-0.6244,-0.6254,0.0,0.0,0.0,0.0,0.0,0.0,0.0,0.0,0.0,0.0,0.0,0.0,0.0,-0.1731,-0.1814,-0.1825,-0.1813,-0.1771,-0.1696,-0.167,-0.1671,-0.1777,-0.186,-0.1806,-0.1609,-0.1387,-0.1385,-0.1163,-0.0945,-0.0734,-0.0328,-0.0142,-0.0373,-0.0194,-0.01,-0.0353,-0.0156,0.0,0.0,0.0,0.0,0.0,0.0,0.0,0.0,0.0,0.0,0.0,0.1009,0.1613,0.1613,0.272,0.3744,0.4708,0.4829,0.5321,0.6083,0.5961,0.5899,0.589,0.589,0.589,0.5885,0.5734,0.5688,0.5688,0.5688,0.5688,0.5688,0.5688,0.5688,0.5688,0.5688,0.5688,0.573,0.0,0.0,0.0,0.0,0.0,0.0,0.0,0.0,0.0,0.0,0.0,0.0,0.0,0.0,0.0,0.0,0.0,0.0,0.0,-0.6222,-0.6222,-0.6222,-0.6222,-0.6185,-0.6083,-0.5954,-0.5889,-0.5914,-0.5818,-0.5785,-0.5785,-0.5785,-0.5719,-0.5583,-0.5554,-0.5572,-0.5677,-0.5766,-0.5922,-0.6125,-0.6259,-0.6149,0.0,0.0,0.0,0.0,0.0,0.0,0.0,0.0,-0.2688,-0.2196,-0.1598,-0.1453,-0.1512,-0.16,-0.1652,-0.1696,-0.173,-0.1793,-0.1769,-0.173,-0.1671,-0.1604,-0.1618,-0.1539,-0.1398,-0.1258,-0.1036,-0.0758,-0.033,-0.0097,-0.0049,-0.0145,-0.005,-0.0051,-0.0152,-0.0052,0.0,0.0,0.0,0.0,0.0,0.0,0.0,0.0,0.0,0.0,0.0,0.0404,0.0606,0.0606,0.1664,0.241,0.2791,0.3373,0.3831,0.4211,0.5525,0.573,0.4937,0.5595,0.5866,0.5795,0.5707,0.5688,0.5688,0.5688,0.5688,0.5688,0.5688,0.5688,0.5688,0.5688,0.5819,0.5997,0.0,0.0,0.0,0.0,0.0,0.0,0.0,0.0,0.0,0.0,0.0,0.0,0.0,0.0,0.0,0.0,0.0,0.0,-0.6387,-0.6387,-0.6387,-0.6387,-0.6387,-0.6387,-0.6387,-0.6185,-0.608,-0.6138,-0.6138,-0.6111,-0.6057,-0.602,-0.5918,-0.5782,-0.5716,-0.5709,-0.5769,-0.5797,-0.5892,-0.6043,-0.6112,-0.5962,0.0,0.0,0.0,0.0,0.0,0.0,0.0,0.0,-0.2554,-0.199,-0.1581,-0.1436,-0.1389,-0.1437,-0.1486,-0.1494,-0.1595,-0.1678,-0.1717,-0.1661,-0.1527,-0.1422,-0.1384,-0.1402,-0.136,-0.1166,-0.0879,-0.0538,-0.0096,0.0,0.0,0.0,0.0,0.0,0.0,0.0,0.0,0.0,0.0,0.0,0.0,0.0,0.0,0.0,0.0,0.0,0.0,0.0,0.0,0.0,0.0707,0.1257,0.1549,0.2218,0.253,0.2499,0.44,0.4797,0.3926,0.4643,0.4943,0.4881,0.5119,0.524,0.5285,0.5599,0.5688,0.5688,0.5688,0.5688,0.5688,0.5688,0.5863,0.6127,0.0,0.0,0.0,0.0,0.0,0.0,0.0,0.0,0.0,0.0,0.0,0.0,0.0,0.0,0.0,0.0,0.0,0.0,-0.6387,-0.6387,-0.6387,-0.6387,-0.6387,-0.6387,-0.6387,-0.6387,-0.6509,-0.6692,-0.6692,-0.6599,-0.6387,-0.6247,-0.621,-0.6178,-0.5987,-0.5981,-0.6069,-0.5893,-0.5913,-0.6097,-0.5875,-0.5718,-0.5589,0.0,0.0,0.0,0.0,0.0,0.0,0.0,-0.2417,-0.2316,-0.1782,-0.148,-0.1319,-0.1391,-0.1322,-0.121,-0.1204,-0.1234,-0.1319,-0.1368,-0.1391,-0.1378,-0.1206,-0.1196,-0.1212,-0.1212,-0.0747,-0.0295,-0.0049,0.0,0.0,0.0,0.0,0.0,0.0,0.0,0.0,0.0,0.0,0.0,0.0,0.0,0.0,0.0,0.0,0.0,0.0,0.0,0.0,0.0,0.0,0.045,0.1372,0.1519,0.1537,0.1385,0.2589,0.3088,0.2991,0.2978,0.2997,0.3039,0.3929,0.43,0.4344,0.5285,0.5688,0.5688,0.5688,0.5688,0.5688,0.5688,0.5863,0.6127,0.0,0.0,0.0,0.0,0.0,0.0,0.0,0.0,0.0,0.0,0.0,0.0,0.0,0.0,0.0,0.0,0.0,0.0,-0.6611,-0.6489,-0.6387,-0.6387,-0.6387,-0.6387,-0.6387,-0.6387,-0.6411,-0.6501,-0.6501,-0.6473,-0.6387,-0.635,-0.628,-0.621,-0.6148,-0.6047,-0.5974,-0.5987,-0.6029,-0.6084,-0.6051,-0.5895,-0.5721,0.0,0.0,0.0,0.0,0.0,0.0,0.0,0.0,0.0,-0.1892,-0.1697,-0.1567,-0.143,-0.1321,-0.12,-0.1209,-0.1249,-0.1311,-0.1399,-0.1168,-0.0971,-0.1136,-0.1195,-0.1093,-0.0705,-0.0352,-0.01,0.0,0.0,0.0,0.0,0.0,0.0,0.0,0.0,0.0,0.0,0.0,0.0,0.0,0.0,0.0,0.0,0.0,0.0,0.0,0.0,0.0,0.0,0.0,0.0148,0.0393,0.0435,0.0478,0.0425,0.0796,0.1295,0.1917,0.2666,0.2975,0.2936,0.3189,0.3315,0.3405,0.4344,0.5104,0.5688,0.5688,0.5688,0.5688,0.5688,0.5952,0.6299,0.0,0.0,0.0,0.0,0.0,0.0,0.0,0.0,0.0,0.0,-0.6946,-0.6988,0.0,0.0,0.0,0.0,0.0,0.0,-0.7069,-0.6852,-0.6722,-0.6593,-0.6552,-0.6482,-0.642,-0.6485,-0.6485,-0.6387,-0.6387,-0.6387,-0.6387,-0.6489,-0.6448,-0.6284,-0.6352,-0.6277,-0.6094,-0.6131,-0.6139,-0.6146,-0.6042,-0.5882,-0.5725,0.0,0.0,0.0,0.0,0.0,0.0,0.0,0.0,0.0,-0.2058,-0.1858,-0.166,-0.1539,-0.1385,-0.1222,-0.127,-0.1292,-0.1285,-0.1294,-0.1054,-0.0846,-0.0897,-0.0901,-0.0797,-0.0453,-0.0202,0.0,0.0,0.0,0.0,0.0,0.0,0.0,0.0,0.0,0.0,0.0,0.0,0.0,0.0,0.0,0.0,0.0,0.0,0.0,0.0,0.0,0.0,0.0,0.0,0.0,0.0,0.0,0.0,0.0,0.0,0.0318,0.0853,0.1498,0.1768,0.1749,0.2152,0.2509,0.2957,0.3494,0.4074,0.4612,0.5015,0.5151,0.5193,0.5686,0.6083,0.6432,0.0,0.0,0.0,0.0,0.0,0.0,0.0,0.0,0.0,0.0,-0.7151,-0.7174,0.0,0.0,0.0,0.0,0.0,0.0,0.0,-0.7421,-0.7193,-0.6958,-0.6793,-0.6639,-0.6444,-0.6595,-0.6599,-0.6411,-0.6395,-0.6387,-0.6391,-0.6595,-0.6595,-0.6448,-0.6603,-0.6591,-0.6407,-0.6288,-0.6214,-0.6214,-0.602,-0.5818,-0.5617,-0.5617,0.0,0.0,0.0,0.0,0.0,0.0,0.0,0.0,-0.2209,-0.1964,-0.17,-0.1712,-0.1472,-0.1233,-0.1308,-0.1303,-0.1251,-0.1088,-0.1069,-0.0899,-0.0449,-0.0354,-0.0354,-0.0354,-0.0152,0.0,0.0,0.0,0.0,0.0,0.0,0.0,0.0,0.0,0.0,0.0,0.0,0.0,0.0,0.0,0.0,0.0,0.0,0.0,0.0,0.0,0.0,0.0,0.0,0.0,0.0,0.0,0.0,0.0,0.0,0.0,0.0,0.0,0.0,0.0045,0.0898,0.1838,0.2777,0.2777,0.2823,0.3001,0.3941,0.43,0.4431,0.5638,0.6213,0.6432,0.0,0.0,0.0,0.0,0.0,0.0,0.0,0.0,0.0,0.0,0.0,0.0,0.0,0.0,0.0,0.0,0.0,0.0,0.0,-0.7564,-0.7394,-0.7232,-0.6984,-0.6831,-0.6797,-0.6736,-0.6672,-0.6635,-0.6489,-0.6387,-0.6391,-0.6607,-0.6668,-0.6623,-0.6694,-0.666,-0.6627,-0.6444,-0.635,-0.635,-0.6181,-0.6017,-0.5822,-0.565,-0.5521,0.0,0.0,0.0,0.0,0.0,0.0,0.0,-0.2209,-0.1964,-0.1694,-0.1713,-0.147,-0.116,-0.1052,-0.0997,-0.0935,-0.0819,-0.0671,-0.0448,-0.0151,-0.0101,-0.0101,-0.0101,-0.0051,0.0,0.0,0.0,0.0,0.0,0.0,0.0,0.0,0.0,0.0,0.0,0.0,0.0,0.0,0.0,0.0,0.0,0.0,0.0,0.0,0.0,0.0,0.0,0.0,0.0,0.0,0.0,0.0,0.0,0.0,0.0,0.0,0.0,0.0,0.0,0.0225,0.0853,0.1704,0.1704,0.2196,0.3001,0.3941,0.43,0.4433,0.5419,0.5952,0.6213,0.0,0.0,0.0,0.0,0.0,0.0,0.0,0.0,0.0,0.0,0.0,0.0,0.0,0.0,0.0,0.0,0.0,0.0,0.0,0.0,-0.8089,-0.785,-0.7686,-0.7513,-0.7232,-0.7082,-0.6901,-0.6693,-0.6588,-0.6505,-0.6391,-0.6692,-0.6725,-0.6558,-0.6767,-0.6751,-0.6558,-0.6461,-0.6387,-0.6387,-0.6317,-0.6181,-0.602,-0.5818,-0.5653,-0.5422,-0.4824,0.0,0.0,0.0,0.0,0.0,0.0,0.0,-0.1688,-0.1585,-0.1311,-0.104,-0.0877,-0.0848,-0.0772,-0.06,-0.039,-0.0152,-0.0051,0.0,0.0,0.0,0.0,0.0,0.0,0.0,0.0,0.0,0.0,0.0,0.0,0.0,0.0,0.0,0.0,0.0,0.0,0.0,0.0,0.0,0.0,0.0,0.0,0.0,0.0,0.0,0.0,0.0,0.0,0.0,0.0,0.0,0.0,0.0,0.0,0.0,0.0,0.0,0.0,0.0269,0.0718,0.0718,0.1032,0.1614,0.2553,0.2911,0.3045,0.4117,0.4607,0.4825,0.0,0.0,0.0,0.0,0.0,0.0,0.0,0.0,0.0,0.0,0.0,0.0,0.0,0.0,0.0,0.0,0.0,0.0,0.0,0.0,0.0,-0.8508,-0.8485,-0.8263,-0.7783,-0.7553,-0.7268,-0.6953,-0.6848,-0.6695,-0.6547,-0.6849,-0.6829,-0.6522,-0.6824,-0.678,-0.6465,-0.6432,-0.6387,-0.6387,-0.6387,-0.6317,-0.6181,-0.602,-0.5818,-0.5517,-0.4855,-0.4321,-0.3855,-0.3215,0.0,0.0,0.0,0.0,-0.1647,-0.1421,-0.1149,-0.0876,-0.0741,-0.0658,-0.0527,-0.0379,-0.0148,0.0,0.0,0.0,0.0,0.0,0.0,0.0,0.0,0.0,0.0,0.0,0.0,0.0,0.0,0.0,0.0,0.0,0.0,0.0,0.0,0.0,0.0,0.0,0.0,0.0,0.0,0.0,0.0,0.0,0.0,0.0,0.0,0.0,0.0,0.0,0.0,0.0,0.0,0.0,0.0,0.0,0.0,0.0,0.0,0.0,0.0,0.009,0.1032,0.1391,0.1524,0.273,0.3175,0.3352,0.0,0.0,0.0,0.0,0.0,0.0,0.0,0.0,0.0,0.0,-0.9548,0.0,0.0,0.0,0.0,0.0,0.0,0.0,0.0,0.0,0.0,-0.8906,-0.8747,-0.8621,-0.857,-0.8196,-0.7963,-0.7898,-0.7377,-0.716,-0.7196,-0.707,-0.6963,-0.6914,-0.6808,-0.6704,-0.6647,-0.6485,-0.6387,-0.6387,-0.6387,-0.6317,-0.621,-0.6181,-0.5914,-0.5514,-0.4984,-0.4664,-0.4333,-0.3332,-0.2942,0.0,0.0,0.0,-0.1642,-0.1244,-0.1044,-0.0816,-0.0469,-0.0226,-0.0095,-0.005,-0.005,0.0,0.0,0.0,0.0,0.0,0.0,0.0,0.0,0.0,0.0,0.0,0.0,0.0,0.0,0.0,0.0,0.0,0.0,0.0,0.0,0.0,0.0,0.0,0.0,0.0,0.0,0.0,0.0,0.0,0.0,0.0,0.0,0.0,0.0,0.0,0.0,0.0,0.0,0.0,0.0,0.0,0.0,0.0,0.0,0.0,0.0,0.009,0.1032,0.1391,0.1524,0.2553,0.3042,0.3264,0.0,0.0,0.0,0.0,0.0,0.0,0.0,0.0,0.0,0.0,0.0,-1.0775,0.0,0.0,0.0,0.0,0.0,0.0,0.0,0.0,0.0,-0.9505,-0.9305,-0.9146,-0.9056,-0.8628,-0.8385,-0.8284,-0.8008,-0.7847,-0.7744,-0.7676,-0.7407,-0.6984,-0.691,-0.682,-0.6684,-0.6497,-0.6387,-0.6387,-0.6387,-0.6444,-0.6457,-0.6287,-0.614,-0.5974,-0.5446,-0.5017,-0.4595,-0.3743,-0.3181,-0.2737,-0.2124,0.0,0.0,0.0,-0.0844,-0.0658,-0.0255,-0.0046,0.0,0.0,0.0,0.0,0.0,0.0,0.0,0.0,0.0,0.0,0.0,0.0,0.0,0.0,0.0,0.0,0.0,0.0,0.0,0.0,0.0,0.0,0.0,0.0,0.0,0.0,0.0,0.0,0.0,0.0,0.0,0.0,0.0,0.0,0.0,0.0,0.0,0.0,0.0,0.0,0.0,0.0,0.0,0.0,0.0,0.0,0.0,0.0,0.0,0.0045,0.0449,0.0629,0.0673,0.1122,0.1345,0.1524,0.0,0.0,0.0,0.0,0.0,0.0,0.0,0.0,0.0,0.0,0.0,0.0,0.0,0.0,0.0,0.0,0.0,0.0,0.0,0.0,0.0,-0.9884,-0.9771,-0.9611,-0.9469,-0.9118,-0.8855,-0.8703,-0.8563,-0.8388,-0.8245,-0.8133,-0.7803,-0.7264,-0.7091,-0.6884,-0.668,-0.6497,-0.6387,-0.6391,-0.6469,-0.657,-0.668,-0.6481,-0.6431,-0.6418,-0.597,-0.5506,-0.4965,-0.4131,-0.3422,-0.2787,-0.2051,-0.1646,0.0,0.0,0.0,-0.0428,-0.0084,0.0,0.0,0.0,0.0,0.0,0.0,0.0,0.0,0.0,0.0,0.0,0.0,0.0,0.0,0.0,0.0,0.0,0.0,0.0,0.0,0.0,0.0,0.0,0.0,0.0,0.0,0.0,0.0,0.0,0.0,0.0,0.0,0.0,0.0,0.0,0.0,0.0,0.0,0.0,0.0,0.0,0.0,0.0,0.0,0.0,0.0,0.0,0.0,0.0,0.0,0.0,0.0,0.0,0.0,0.0,0.0045,0.0224,0.0,0.0,0.0,0.0,0.0,0.0,0.0,0.0,0.0,0.0,0.0,0.0,-1.085,-1.0801,-1.0608,-1.0013,-0.9938,0.0,0.0,0.0,0.0,-0.9884,-0.9879,0.0,-0.9863,-0.9653,-0.9532,-0.955,-0.8968,-0.8681,-0.8647,-0.8275,-0.8084,-0.8011,-0.7323,-0.6898,-0.6698,-0.6493,-0.6387,-0.6432,-0.6611,-0.668,-0.6731,-0.6894,-0.6829,-0.6675,-0.6425,-0.6119,-0.5648,-0.4423,-0.3751,-0.3253,-0.2016,-0.1509,-0.1331,0.0,0.0,0.0,-0.0041,0.0,0.0,0.0,0.0,0.0,0.0,0.0,0.0,0.0,0.0,0.0,0.0,0.0,0.0,0.0,0.0,0.0,0.0,0.0,0.0,0.0,0.0,0.0,0.0,0.0,0.0,0.0,0.0,0.0,0.0,0.0,0.0,0.0,0.0,0.0,0.0,0.0,0.0,0.0,0.0,0.0,0.0,0.0,0.0,0.0,0.0,0.0,0.0,0.0,0.0,0.0,0.0,0.0,0.0,0.0,0.018,0.0403,0.0,0.0,0.0,0.0,0.0,0.0,0.0,0.0,0.0,0.0,0.0,0.0,0.0,-1.0954,-1.0961,-1.0742,-1.0383,0.0,0.0,0.0,0.0,-0.9884,-0.9884,-0.9884,-0.9884,-0.9841,-0.9798,-0.9809,-0.9427,-0.9284,-0.9273,-0.8988,-0.8811,-0.8647,-0.7714,-0.7277,-0.7184,-0.685,-0.6662,-0.6603,-0.6766,-0.6861,-0.6898,-0.6963,-0.7025,-0.7013,-0.6836,-0.6526,-0.6069,-0.5208,0.0,0.0,0.0,0.0,-0.113,-0.0732,-0.0476,-0.027,-0.004,0.0,0.0,0.0,0.0,0.0,0.0,0.0,0.0,0.0,0.0,0.0,0.0,0.0,0.0,0.0,0.0,0.0,0.0,0.0,0.0,0.0,0.0,0.0,0.0,0.0,0.0,0.0,0.0,0.0,0.0,0.0,0.0,0.0,0.0,0.0,0.0,0.0,0.0,0.0,0.0,0.0,0.0,0.0,0.0,0.0,0.0,0.0,0.0,0.0,0.0,0.0,0.0,0.0,0.0,0.0,0.0045,0.018,0.0,0.0,0.0,0.0,0.0,0.0,0.0,0.0,0.0,-1.2378,0.0,0.0,0.0,0.0,-1.0991,-1.0773,-1.0591,-1.0299,-0.9911,-0.9884,-0.9884,-0.9884,-0.9884,-0.9884,-0.9884,-0.9884,-0.9884,-0.9884,-0.9617,-0.9511,-0.9505,-0.9202,-0.8989,-0.882,-0.8098,-0.7787,-0.779,-0.7398,-0.7194,-0.7103,-0.716,-0.7172,-0.7166,-0.7249,-0.7339,-0.7395,-0.7217,-0.7007,-0.6651,0.0,0.0,0.0,0.0,0.0,0.0,0.0,0.0,-0.033,-0.015,-0.0039,0.0,0.0,0.0,0.0,0.0,0.0,0.0,0.0,0.0,0.0,0.0,0.0,0.0,0.0,0.0,0.0,0.0,0.0,0.0,0.0,0.0,0.0,0.0,0.0,0.0,0.0,0.0,0.0,0.0,0.0,0.0,0.0,0.0,0.0,0.0,0.0,0.0,0.0,0.0,0.0,0.0,0.0,0.0,0.0,0.0,0.0,0.0,0.0,0.0,0.0,0.0,0.0,0.0,0.0,0.0,0.0045,0.0,0.0,0.0,0.0,0.0,0.0,0.0,0.0,-1.3455,-1.3455,0.0,0.0,0.0,0.0,0.0,-0.9992,-1.0475,-1.0556,-0.996,-0.9884,-0.9884,-0.9884,0.0,0.0,-0.9884,-0.9884,-0.9884,-0.9884,-0.9511,-0.9291,-0.9285,-0.8832,-0.8614,-0.8614,-0.8407,-0.8346,-0.8414,-0.8072,-0.7917,-0.7923,-0.784,-0.7727,-0.7563,-0.7748,-0.7808,-0.7784,-0.7608,-0.7532,0.0,-0.6698,0.0,0.0,0.0,0.0,0.0,0.0,0.0,0.0,0.0,0.0,0.0,0.0,0.0,0.0,0.0,0.0,0.0,0.0,0.0,0.0,0.0,0.0,0.0,0.0,0.0,0.0,0.0,0.0,0.0,0.0,0.0,0.0,0.0,0.0,0.0,0.0,0.0,0.0,0.0,0.0,0.0,0.0,0.0,0.0,0.0,0.0,0.0,0.0,0.0,0.0,0.0,0.0,0.0,0.0,0.0,0.0,0.0,0.0,0.0,0.0,0.0,0.0,0.0,0.0,0.0,0.0,0.0,0.0,0.0,0.0,0.0,-1.3492,-1.3492,-1.3119,-1.2863,0.0,0.0,0.0,-1.1966,-1.1632,-1.1223,-1.0594,-1.07,-1.0556,-0.996,-0.9884,-0.9884,-0.9884,-0.9884,-0.9884,-0.9884,-0.9884,-0.9884,-0.9884,-0.9653,-0.951,-0.9504,-0.9182,-0.9031,-0.9031,-0.896,-0.8962,-0.8948,-0.8432,-0.8215,-0.8303,-0.86,-0.8637,-0.8438,-0.8453,-0.844,-0.8408,-0.8164,-0.7931,-0.7688,0.0,-0.6563,-0.527,0.0,0.0,0.0,0.0,0.0,0.0,-0.0544,0.0,0.0,0.0,0.0,0.0,0.0,0.0,0.0,0.0,0.0,0.0,0.0,0.0,0.0,0.0,0.0,0.0,0.0,0.0,0.0,0.0,0.0,0.0,0.0,0.0,0.0,0.0,0.0,0.0,0.0,0.0,0.0,0.0,0.0,0.0,0.0,0.0,0.0,0.0,0.0,0.0,0.0,0.0,0.0,0.0,0.0,0.0,0.0,0.0,0.0,0.0,0.0,0.0,0.0,0.0,0.0,0.0,0.0,0.0,0.0,0.0,-1.3492,-1.3492,-1.3492,-1.32,-1.2973,0.0,0.0,0.0,-1.1372,-1.1558,-1.1372,-1.0513,-1.0663,-1.0556,-0.996,-0.9884,-0.9884,-0.9884,-0.9884,-0.9884,-0.9884,-0.9884,-0.9884,-0.9884,-0.969,-0.9614,-0.9608,-0.9324,-0.9206,-0.9206,-0.9206,-0.926,-0.9362,-0.901,-0.8799,-0.8808,-0.9154,-0.9223,-0.9043,-0.9105,-0.9008,-0.8813,-0.8628,0.0,-0.8155,-0.8131,-0.7126,0.0,0.0,0.0,0.0,0.0,0.0,0.0,0.0,0.0,0.0,0.0,0.0,0.0,-0.0243,-0.0174,-0.0092,0.0,0.0,0.0,0.0,0.0,0.0,0.0,0.0,0.0,0.0,0.0,0.0,0.0,0.0,0.0,0.0,0.0,0.0,0.0,0.0,0.0,0.0,0.0,0.0,0.0,0.0,0.0,0.0,0.0,0.0,0.0,0.0,0.0,0.0,0.0,0.0,0.0,0.0,0.0,0.0,0.0,0.0,0.0,0.0,0.0,0.0,0.0,0.0,0.0,0.0,0.0,-1.3492,-1.3492,-1.3492,-1.3492,-1.3492,-1.3492,-1.3492,0.0,-1.2973,-1.2194,-1.1111,-1.1409,-1.1223,-1.0105,-1.0475,-1.0556,-0.996,-0.9884,-0.9884,-0.9884,-0.9884,-0.9884,-0.9884,-0.9884,-0.9884,-0.9884,-0.9717,-0.9604,-0.9572,-0.9316,-0.9198,-0.9171,-0.9179,-0.9303,-0.954,-0.954,-0.9499,-0.9385,-0.9637,-0.9671,-0.9612,-0.9739,-0.955,-0.9159,-0.9121,-0.894,-0.8648,-0.8563,-0.7575,0.0,0.0,0.0,0.0,0.0,-0.2792,0.0,0.0,0.0,0.0,0.0,-0.1019,0.0,-0.06,-0.046,-0.0306,-0.0091,-0.0047,-0.0047,-0.0047,-0.0047,-0.0048,0.0,0.0,0.0,0.0,0.0,0.0,0.0,0.0,0.0,0.0,0.0,0.0,0.0,0.0,0.0,0.0,0.0,0.0,0.0,0.0,0.0,0.0,0.0,0.0,0.0,0.0,0.0,0.0,0.0,0.0,0.0,0.0,0.0,0.0,0.0,0.0,0.0,0.0,0.0,0.0,0.0,0.0,0.0,0.0,-1.3492,-1.3492,-1.3492,-1.3492,-1.3492,-1.3492,-1.3492,-1.3492,-1.3492,-1.2973,-1.2526,-1.2268,-1.1929,-1.1409,-1.07,-1.0738,-1.0556,-0.996,-0.9884,-0.9884,-0.9884,-0.9884,-0.9884,-0.9884,-0.9884,-0.9884,-0.9884,-0.9691,-0.95,-0.9364,-0.9316,-0.9149,-0.8955,-0.8943,-0.9095,-0.9276,-0.9276,-0.9466,-0.9825,-1.0224,-1.0515,-1.0668,-1.0474,-1.0355,-1.0269,-0.9933,-0.9527,-0.9039,-0.8345,-0.7826,-0.739,0.0,0.0,0.0,-0.4717,0.0,0.0,0.0,0.0,0.0,0.0,0.0,0.0,-0.0878,-0.0798,-0.0707,-0.0512,-0.0487,-0.0454,-0.0272,-0.0227,-0.0182,-0.0046,0.0,0.0,0.0,0.0,0.0,0.0,0.0,0.0,0.0,0.0,0.0,0.0,0.0,0.0,0.0,0.0,0.0,0.0,0.0,0.0,0.0,0.0,0.0,0.0,0.0,0.0,0.0,0.0,0.0,0.0,0.0,0.0,0.0,0.0,0.0,0.0,0.0,0.0,0.0,0.0,0.0,0.0,-1.3492,-1.3492,-1.3492,-1.3492,-1.3492,-1.3492,-1.3492,-1.3492,-1.3492,-1.3492,-1.2973,-1.2599,-1.2599,-1.2077,-1.1595,-1.1298,-1.0962,-1.0663,-1.0368,-1.0067,-0.9884,-0.9884,-0.9884,-0.9884,-0.9884,-0.9884,-0.9884,-0.9884,-0.9809,-0.9637,-0.9458,-0.9564,-0.9564,-0.9432,-0.9419,-0.9523,-0.9739,-0.9615,-0.9771,-1.0137,-1.0453,-1.0772,-1.1009,-1.0946,-1.0814,-1.0549,-1.0381,-0.9864,-0.9231,-0.8815,-0.8334,0.0,-0.7581,-0.7126,-0.6506,0.0,-0.5365,-0.493,0.0,0.0,0.0,-0.2432,0.0,0.0,0.0,-0.1247,-0.1131,-0.0795,-0.0764,-0.0684,-0.047,-0.0471,-0.043,-0.0304,-0.0226,-0.0141,-0.0146,-0.005,0.0,0.0,0.0,0.0,0.0,0.0,0.0,0.0,0.0,0.0,0.0,0.0,0.0,0.0,0.0,0.0,0.0,0.0,0.0,0.0,0.0,0.0,0.0,0.0,0.0,0.0,0.0,0.0,0.0,0.0,0.0,0.0,0.0,0.0,0.0,0.0,0.0,0.0,-1.3492,-1.3492,-1.3492,-1.3492,-1.3492,-1.3492,-1.3492,-1.3492,-1.3492,-1.3492,-1.3079,-1.275,-1.2695,-1.226,-1.1986,-1.1986,-1.1374,-1.0959,-1.1003,-1.0356,-0.9992,-0.9992,-0.9943,-0.9943,-0.9992,-0.9906,-0.9884,-0.9884,-0.9846,-0.9733,-0.9549,-0.9695,-0.9833,-0.9847,-0.9856,-0.9991,-1.0213,-1.0056,-1.0137,-1.0379,-1.0571,-1.0789,-1.0945,-1.1144,-1.1016,-1.0661,-1.0621,-1.0164,-0.951,-0.9387,-0.8845,-0.823,-0.816,-0.7857,0.0,0.0,0.0,0.0,0.0,0.0,0.0,0.0,0.0,-0.2252,0.0,0.0,0.0,-0.1146,-0.1058,-0.1005,-0.0767,-0.0725,-0.0688,-0.0621,-0.0473,-0.0358,-0.0371,-0.0193,-0.005,0.0,0.0,0.0,0.0,0.0,0.0,0.0,0.0,0.0,0.0,0.0,0.0,0.0,0.0,0.0,0.0,0.0,0.0,0.0,0.0,0.0,0.0,0.0,0.0,0.0,0.0,0.0,0.0,0.0,0.0,0.0,0.0,0.0,0.0,0.0,0.0,0.0,-1.3492,-1.3492,-1.3492,-1.3492,-1.3492,-1.3492,-1.3492,-1.3492,-1.3492,-1.3492,-1.3497,-1.3381,-1.3068,-1.3048,-1.3035,-1.3035,-1.2151,-1.1619,-1.1665,-1.0791,-1.025,-1.025,-1.004,-1.0024,-1.025,-1.0035,-0.9884,-0.9884,-0.9733,-0.9544,-0.9322,-0.9359,-0.9375,-0.9395,-0.9559,-0.9749,-0.9976,-1.0169,-1.0385,-1.0576,-1.0848,-1.0837,0.0,-1.0934,-1.0984,-1.0921,-1.0694,-1.0549,-1.0346,0.0,-0.9386,-0.9091,0.0,-0.8363,-0.8074,-0.7428,0.0,0.0,0.0,0.0,0.0,0.0,-0.3977,0.0,0.0,0.0,-0.1892,-0.1716,0.0,-0.1615,-0.1297,0.0,0.0,-0.067,-0.0567,-0.0582,-0.0554,-0.0399,-0.0187,0.0,0.0,0.0,0.0,0.0,0.0,0.0,0.0,0.0,0.0,0.0,0.0,0.0,0.0,0.0,0.0,0.0,0.0,0.0,0.0,0.0,0.0,0.0,0.0,0.0,0.0,0.0,0.0,0.0,0.0,0.0,0.0,0.0,0.0,0.0,0.0,0.0,-1.3492,-1.3492,-1.3492,-1.3492,-1.3492,-1.3492,-1.3492,-1.3492,-1.3565,-1.3755,-1.3349,-1.3041,-1.3089,-1.2883,-1.2932,-1.3373,-1.2438,-1.2015,-1.2457,-1.1124,-1.0293,-1.0293,-1.0056,-0.997,-1.0078,-0.9976,-0.9884,-0.9884,-0.9695,-0.9506,-0.9284,-0.9284,-0.9392,-0.9552,-0.9741,-1.0008,-1.0302,-1.0449,-1.0506,-1.0603,-1.0699,-1.0683,0.0,-1.101,-1.1155,-1.1166,-1.1047,-1.0814,-1.0577,0.0,-0.9962,0.0,0.0,0.0,0.0,-0.8147,0.0,0.0,0.0,0.0,0.0,0.0,0.0,0.0,-0.4011,0.0,-0.3334,0.0,0.0,0.0,0.0,0.0,0.0,0.0,-0.1072,-0.0944,-0.0798,-0.0599,-0.0444,-0.0429,-0.0283,-0.0188,-0.0192,-0.0049,0.0,0.0,0.0,0.0,0.0,0.0,0.0,0.0,0.0,0.0,0.0,0.0,0.0,0.0,0.0,0.0,0.0,0.0,0.0,0.0,0.0,0.0,0.0,0.0,0.0,0.0,0.0,0.0,0.0,0.0,0.0,0.0,-1.3616,0.0,0.0,-1.3273,-1.3236,-1.32,-1.3046,-1.301,-1.3168,-1.3545,-1.3264,-1.3099,-1.3435,-1.3507,-1.3749,-1.4328,-1.3438,-1.2976,-1.3272,-1.1776,-1.0785,-1.0584,-1.0223,-1.0083,-1.0207,-0.9981,-0.9884,-0.9884,-0.9695,-0.9506,-0.9284,-0.9251,-0.9331,-0.9525,-0.9776,-1.0092,-1.0466,-1.0635,-1.0689,-1.0694,-1.0764,-1.079,-1.0823,-1.1102,-1.1246,-1.1305,-1.1305,-1.1084,-1.0761,-1.0742,-1.0461,0.0,-0.9712,-0.9551,-0.9394,0.0,0.0,0.0,-0.799,0.0,0.0,0.0,0.0,0.0,0.0,0.0,0.0,0.0,0.0,0.0,0.0,0.0,0.0,0.0,0.0,-0.1369,-0.1112,-0.091,-0.0764,-0.0683,-0.0498,-0.0361,0.0,-0.0189,-0.0096,-0.0093,-0.0047,0.0,0.0,0.0,0.0,0.0,0.0,0.0,0.0,0.0,0.0,0.0,0.0,0.0,0.0,0.0,0.0,0.0,0.0,0.0,0.0,0.0,0.0,0.0,0.0,0.0,0.0,0.0,0.0,0.0,-1.3901,-1.3711,0.0,-1.2716,-1.2636,-1.2415,-1.1855,-1.1744,-1.1972,-1.2576,-1.3411,-1.4085,-1.4401,-1.5562,-1.6264,-1.6309,-1.5697,-1.4916,-1.4047,-1.2991,-1.2083,-1.1316,-1.0654,-1.0492,-1.0939,-1.0272,-0.9884,-0.9884,-0.9695,-0.9506,-0.9284,-0.9099,-0.9027,-0.9042,-0.952,-0.9812,-1.0079,-1.0696,-1.0972,-1.0993,-1.1187,-1.1284,-1.1262,0.0,-1.1144,-1.1305,-1.1305,0.0,0.0,-1.1032,-1.0804,0.0,0.0,0.0,0.0,0.0,0.0,0.0,0.0,0.0,0.0,-0.7784,0.0,0.0,0.0,0.0,-0.4825,0.0,0.0,0.0,0.0,0.0,0.0,0.0,0.0,0.0,0.0,-0.1418,-0.11,-0.0667,-0.0583,-0.0579,0.0,-0.0407,-0.0274,0.0,-0.0092,0.0,0.0,0.0,0.0,0.0,0.0,0.0,0.0,0.0,0.0,0.0,0.0,0.0,0.0,0.0,0.0,0.0,0.0,0.0,0.0,0.0,0.0,0.0,0.0,0.0,0.0,0.0,0.0,0.0,0.0,0.0,-1.278,-1.3395,-1.2699,-1.1929,-1.1744,-1.204,-1.2661,-1.3734,-1.3926,-1.4379,-1.5389,-1.561,-1.565,-1.5611,-1.4912,-1.4312,-1.394,-1.2687,-1.1844,-1.158,-1.1047,-1.0751,-1.0756,-1.024,-0.9886,-0.9695,-0.9359,-0.9175,-0.9099,-0.8903,-0.8865,-0.9032,-0.9476,-0.9889,-1.0215,-1.0765,-1.1079,0.0,0.0,-1.1209,-1.1117,0.0,-1.1236,-1.1305,-1.1305,-1.1305,0.0,-1.1214,-1.115,-1.0982,-1.0641,-1.0479,-1.0329,-0.9832,-0.9628,-0.9504,0.0,0.0,-0.8795,-0.8333,0.0,0.0,0.0,0.0,0.0,0.0,0.0,0.0,0.0,0.0,0.0,0.0,0.0,0.0,0.0,-0.1611,-0.1392,-0.1107,-0.093,-0.0853,-0.0793,0.0,0.0,-0.0305,-0.0135,0.0,0.0,0.0,0.0,0.0,0.0,0.0,0.0,0.0,0.0,0.0,0.0,0.0,0.0,0.0,0.0,0.0,0.0,0.0,0.0,0.0,0.0,0.0,0.0,0.0,0.0,0.0,0.0,0.0,-1.3028,-1.2218,-1.1898,-1.3006,-1.2067,-1.1187,-1.1187,-1.1998,-1.2962,-1.4003,-1.4465,-1.5101,-1.6211,-1.5967,-1.5732,-1.5698,-1.5063,-1.4449,-1.3913,-1.3024,-1.2312,-1.1957,-1.1494,-1.1209,0.0,0.0,-1.0089,-0.9831,-0.9362,-0.9057,-0.8984,-0.8784,-0.878,-0.8908,-0.928,-0.9622,-0.9953,-1.0336,-1.0621,0.0,0.0,-1.1075,0.0,0.0,-1.1257,-1.1187,0.0,-1.1305,-1.1305,-1.1305,-1.1305,-1.1262,-1.0949,-1.0845,-1.0768,-1.0344,-1.0206,-1.0096,-0.9675,-0.9428,0.0,-0.8819,-0.8429,0.0,-0.7847,0.0,-0.7382,0.0,0.0,0.0,0.0,0.0,0.0,0.0,0.0,0.0,0.0,-0.1767,-0.1533,-0.1415,-0.1211,-0.1066,-0.0896,-0.0669,-0.0469,-0.0301,-0.0176,-0.009,0.0,0.0,0.0,0.0,0.0,0.0,0.0,0.0,0.0,0.0,0.0,0.0,0.0,0.0,0.0,0.0,0.0,0.0,0.0,0.0,0.0,0.0,0.0,0.0,0.0,0.0,0.0,0.0,-1.2286,-1.1279,-1.0741,-1.149,-1.0885,-1.0326,-1.0326,-1.1657,-1.2875,-1.3517,-1.5082,-1.6335,-1.6989,-1.6818,-1.6633,-1.6584,-1.6076,-1.5233,-1.3978,-1.3883,-1.3431,-1.2441,-1.1984,-1.1833,-1.2043,0.0,0.0,0.0,-0.9612,-0.9199,-0.8984,-0.8784,-0.8703,-0.8703,-0.8903,-0.9101,-0.9322,-0.9521,-0.9773,-1.0038,-1.0419,-1.0852,-1.1246,-1.1305,-1.1198,-1.1015,-1.1219,-1.1305,-1.1305,-1.1305,-1.1305,-1.1305,-1.1305,-1.0992,-1.0636,-1.0636,-1.0381,-1.0038,-1.0038,-0.968,-0.9329,-0.9315,-0.8794,0.0,0.0,0.0,-0.7938,0.0,0.0,0.0,0.0,0.0,0.0,0.0,0.0,0.0,0.0,0.0,-0.1611,-0.1611,-0.1454,-0.1229,-0.0932,-0.0894,-0.0738,-0.0336,-0.03,-0.0221,0.0,0.0,0.0,0.0,0.0,0.0,0.0,0.0,0.0,0.0,0.0,0.0,0.0,0.0,0.0,0.0,0.0,0.0,0.0,0.0,0.0,0.0,0.0,0.0,0.0,0.0,0.0,0.0,-1.1579,-1.1138,-1.0643,-1.0404,-1.0476,-1.0589,-1.0517,-1.2121,-1.38,-1.5029,-1.6656,-1.8056,-1.8935,-1.821,-1.7389,-1.6724,-1.582,-1.4784,-1.3662,-1.3413,-1.3106,-1.2732,-1.2393,-1.1987,-1.1543,-1.089,-1.0234,-0.9486,-0.9149,-0.8939,-0.8784,-0.8742,-0.8703,-0.8703,-0.8903,-0.9101,-0.9322,-0.9521,-0.9773,-1.0038,-1.0419,-1.0583,-1.0588,0.0,-1.1198,-1.1015,-1.1219,-1.1305,-1.1305,-1.1305,-1.1305,-1.1305,-1.1305,-1.1219,-1.1127,-1.1127,-1.1041,-1.0868,-1.0554,-1.0125,-0.9751,-0.9394,-0.8805,-0.8312,0.0,0.0,0.0,0.0,0.0,0.0,0.0,0.0,0.0,0.0,0.0,0.0,0.0,0.0,0.0,-0.1847,-0.165,-0.1418,-0.1228,-0.0872,-0.064,-0.0533,-0.0372,-0.0214,0.0,-0.0139,-0.0143,0.0,0.0,0.0,0.0,0.0,0.0,0.0,0.0,0.0,0.0,0.0,0.0,0.0,0.0,0.0,0.0,0.0,0.0,0.0,0.0,0.0,0.0,0.0,0.0,0.0,-1.0784,-1.0571,-1.029,-0.9841,-1.0669,-1.1449,-1.1641,-1.2709,-1.4076,-1.5688,-1.7157,-1.8209,-1.8795,-1.8016,-1.7252,-1.673,-1.5488,-1.4406,-1.3694,-1.3405,0.0,-1.2576,-1.2351,-1.1929,-1.127,-1.0785,0.0,-0.9691,0.0,-0.9009,-0.8841,-0.8746,-0.8703,-0.8703,-0.8822,-0.8979,-0.9173,-0.9271,-0.9533,-0.996,-1.0078,-1.0372,0.0,-1.1051,-1.1196,-1.13,-1.1295,-1.1305,-1.1305,-1.1305,-1.1305,-1.1305,-1.1305,-1.1305,-1.1305,-1.1305,-1.1305,-1.1219,-1.0992,-1.0472,-0.9923,-0.968,-0.9013,-0.8429,-0.8411,-0.8344,-0.8312,0.0,-0.8255,-0.8002,0.0,0.0,0.0,0.0,0.0,0.0,0.0,0.0,0.0,0.0,-0.2297,-0.2024,-0.1494,-0.1021,-0.0714,-0.0609,-0.0534,-0.042,-0.0262,-0.032,-0.0285,-0.0146,-0.0048,0.0,0.0,0.0,0.0,0.0,0.0,0.0,0.0,0.0,0.0,0.0,0.0,0.0,0.0,0.0,0.0,0.0,0.0,0.0,0.0,0.0,0.0,0.0,-1.0029,-0.9873,-0.9851,-0.9686,-1.109,-1.2491,-1.3234,-1.3626,-1.4443,-1.617,-1.725,-1.7826,-1.7877,-1.7259,-1.6783,-1.673,-1.525,-1.419,-1.373,-1.3501,-1.3062,-1.2214,-1.1993,-1.1634,-1.1096,-1.0686,-1.0388,0.0,-0.9582,-0.9183,-0.9018,-0.8817,-0.8732,-0.8779,-0.8755,-0.882,0.0,-0.8957,-0.9265,-0.9732,-0.961,-1.0177,-1.1099,-1.0885,-1.1114,-1.1488,-1.1217,-1.1219,-1.1305,-1.1305,-1.1305,-1.1305,-1.1305,-1.1305,-1.1305,-1.1305,-1.1305,-1.1305,-1.1305,-1.0694,-1.0081,-0.9994,-0.9349,-0.8656,-0.8612,-0.8612,-0.8612,-0.8612,-0.8438,-0.8321,0.0,0.0,0.0,0.0,0.0,0.0,0.0,0.0,0.0,0.0,0.0,0.0,-0.1923,-0.1305,-0.0874,-0.0612,-0.0666,-0.0629,0.0,0.0,-0.0332,-0.028,-0.0095,0.0,0.0,0.0,0.0,0.0,0.0,0.0,0.0,0.0,0.0,0.0,0.0,0.0,0.0,0.0,0.0,0.0,0.0,0.0,0.0,0.0,0.0,0.0,-0.9685,-0.9843,-0.9986,-0.9942,-1.1243,-1.2853,-1.4511,-1.5839,-1.6984,-1.7742,-1.8578,-1.917,-1.9394,-1.8223,-1.7265,-1.673,-1.5826,-1.4655,-1.3251,0.0,0.0,-1.1676,-1.1455,-1.1096,-1.0556,-1.0476,-1.0144,0.0,0.0,-0.9215,-0.9225,-0.8878,-0.8888,-0.9204,-0.9004,-0.8953,-0.8932,-0.9063,0.0,-0.9018,-0.9535,-0.9895,-1.0089,-1.0253,-1.0402,-1.0418,-1.0289,-1.0694,-1.1305,-1.1305,-1.1305,-1.1305,-1.1305,-1.1305,-1.1305,-1.1305,-1.1305,-1.1305,-1.1305,-1.0911,-1.0419,-1.0081,-0.9607,-0.9087,-0.8696,-0.8612,-0.8612,-0.8612,-0.8588,-0.8514,-0.8316,0.0,0.0,0.0,0.0,0.0,0.0,0.0,0.0,0.0,0.0,-0.3062,0.0,-0.197,-0.104,-0.0626,-0.063,-0.0473,0.0,0.0,-0.024,0.0,0.0,0.0,0.0,0.0,0.0,0.0,0.0,0.0,0.0,0.0,0.0,0.0,0.0,0.0,0.0,0.0,0.0,0.0,0.0,0.0,0.0,0.0,0.0,0.0,-0.9804,-0.9928,-1.0055,-1.0199,-1.1517,-1.2928,-1.3942,-1.5472,-1.6852,-1.8046,-1.8378,-1.8339,-1.7786,-1.7105,-1.6348,-1.5364,-1.444,-1.3578,-1.2724,-1.2514,-1.2039,-1.1276,-1.107,-1.0618,-1.0023,-0.9969,-0.9891,-0.9651,0.0,-0.9329,-0.9277,-0.9011,-0.8899,-0.8975,-0.8964,-0.897,0.0,0.0,0.0,-0.9287,-0.9519,-0.9806,-1.0114,-1.0155,-1.0251,-1.04,-1.0187,-1.0309,-1.0608,-1.0608,-1.0608,-1.0608,-1.0608,-1.0608,-1.0651,-1.0862,-1.0949,-1.0992,-1.1219,-1.0949,-1.0506,-1.0081,-0.965,-0.9174,-0.8696,-0.8612,-0.8612,-0.8612,-0.8612,-0.8584,-0.8494,-0.8118,0.0,0.0,0.0,0.0,0.0,0.0,-0.5794,0.0,0.0,0.0,0.0,0.0,-0.1761,-0.1007,0.0,0.0,0.0,0.0,-0.0282,0.0,0.0,0.0,0.0,0.0,0.0,0.0,0.0,0.0,0.0,0.0,0.0,0.0,0.0,0.0,0.0,0.0,0.0,0.0,0.0,0.0,0.0,0.0,0.0,0.0,-1.0063,-1.0081,-1.0172,-1.0456,-1.1849,-1.2969,-1.3166,-1.4541,-1.6079,-1.7453,-1.7382,-1.6796,-1.58,-1.5693,-1.5196,-1.4038,-1.3173,-1.2521,-1.2212,-1.1959,-1.1545,-1.0781,-1.0548,-1.0175,-0.9632,-0.9579,-0.9643,0.0,0.0,0.0,-0.9285,-0.9083,-0.8915,-0.8734,0.0,0.0,0.0,0.0,-0.9418,-0.964,-0.9493,-0.9742,-1.0194,-1.0009,-1.0099,-1.0269,-0.9981,-0.982,-0.9694,-0.9694,-0.9825,-0.9994,-0.9994,-0.9994,-1.0081,-1.0376,-1.0463,-1.0554,-1.0911,-1.0733,-1.0376,-0.9951,-0.9563,-0.9174,-0.8696,-0.8612,-0.8612,-0.8612,-0.8612,-0.8612,-0.8612,-0.832,0.0,0.0,0.0,0.0,0.0,0.0,0.0,0.0,0.0,0.0,-0.468,-0.3531,-0.2462,0.0,0.0,0.0,-0.0851,0.0,0.0,0.0,0.0,-0.0097,-0.0293,0.0,-0.0093,-0.0276,-0.0091,0.0,0.0,0.0,0.0,0.0,0.0,0.0,0.0,0.0,0.0,0.0,0.0,0.0,0.0,0.0,0.0,0.0,-1.0228,-1.025,-1.0377,-1.0783,-1.2131,-1.3176,-1.3179,-1.4541,-1.5677,-1.5805,-1.5527,-1.5344,-1.5333,-1.5055,-1.4614,-1.3802,-1.3663,-1.2974,-1.1518,-1.1225,-1.0772,-1.0018,-0.9796,-0.9694,-0.9579,-0.9579,-0.9546,0.0,0.0,-0.9437,0.0,-0.9114,-0.8945,0.0,0.0,0.0,0.0,-0.9528,-0.9558,-0.9416,-0.9535,-0.9612,-0.9657,-0.9522,-0.9389,-0.9211,-0.9022,-0.8844,-0.874,-0.874,-0.9305,-0.9994,-0.9994,-0.9994,-0.9994,-1.0038,-1.0081,-1.0081,-1.0125,-1.0081,-0.9951,-0.9476,-0.9345,-0.9174,-0.8696,-0.8612,-0.8612,-0.8612,-0.8612,-0.8612,-0.8612,-0.8552,-0.8452,0.0,0.0,0.0,0.0,0.0,-0.7122,-0.7247,0.0,0.0,-0.5655,-0.3963,-0.2763,0.0,-0.1472,0.0,0.0,0.0,0.0,-0.0323,-0.0098,-0.0395,-0.1241,-0.0428,-0.042,-0.1259,-0.0405,0.0,0.0,0.0,0.0,0.0,0.0,0.0,0.0,0.0,0.0,0.0,0.0,0.0,0.0,0.0,0.0,0.0,-1.0623,-1.0654,-1.0759,-1.1099,-1.1645,-1.2142,-1.2328,-1.2931,-1.332,-1.332,-1.4543,-1.5104,-1.4232,-1.3947,-1.3333,-1.2187,-1.1946,-1.1629,-1.0962,-1.0741,-1.0451,-1.011,-0.988,-0.9734,-0.9579,-0.9579,-0.96,0.0,0.0,0.0,0.0,0.0,0.0,0.0,0.0,-0.9279,-0.9337,-0.9482,-0.9514,-0.9527,-0.96,-0.9579,-0.9571,-0.9547,-0.9344,-0.91,-0.9129,-0.8958,-0.8718,-0.8718,-0.8916,-0.9174,-0.9174,-0.9174,-0.9218,-0.9476,-0.9563,-0.965,-0.9907,-1.0045,-0.9979,-0.942,-0.9341,-0.9265,-0.8721,-0.8612,-0.8612,-0.8612,-0.8612,-0.8612,-0.8612,-0.8612,-0.852,-0.8245,0.0,0.0,0.0,0.0,0.0,-0.7224,0.0,-0.6408,0.0,-0.529,-0.4266,0.0,0.0,0.0,0.0,0.0,0.0,-0.0377,0.0,-0.1633,-0.1404,-0.1041,-0.102,-0.1369,-0.0452,0.0,0.0,0.0,0.0,0.0,0.0,0.0,0.0,0.0,0.0,0.0,0.0,0.0,0.0,0.0,0.0,0.0,-1.098,-1.1005,-1.1113,-1.1404,-1.1434,-1.1508,-1.178,-1.1776,-1.1756,-1.1703,-1.3287,-1.3971,-1.2889,-1.2622,-1.2095,-1.1019,-1.0769,-1.0647,-1.0542,-1.042,-1.0249,-1.0014,-0.988,0.0,-0.9579,-0.9579,-0.9584,-0.9588,-0.951,0.0,0.0,0.0,0.0,0.0,-0.9185,-0.929,-0.9408,-0.9461,-0.951,-0.9579,-0.9579,-0.9579,-0.9571,-0.9567,-0.9393,-0.9173,-0.9194,-0.9035,-0.882,-0.882,-0.871,-0.8612,-0.8612,-0.8612,-0.8656,-0.9003,-0.9125,-0.9208,-0.9561,-0.9705,-0.9692,-0.9243,-0.9219,-0.9189,-0.8759,-0.8682,-0.8767,-0.8767,-0.8686,-0.8624,-0.8633,-0.8645,-0.852,-0.8336,0.0,0.0,0.0,-0.7323,0.0,0.0,-0.7007,-0.6889,-0.678,-0.6119,0.0,0.0,0.0,0.0,0.0,0.0,0.0,0.0,0.0,0.0,-0.2261,-0.1685,-0.1565,-0.183,-0.0587,0.0,0.0,0.0,0.0,0.0,0.0,0.0,0.0,0.0,0.0,0.0,0.0,0.0,0.0,0.0,0.0,0.0,-1.1139,-1.1212,-1.1325,-1.1703,-1.1764,-1.1828,-1.1776,-1.1776,-1.1711,-1.1529,-1.1504,-1.149,-1.1244,-1.1224,-1.1078,-1.0724,-1.0692,-1.0542,-1.0245,-1.0216,-1.0006,0.0,0.0,-0.9579,-0.9579,-0.9579,-0.9539,-0.9404,0.0,0.0,-0.9092,0.0,-0.9092,-0.91,-0.9322,-0.94,-0.9416,-0.9547,-0.9575,-0.9579,-0.9579,-0.9579,-0.9608,-0.9473,-0.9404,-0.9355,-0.8954,-0.8824,-0.882,-0.882,-0.871,-0.8612,-0.8612,-0.8612,-0.8612,-0.8612,-0.8686,-0.8816,-0.8816,-0.882,-0.882,-0.882,-0.882,-0.882,-0.882,-0.8958,-0.9092,-0.9092,-0.8812,-0.8617,-0.8787,-0.8682,-0.8612,-0.8612,0.0,0.0,0.0,-0.7452,0.0,-0.7095,-0.7095,-0.7038,-0.6896,-0.6251,0.0,0.0,0.0,0.0,0.0,0.0,0.0,-0.3446,-0.3118,0.0,-0.4244,-0.2352,-0.192,-0.2868,-0.0943,0.0,0.0,0.0,0.0,0.0,0.0,0.0,0.0,0.0,0.0,0.0,0.0,0.0,0.0,0.0,0.0,0.0,-1.1577,-1.1602,-1.1638,-1.1756,-1.1776,-1.1776,-1.1776,-1.1776,-1.1711,-1.1524,-1.15,-1.1386,-1.1082,-1.1049,-1.0952,0.0,-1.0692,-1.0643,0.0,-1.0347,-1.0163,-0.9998,-0.9758,-0.9579,-0.9579,-0.9579,-0.96,-0.9543,0.0,0.0,0.0,-0.9322,-0.934,-0.9462,-0.9514,-0.9543,-0.9543,-0.9604,-0.9579,-0.9579,-0.9579,-0.9579,-0.9571,-0.9563,-0.9393,-0.9198,-0.9324,-0.9214,-0.9027,-0.9145,-0.9196,-0.9131,-0.8966,-0.8844,-0.8739,-0.8739,-0.8869,-0.9011,-0.9011,-0.9096,-0.9157,-0.9039,-0.9096,-0.9153,-0.9035,-0.9056,-0.9096,-0.9096,-0.9007,-0.8946,-0.8999,-0.8966,-0.8889,-0.8759,-0.8339,0.0,-0.7915,0.0,-0.7095,-0.7095,-0.7095,-0.7041,-0.69,-0.6882,0.0,0.0,0.0,0.0,0.0,0.0,0.0,0.0,-0.2787,0.0,-0.2305,-0.173,-0.1579,-0.1883,-0.0592,0.0,0.0,0.0,0.0,0.0,0.0,0.0,0.0,0.0,0.0,0.0,0.0,0.0,0.0,0.0,0.0,0.0,-1.1776,-1.1776,-1.1776,-1.1776,-1.1776,-1.1776,-1.1776,-1.1776,-1.1711,-1.1524,-1.1439,-1.1285,-1.1057,-1.0907,0.0,-1.0704,-1.0692,-1.0664,-1.0599,-1.0387,-1.0205,-1.0114,-0.9843,-0.9693,-0.9579,-0.9579,0.0,-0.9579,-0.951,-0.9458,-0.9458,-0.9458,-0.9518,-0.9579,-0.9579,-0.9579,-0.9579,-0.9579,-0.9579,-0.9579,-0.9579,-0.9579,-0.962,-0.9551,-0.9429,-0.9307,-0.9397,-0.9328,-0.921,-0.9367,-0.9359,-0.9298,-0.9206,-0.9116,-0.9007,-0.8946,-0.9051,-0.9194,-0.9194,-0.9322,-0.9375,-0.9222,-0.9322,-0.9392,-0.9307,-0.9242,-0.9214,-0.9283,-0.919,-0.9116,-0.9181,-0.9141,-0.9035,-0.8848,-0.8416,-0.8046,-0.7923,0.0,-0.7095,0.0,0.0,0.0,0.0,-0.7177,-0.7011,0.0,0.0,0.0,0.0,0.0,-0.3328,-0.319,-0.3087,-0.2688,-0.1984,-0.1596,-0.1411,-0.1376,-0.0465,0.0,0.0,0.0,0.0,0.0,0.0,0.0,0.0,0.0,0.0,0.0,0.0,0.0,0.0,0.0,0.0,0.0,-1.1776,-1.1776,-1.1776,-1.1776,-1.1776,-1.1776,-1.1776,-1.1776,-1.1711,-1.1524,-1.135,-1.1171,-1.1045,-1.0814,-1.0708,-1.0692,0.0,0.0,-1.0411,-1.0387,-1.0278,-0.992,-0.9892,-0.9803,-0.9583,-0.9579,-0.9579,-0.9579,-0.9579,-0.9579,-0.9579,-0.9579,-0.9579,-0.9579,-0.9579,-0.9579,-0.9579,-0.9579,-0.9579,-0.9579,-0.9579,-0.9579,-0.9608,-0.9437,-0.9474,-0.9567,-0.9246,-0.9222,-0.9388,-0.9412,-0.9259,-0.9145,-0.9367,-0.942,-0.934,-0.9165,-0.9238,-0.942,-0.942,-0.942,-0.942,-0.942,-0.942,-0.9465,-0.9592,-0.9494,-0.9469,-0.9592,-0.9364,-0.9181,-0.9392,-0.9242,-0.9068,-0.8823,-0.8435,-0.8061,-0.7882,-0.7408,-0.7095,0.0,0.0,0.0,-0.7095,-0.7095,-0.7105,0.0,0.0,0.0,0.0,0.0,-0.3995,-0.4884,-0.3749,-0.2958,-0.268,-0.1757,-0.1309,-0.1287,-0.0429,0.0,0.0,0.0,0.0,0.0,0.0,0.0,0.0,0.0,0.0,0.0,0.0,0.0,0.0,0.0,0.0,0.0,-1.1776,-1.1776,-1.1776,-1.1776,-1.1776,-1.1776,-1.1776,-1.1776,-1.1711,-1.1524,-1.1459,-1.1313,-1.1005,-1.0988,-1.0846,-1.0704,-1.0692,-1.0676,-1.0635,-1.0509,-1.0335,-1.0159,-0.9961,-0.9803,-0.9583,-0.9579,-0.9579,-0.9579,-0.9579,-0.9579,-0.9579,-0.9579,-0.9579,-0.9579,-0.9579,-0.9579,-0.9579,-0.9579,-0.9579,-0.9579,-0.9579,-0.9579,-0.9575,-0.9579,-0.9502,-0.9425,-0.9482,-0.9356,-0.9202,-0.947,-0.93,-0.9088,-0.9457,-0.9416,-0.9237,-0.93,-0.9421,-0.9563,-0.9563,-0.9563,-0.9563,-0.9563,-0.9563,-0.9575,-0.9616,-0.9596,-0.9575,-0.9571,-0.9559,-0.9514,-0.9555,-0.9531,-0.93,-0.8792,-0.8513,-0.8142,-0.7675,-0.7323,-0.7095,0.0,-0.7095,-0.7095,-0.7095,-0.7095,-0.7193,0.0,0.0,-0.7383,-0.7692,-0.6241,-0.5006,-0.4116,-0.2119,-0.0946,-0.0709,-0.0473,-0.0335,-0.0341,-0.0096,0.0,0.0,0.0,0.0,0.0,0.0,0.0,0.0,0.0,0.0,0.0,0.0,0.0,0.0,0.0,0.0,0.0,-1.1776,-1.1651,-1.1587,-1.1587,-1.1587,-1.1587,-1.1587,-1.1712,-1.1711,-1.1524,-1.15,-1.1395,-1.1114,-1.1017,-1.0984,-1.083,-1.0741,-1.0692,-1.0692,-1.0603,-1.0436,-1.0224,-1.0118,-0.9892,-0.9583,-0.9579,-0.9579,-0.9579,-0.9579,-0.9579,-0.9579,-0.9579,-0.9579,-0.9579,-0.9579,-0.9579,-0.9579,-0.9579,-0.9579,-0.9579,-0.9579,-0.9579,-0.9579,-0.9579,-0.9567,-0.9494,-0.9444,-0.9311,-0.918,-0.9215,-0.9068,-0.8957,-0.9148,-0.913,-0.9061,-0.9266,-0.9453,-0.9579,-0.9579,-0.9579,-0.9579,-0.9579,-0.9579,-0.9579,-0.9579,-0.9579,-0.9579,-0.9579,-0.948,-0.943,-0.943,-0.9327,-0.9063,-0.8577,-0.834,-0.8044,-0.7549,-0.7279,-0.7122,-0.7238,-0.7244,-0.7272,-0.7343,-0.735,-0.7421,-0.7587,-0.7506,0.0,-0.7797,-0.6289,-0.517,-0.4559,-0.2446,-0.111,-0.0724,-0.0244,0.0,0.0,0.0,0.0,0.0,0.0,0.0,0.0,0.0,0.0,0.0,0.0,0.0,0.0,0.0,0.0,0.0,0.0,0.0,0.0,-1.1651,-1.1402,-1.1212,-1.1212,-1.1212,-1.1212,-1.1273,-1.1522,-1.1655,-1.1561,-1.1457,-1.1368,-1.1187,-1.0956,-1.0843,-1.0815,-1.073,-1.0637,-1.0692,-1.0668,-1.0517,-1.0217,-1.02,-0.9977,-0.9673,-0.964,-0.9579,-0.9579,-0.9579,-0.9579,-0.9579,-0.9579,-0.9529,-0.9529,-0.948,-0.948,-0.948,-0.9529,-0.9529,-0.9529,-0.9579,-0.9579,-0.9579,-0.9579,-0.9529,-0.9529,-0.9232,-0.9118,-0.9099,-0.8867,-0.8761,-0.8742,-0.8768,-0.8775,-0.8775,-0.908,-0.9282,-0.948,-0.9529,-0.9529,-0.948,-0.948,-0.948,-0.948,-0.948,-0.948,-0.948,-0.948,-0.9282,-0.9133,-0.9133,-0.8977,-0.8679,-0.8332,-0.8146,-0.7898,-0.754,0.0,-0.7251,-0.7405,-0.7439,-0.7458,-0.7587,-0.76,-0.7607,-0.7631,-0.7743,-0.7821,-0.7845,-0.6223,-0.5398,-0.5706,-0.3409,-0.1918,-0.1378,-0.0451,0.0,0.0,0.0,0.0,0.0,0.0,0.0,0.0,0.0,0.0,0.0,0.0,0.0,0.0,0.0,0.0,0.0,0.0,0.0,0.0,-1.1031,-1.091,-1.091,-1.091,-1.091,-1.097,-1.1273,-1.1333,-1.145,-1.1736,-1.1419,-1.1079,-1.0898,-1.0497,-1.0167,-0.9975,-1.0217,-1.0472,-1.0692,-1.0554,-1.0395,-1.0396,-1.0095,-0.99,-0.9847,-0.9701,-0.9579,-0.9579,-0.9579,-0.9579,-0.9579,-0.9381,-0.9282,-0.9232,-0.9027,-0.8924,-0.8924,-0.9179,-0.9282,-0.9286,-0.9529,-0.9579,-0.9579,-0.9331,-0.9282,-0.9232,-0.8977,-0.8792,-0.8698,-0.878,-0.8592,-0.8362,-0.8685,-0.8627,-0.8531,-0.8779,-0.8874,-0.8973,-0.9183,-0.908,-0.8924,-0.8924,-0.8924,-0.8924,-0.8924,-0.8924,-0.8924,-0.8924,-0.8874,-0.8874,-0.8874,-0.8825,-0.8667,-0.8297,-0.8172,-0.8014,-0.7471,0.0,-0.7489,-0.7429,-0.7485,-0.7573,-0.7597,-0.76,-0.7648,-0.777,-0.7797,-0.7868,-0.7948,-0.7677,-0.7419,-0.7282,-0.3203,-0.0804,-0.0251,-0.0101,0.0,0.0,0.0,0.0,0.0,0.0,0.0,0.0,0.0,0.0,0.0,0.0,0.0,0.0,0.0,0.0,0.0,0.0,0.0,0.0,-1.0849,-1.0668,-1.0547,-1.0547,-1.0547,-1.0607,-1.0728,-1.091,-1.1061,-1.11,-1.1036,-1.0821,-1.0562,-1.0348,-1.0122,-0.9958,-0.9975,-1.0091,-1.0198,-1.0292,-1.0205,-0.9946,-0.9706,-0.9481,-0.9291,-0.9214,-0.9175,-0.9175,-0.9175,-0.9175,-0.9175,-0.9031,-0.8981,-0.8981,-0.8874,-0.8825,-0.8825,-0.8928,-0.8981,-0.8981,-0.9126,-0.9175,-0.9175,-0.9031,-0.8981,-0.8928,-0.868,-0.8534,-0.8487,-0.8407,-0.8238,-0.8146,-0.8312,-0.8283,-0.8233,-0.8528,-0.8676,-0.8825,-0.8928,-0.8878,-0.8825,-0.8825,-0.8825,-0.8825,-0.8825,-0.8825,-0.8825,-0.8825,-0.8676,-0.8577,-0.8577,-0.8482,-0.8283,-0.8035,-0.7963,0.0,-0.7572,-0.7556,-0.76,-0.7607,-0.7672,-0.7746,-0.7828,-0.7838,-0.7865,-0.788,-0.7884,-0.7917,-0.7985,-0.7437,-0.7089,-0.6939,-0.4477,-0.2418,-0.0858,-0.0858,-0.0555,0.0,0.0,0.0,0.0,0.0,0.0,0.0,0.0,0.0,0.0,0.0,0.0,0.0,0.0,0.0,0.0,0.0,0.0,0.0,-1.0607,-1.0365,-1.0183,-1.0183,-1.0183,-1.0183,-1.0304,-1.0547,-1.0673,-1.0517,-1.0565,-1.0447,-1.0159,-1.0039,-0.9913,-0.9841,-0.9776,-0.9651,-0.9596,-0.9926,-0.9902,-0.9517,-0.9376,-0.913,-0.8829,-0.8825,-0.8825,-0.8825,-0.8825,-0.8825,-0.8775,-0.8726,-0.8726,-0.8726,-0.8627,-0.8627,-0.863,-0.8676,-0.8726,-0.8726,-0.8775,-0.8825,-0.8775,-0.8726,-0.8726,-0.8676,-0.8382,-0.8283,-0.8283,-0.8088,-0.7988,-0.7988,-0.7988,-0.7988,-0.8038,-0.8237,-0.8432,-0.8627,-0.8627,-0.8627,-0.8627,-0.8627,-0.8627,-0.8627,-0.8627,-0.8627,-0.8627,-0.8627,-0.8432,-0.8283,-0.8283,-0.8137,-0.7951,-0.7882,0.0,-0.7814,-0.7668,-0.7678,-0.7729,-0.7801,-0.7841,-0.7913,-0.7978,-0.7988,-0.7988,-0.7988,-0.7988,-0.7988,-0.7988,-0.7238,-0.6736,-0.6689,-0.5279,-0.3623,-0.1613,-0.1361,-0.0807,0.0,0.0,0.0,0.0,0.0,0.0,0.0,0.0,0.0,0.0,0.0,0.0,0.0,0.0,0.0,0.0,0.0,0.0,0.0,-0.994,-0.9883,-0.9819,-0.9819,-0.9819,-0.994,-1.0243,-1.0304,-1.0371,-1.0576,-1.0255,-0.9867,-0.9695,-0.9273,-0.9019,-0.9009,-0.9275,-0.9323,-0.8992,-0.9268,-0.9523,-0.957,-0.9265,-0.9011,-0.8829,-0.8825,-0.8825,-0.8825,-0.8825,-0.8825,-0.8775,-0.8528,-0.8432,-0.8432,-0.8187,-0.8038,-0.8088,-0.8333,-0.8432,-0.8432,-0.8676,-0.8825,-0.8775,-0.8531,-0.8432,-0.8382,-0.8137,-0.8038,-0.8038,-0.7988,-0.7988,-0.7988,-0.7988,-0.7988,-0.7988,-0.8038,-0.8038,-0.8038,-0.8038,-0.8038,-0.8038,-0.8038,-0.8038,-0.8038,-0.8038,-0.8038,-0.8038,-0.8038,-0.8038,-0.8038,-0.8038,-0.7988,-0.7985,-0.7975,0.0,0.0,-0.7818,-0.787,-0.7911,-0.7828,-0.7887,-0.7978,-0.7988,-0.7988,-0.7988,-0.7988,-0.7988,-0.7988,-0.7988,-0.7939,-0.7789,-0.7497,-0.4323,-0.2266,-0.1613,-0.0606,-0.0101,0.0,0.0,0.0,0.0,0.0,0.0,0.0,0.0,0.0,0.0,0.0,0.0,0.0,0.0,0.0,0.0,0.0,0.0,0.0,-0.9819,-0.9822,-0.9822,-0.9822,-0.9822,-0.9822,-0.9943,-0.9928,-0.9909,-0.9972,-0.9769,-0.9554,-0.9394,-0.9216,-0.9035,-0.8892,-0.8995,-0.9047,-0.8885,-0.8995,-0.9043,-0.8948,-0.8772,-0.8593,-0.829,-0.8283,-0.8283,-0.8283,-0.8283,-0.8283,-0.8283,-0.8187,-0.8137,-0.8137,-0.8038,-0.7988,-0.7988,-0.8088,-0.8137,-0.8137,-0.8283,-0.8283,-0.8283,-0.8187,-0.8137,-0.8137,-0.8038,-0.7988,-0.7988,-0.7988,-0.7988,-0.7988,-0.7988,-0.7988,-0.7988,-0.7988,-0.7988,-0.7988,-0.7988,-0.7988,-0.7988,-0.7988,-0.7988,-0.7988,-0.7988,-0.7988,-0.7988,-0.7988,-0.7988,-0.7988,-0.7988,-0.7988,-0.7988,-0.7988,0.0,-0.7968,-0.7911,-0.7955,-0.7968,-0.7911,-0.7955,-0.7988,-0.7988,-0.7988,-0.7988,-0.7988,-0.7988,-0.7988,-0.7988,-0.7988,-0.7892,-0.7596,-0.5527,-0.4221,-0.3823,-0.2619,-0.1664,-0.1009,-0.0303,0.0,0.0,0.0,0.0,0.0,0.0,0.0,0.0,0.0,0.0,0.0,0.0,0.0,0.0,0.0,0.0,0.0,-0.9822,-0.9822,-0.9822,-0.9822,-0.9822,-0.9822,-0.9822,-0.97,-0.9591,-0.9544,-0.9405,-0.9252,-0.9103,-0.9086,-0.9045,-0.8892,-0.8885,-0.8885,-0.8885,-0.8885,-0.8821,-0.8564,-0.8465,-0.8319,-0.8116,-0.8015,-0.7988,-0.7988,-0.7988,-0.7988,-0.7988,-0.7988,-0.7988,-0.7988,-0.7988,-0.7988,-0.7988,-0.7988,-0.7988,-0.7988,-0.7988,-0.7988,-0.7988,-0.7988,-0.7988,-0.7988,-0.7988,-0.7988,-0.7988,-0.7988,-0.7988,-0.7988,-0.7988,-0.7988,-0.7988,-0.7988,-0.7988,-0.7988,-0.7988,-0.7988,-0.7988,-0.7988,-0.7988,-0.7988,-0.7988,-0.7988,-0.7988,-0.7988,-0.7988,-0.7988,-0.7988,-0.7988,-0.7988,-0.7988,-0.7988,-0.7988,-0.7988,-0.7988,-0.7988,-0.7988,-0.7988,-0.7988,-0.7988,-0.7988,-0.7988,-0.7988,-0.7988,-0.7988,-0.7988,-0.7988,-0.7942,-0.7746,-0.6734,-0.6079,-0.5832,-0.4076,-0.2821,-0.2066,-0.1009,-0.0505,-0.0505,-0.0151,0.0,0.0,0.0,0.0,0.0,0.0,0.0,0.0,0.0,0.0,0.0,0.0,0.0,0.0,-0.9822,-0.9822,-0.9822,-0.9822,-0.9822,-0.9822,-0.9819,-0.97,-0.9554,-0.9398,-0.9303,-0.9096,-0.8898,-0.8885,-0.8885,-0.8885,-0.8885,-0.8885,-0.8885,-0.8885,-0.8814,-0.872,-0.8428,-0.8323,-0.832,-0.8116,-0.7988,-0.7988,-0.7988,-0.7988,-0.7988,-0.7988,-0.7988,-0.7988,-0.7988,-0.7988,-0.7988,-0.7988,-0.7988,-0.7988,-0.7988,-0.7988,-0.7988,-0.7988,-0.7988,-0.7988,-0.7988,-0.7988,-0.7988,-0.7988,-0.7988,-0.7988,-0.7988,-0.7988,-0.7988,-0.7988,-0.7988,-0.7988,-0.7988,-0.7988,-0.7988,-0.7988,-0.7988,-0.7988,-0.7988,-0.7988,-0.7988,-0.7988,-0.7988,-0.7988,-0.7988,-0.7988,-0.7988,-0.7988,-0.7988,-0.7988,-0.7988,-0.7988,-0.7988,-0.7988,-0.7988,-0.7988,-0.7988,-0.7988,-0.7988,-0.7988,-0.7988,-0.7988,-0.7988,-0.7988,-0.7988,-0.7988,-0.7746,-0.7494,-0.7188,-0.4578,-0.3224,-0.3224,-0.2116,-0.1613,-0.1563,-0.0505,0.0,0.0,0.0,0.0,0.0,0.0,0.0,0.0,0.0,0.0,0.0,0.0,0.0,0.0,-0.9822,-0.9822,-0.9822,-0.9822,-0.9822,-0.9788,-0.9686,-0.9547,-0.9395,-0.9299,-0.9093,-0.8988,-0.8888,-0.8885,-0.8885,-0.8885,-0.8885,-0.8885,-0.8885,-0.8885,-0.8861,-0.8817,-0.8581,-0.8319,-0.8113,-0.8012,-0.7988,-0.7988,-0.7988,-0.7988,-0.7988,-0.7988,-0.7988,-0.7988,-0.7988,-0.7988,-0.7988,-0.7988,-0.7988,-0.7988,-0.7988,-0.7988,-0.7988,-0.7988,-0.7988,-0.7988,-0.7988,-0.7988,-0.7988,-0.7988,-0.7988,-0.7988,-0.7988,-0.7988,-0.7988,-0.7988,-0.7988,-0.7988,-0.7988,-0.7988,-0.7988,-0.7988,-0.7988,-0.7988,-0.7988,-0.7988,-0.7988,-0.7988,-0.7988,-0.7988,-0.7988,-0.7988,-0.7988,-0.7988,-0.7988,-0.7988,-0.7988,-0.7988,-0.7988,-0.7988,-0.7988,-0.7988,-0.7988,-0.7988,-0.7988,-0.7988,-0.7988,-0.7988,-0.7988,-0.7988,-0.7988,-0.7988,-0.7746,-0.7547,-0.7494,-0.5582,-0.4528,-0.4331,-0.3224,-0.272,-0.272,-0.2368,-0.2267,-0.2217,-0.1462,-0.111,-0.1059,-0.0303,0.0,0.0,0.0,0.0,0.0,0.0,0.0,0.0,-0.9822,-0.9822,-0.9822,-0.9822,-0.9822,-0.9791,-0.9707,-0.9513,-0.9347,-0.9313,-0.9066,-0.8885,-0.8885,-0.8885,-0.8885,-0.8885,-0.8885,-0.8885,-0.8885,-0.8885,-0.8858,-0.8797,-0.8615,-0.8397,-0.8218,-0.8049,-0.7988,-0.7988,-0.7988,-0.7988,-0.7988,-0.7988,-0.7988,-0.7988,-0.7988,-0.7988,-0.7988,-0.7988,-0.7988,-0.7988,-0.7988,-0.7988,-0.7988,-0.7988,-0.7988,-0.7988,-0.7988,-0.7988,-0.7988,-0.7988,-0.7988,-0.7988,-0.7988,-0.7988,-0.7988,-0.7988,-0.7988,-0.7988,-0.7988,-0.7988,-0.7988,-0.7988,-0.7988,-0.7988,-0.7988,-0.7988,-0.7988,-0.7988,-0.7988,-0.7988,-0.7988,-0.7988,-0.7988,-0.7988,-0.7988,-0.7988,-0.7988,-0.7988,-0.7988,-0.7988,-0.7988,-0.7988,-0.7988,-0.7988,-0.7988,-0.7988,-0.7988,-0.7988,-0.7988,-0.7988,-0.7988,-0.7988,-0.7842,-0.7693,-0.7596,-0.6637,-0.5984,-0.5586,-0.4479,-0.3925,-0.3827,-0.3374,-0.2972,-0.2519,-0.1865,-0.1361,-0.0908,-0.0252,0.0,0.0,0.0,0.0,0.0,0.0,0.0,0.0,-0.9805,-0.9812,-0.9819,-0.9805,-0.9812,-0.9819,-0.9802,-0.9574,-0.9391,-0.9364,-0.9123,-0.8898,-0.8885,-0.8885,-0.8885,-0.8885,-0.8885,-0.8885,-0.8885,-0.8885,-0.8814,-0.8716,-0.8564,-0.8476,-0.8462,-0.8184,-0.7988,-0.7988,-0.7988,-0.7988,-0.7988,-0.7988,-0.7988,-0.7988,-0.7988,-0.7988,-0.7988,-0.7988,-0.7988,-0.7988,-0.7988,-0.7988,-0.7988,-0.7988,-0.7988,-0.7988,-0.7988,-0.7988,-0.7988,-0.7988,-0.7988,-0.7988,-0.7988,-0.7988,-0.7988,-0.7988,-0.7988,-0.7988,-0.7988,-0.7988,-0.7988,-0.7988,-0.7988,-0.7988,-0.7988,-0.7988,-0.7988,-0.7988,-0.7988,-0.7988,-0.7988,-0.7988,-0.7988,-0.7988,-0.7988,-0.7988,-0.7988,-0.7988,-0.7988,-0.7988,-0.7988,-0.7988,-0.7988,-0.7988,-0.7988,-0.7988,-0.7988,-0.7988,-0.7988,-0.7988,-0.7988,-0.7988,-0.7988,-0.7892,-0.7646,-0.7646,-0.7344,-0.6842,-0.5834,-0.5231,-0.4985,-0.4028,-0.3021,-0.2066,-0.1965,-0.1361,-0.0404,-0.0202,-0.0151,-0.0151,-0.0051,0.0,0.0,0.0,0.0,0.0,-0.9676,-0.9744,-0.9785,-0.9676,-0.9747,-0.9785,-0.9673,-0.9602,-0.9473,-0.9292,-0.9204,-0.9062,-0.8895,-0.8885,-0.8885,-0.8885,-0.8885,-0.8885,-0.8885,-0.8885,-0.8814,-0.8716,-0.8564,-0.8431,-0.8371,-0.8136,-0.7988,-0.7988,-0.7988,-0.7988,-0.7988,-0.7988,-0.7988,-0.7988,-0.7988,-0.7988,-0.7988,-0.7988,-0.7988,-0.7988,-0.7988,-0.7988,-0.7988,-0.7988,-0.7988,-0.7988,-0.7988,-0.7988,-0.7988,-0.7988,-0.7988,-0.7988,-0.7988,-0.7988,-0.7988,-0.7988,-0.7988,-0.7988,-0.7988,-0.7988,-0.7988,-0.7988,-0.7988,-0.7988,-0.7988,-0.7988,-0.7988,-0.7988,-0.7988,-0.7988,-0.7988,-0.7988,-0.7988,-0.7988,-0.7988,-0.7988,-0.7988,-0.7988,-0.7988,-0.7988,-0.7988,-0.7988,-0.7988,-0.7988,-0.7988,-0.7988,-0.7988,-0.7988,-0.7988,-0.7988,-0.7988,-0.7988,-0.7988,-0.7992,-0.7892,-0.7892,-0.764,-0.7089,-0.6886,-0.6736,-0.6686,-0.6434,-0.6084,-0.5634,-0.4778,-0.4176,-0.3626,-0.1966,-0.1261,-0.116,-0.0303,0.0,0.0,0.0,0.0,0.0,-0.971,-0.9717,-0.972,-0.971,-0.9771,-0.9774,-0.9632,-0.9547,-0.9415,-0.9241,-0.9093,-0.9022,-0.8892,-0.8885,-0.8885,-0.8885,-0.8885,-0.8885,-0.8885,-0.8885,-0.8814,-0.8716,-0.8564,-0.8445,-0.8374,-0.8153,-0.7988,-0.7988,-0.7988,-0.7988,-0.7988,-0.7988,-0.7988,-0.7988,-0.7988,-0.7988,-0.7988,-0.7988,-0.7988,-0.7988,-0.7988,-0.7988,-0.7988,-0.7988,-0.7988,-0.7988,-0.7988,-0.7988,-0.7988,-0.7988,-0.7988,-0.7988,-0.7988,-0.7988,-0.7988,-0.7988,-0.7988,-0.7988,-0.7988,-0.7988,-0.7988,-0.7988,-0.7988,-0.7988,-0.7988,-0.7988,-0.7988,-0.7988,-0.7988,-0.7988,-0.7988,-0.7988,-0.7988,-0.7988,-0.7988,-0.7988,-0.7988,-0.7988,-0.7988,-0.7988,-0.7988,-0.7988,-0.7988,-0.7988,-0.7988,-0.7988,-0.7988,-0.7988,-0.7988,-0.7988,-0.7988,-0.7988,-0.7988,-0.7988,-0.7988,-0.7988,-0.7839,-0.7587,-0.7441,-0.7341,-0.7188,-0.7188,-0.6836,-0.6182,-0.5629,-0.4926,-0.4126,-0.302,-0.2468,-0.2267,-0.116,-0.0757,-0.0707,-0.0202,0.0,0.0,-0.9727,-0.9652,-0.9598,-0.969,-0.9727,-0.9707,-0.9588,-0.9462,-0.9327,-0.9228,-0.9049,-0.8964,-0.8888,-0.8885,-0.8885,-0.8885,-0.8885,-0.8885,-0.8885,-0.8885,-0.8814,-0.8716,-0.8564,-0.8472,-0.8445,-0.818,-0.8002,-0.8029,-0.8002,-0.7988,-0.7988,-0.7988,-0.7988,-0.7988,-0.7988,-0.7988,-0.7988,-0.7988,-0.7988,-0.7988,-0.7988,-0.7988,-0.7988,-0.7988,-0.7988,-0.7988,-0.7988,-0.7988,-0.7988,-0.7988,-0.7988,-0.7988,-0.7988,-0.7988,-0.7988,-0.7988,-0.7988,-0.7988,-0.7988,-0.7988,-0.7988,-0.7988,-0.8008,-0.8022,-0.7995,-0.7988,-0.7995,-0.8022,-0.8029,-0.8029,-0.8029,-0.8029,-0.8019,-0.7992,-0.8012,-0.8019,-0.7992,-0.8012,-0.8019,-0.7992,-0.7988,-0.7988,-0.7988,-0.7988,-0.7988,-0.7988,-0.7988,-0.7988,-0.7988,-0.7988,-0.7988,-0.7988,-0.7988,-0.7988,-0.7988,-0.7988,-0.7988,-0.7988,-0.7793,-0.7543,-0.7338,-0.7338,-0.6833,-0.5927,-0.5927,-0.5275,-0.4221,-0.4021,-0.3773,-0.3423,-0.2367,-0.1814,-0.1462,-0.0404,0.0,0.0,-0.9462,-0.9425,-0.9374,-0.932,-0.9354,-0.9435,-0.9415,-0.9395,-0.9327,-0.9228,-0.9193,-0.9076,-0.8898,-0.8885,-0.8885,-0.8885,-0.8885,-0.8885,-0.8885,-0.8885,-0.8814,-0.8716,-0.8564,-0.8425,-0.8354,-0.813,-0.8106,-0.8238,-0.8106,-0.7988,-0.7988,-0.7988,-0.7988,-0.7988,-0.7988,-0.7988,-0.7988,-0.7988,-0.7988,-0.7988,-0.7988,-0.7988,-0.7988,-0.7988,-0.7988,-0.7988,-0.7988,-0.7988,-0.7988,-0.7988,-0.7988,-0.7988,-0.7988,-0.7988,-0.7988,-0.7988,-0.7988,-0.7988,-0.7988,-0.7988,-0.7988,-0.7988,-0.814,-0.8204,-0.8019,-0.7988,-0.8025,-0.8211,-0.8238,-0.8238,-0.8238,-0.8238,-0.8197,-0.8012,-0.815,-0.8194,-0.8008,-0.8153,-0.8187,-0.8005,-0.7988,-0.7988,-0.7988,-0.7988,-0.7988,-0.7988,-0.7988,-0.7988,-0.7988,-0.7988,-0.7988,-0.7988,-0.7988,-0.7988,-0.7988,-0.7988,-0.7988,-0.7988,-0.7942,-0.7939,-0.7889,-0.7889,-0.769,-0.7341,-0.7341,-0.7089,-0.6634,-0.5724,-0.5175,-0.4828,-0.3772,-0.2618,-0.1462,-0.0404,0.0,0.0,-0.9507,-0.9371,-0.9316,-0.9333,-0.9337,-0.9354,-0.9323,-0.9309,-0.9201,-0.9052,-0.9032,-0.9008,-0.8892,-0.8885,-0.8885,-0.8885,-0.8885,-0.8885,-0.8885,-0.8885,-0.8814,-0.8716,-0.8645,-0.854,-0.8391,-0.8245,-0.8201,-0.8323,-0.8116,-0.7988,-0.7988,-0.7988,-0.7988,-0.7988,-0.7988,-0.7988,-0.7988,-0.7988,-0.7988,-0.7988,-0.7988,-0.7988,-0.7988,-0.7988,-0.7988,-0.7988,-0.7988,-0.7988,-0.7988,-0.7988,-0.7988,-0.7988,-0.7988,-0.7988,-0.7988,-0.7988,-0.7988,-0.7988,-0.7988,-0.7988,-0.7988,-0.7988,-0.8157,-0.8252,-0.8184,-0.8228,-0.8282,-0.8272,-0.8323,-0.8347,-0.8374,-0.8374,-0.8275,-0.8286,-0.8343,-0.8336,-0.8187,-0.8228,-0.8214,-0.8008,-0.7988,-0.7988,-0.7988,-0.7988,-0.7988,-0.7988,-0.7988,-0.7988,-0.7988,-0.7988,-0.7988,-0.7988,-0.7988,-0.7988,-0.7988,-0.7988,-0.7988,-0.7988,-0.7988,-0.7988,-0.7988,-0.7988,-0.7942,-0.7842,-0.7842,-0.7693,-0.7391,-0.6936,-0.6484,-0.5934,-0.4273,-0.2416,-0.0656,-0.0151,0.0,0.0]},{"header":{"parameterUnit":"m.s-1","parameterCategory":1,"la1":30.6,"la2":28.766,"lo1":-90.7593,"lo2":-88.6598,"dy":0.0162,"dx":0.0183,"nx":116,"ny":114,"refTime":"2023-05-11T12:00:00:Z","depth":0,"parameterNumber":3,"parameterNumberName":"V-component_of_WINDS"},"data":[0.0,0.0,0.0,0.0,0.0,0.0,0.0,0.0,0.0,0.0,0.0,0.0,0.0,0.0,0.0,0.0,0.0,0.0,0.0,0.0,0.0,0.0,0.0,0.0,0.0,0.0,0.0,0.0,0.0,0.0,0.0,0.0,0.0,0.0,0.0,0.0,0.0,0.0,0.0,0.0,0.0,0.0,0.0,0.0,0.0,0.0,0.0,0.0,0.0,0.0,0.0,0.0,0.0,0.0,0.0,0.0,0.0,0.0,0.0,0.0,0.0,0.0,0.0,0.0,0.0,0.0,0.0,0.0,0.0,0.0,0.0,0.0,0.0,0.0,0.0,0.0,0.0,0.0,0.0,0.0,0.0,0.0,0.0,0.0,0.0,0.0,0.0,0.0,0.0,0.0,0.0,0.0,0.0,0.0,0.0,0.0,0.0,0.0,0.0,0.0,0.0,0.0,0.0,0.0,0.0,0.0,0.0,0.0,0.0,0.0,0.0,0.0,0.0,0.0,0.0,0.0,0.0,0.0,0.0,0.0,0.0,0.0,0.0,0.0,0.0,0.0,0.0,0.0,0.0,0.0,0.0,0.0,0.0,0.0,0.0,0.0,0.0,0.0,0.0,0.0,0.0,0.0,0.0,0.0,0.0,0.0,0.0,0.0,0.0,0.0,0.0,0.0,0.0,0.0,0.0,0.0,0.0,0.0,0.0,0.0,0.0,0.0,0.0,0.0,0.0,0.0,0.0,0.0,0.0,0.0,0.0,0.0,0.0,0.0,0.0,0.0,0.0,0.0,0.0,0.0,0.0,0.0,0.0,0.0,0.0,0.0,0.0,0.0,0.0,0.0,0.0,0.0,0.0,0.0,0.0,0.0,0.0,0.0,0.0,0.0,0.0,0.0,0.0,0.0,0.0,0.0,0.0,0.0,0.0,0.0,0.0,0.0,0.0,0.0,0.0,0.0,0.0,0.0,0.0,0.0,0.0,0.0,0.0,0.0,0.0,0.0,0.0,0.0,0.0,0.0,0.0,0.0,0.0,0.0,0.0,0.0,0.0,0.0,0.0,0.0,0.0,0.0,0.0,0.0,0.0,0.0,0.0,0.0,0.0,0.0,0.0,0.0,0.0,0.0,0.0,0.0,0.0,0.0,0.0,0.0,0.0,0.0,0.0,0.0,0.0,0.0,0.0,0.0,0.0,0.0,0.0,0.0,0.0,0.0,0.0,0.0,0.0,0.0,0.0,0.0,0.0,0.0,0.0,0.0,0.0,0.0,0.0,0.0,0.0,0.0,0.0,0.0,0.0,0.0,0.0,0.0,0.0,0.0,0.0,0.0,0.0,0.0,0.0,0.0,0.0,0.0,0.0,0.0,0.0,0.0,0.0,0.0,0.0,0.0,0.0,0.0,0.0,0.0,0.0,0.0,0.0,0.0,0.0,0.0,0.0,0.0,0.0,0.0,0.0,0.0,0.0,0.0,0.0,0.0,0.0,0.0,0.0,0.0,0.0,0.0,0.0,0.0,0.0,0.0,0.0,0.0,0.0,0.0,0.0,0.0,0.0,0.0,0.0,0.0,0.0,0.0,0.0,0.0,0.0,0.0,0.0,0.0,0.0,0.0,0.0,0.0,0.0,0.0,0.0,0.0,0.0,0.0,0.0,0.0,0.0,0.0,0.0,0.0,0.0,0.0,0.0,0.0,0.0,0.0,0.0,0.0,0.0,0.0,0.0,0.0,0.0,0.0,0.0,0.0,0.0,0.0,0.0,0.0,0.0,0.0,0.0,0.0,0.0,0.0,0.0,0.0,0.0,0.0,0.0,0.0,0.0,0.0,0.0,0.0,0.0,0.0,0.0,0.0,0.0,0.0,0.0,0.0,0.0,0.0,0.0,0.0,0.0,0.0,0.0,0.0,0.0,0.0,0.0,0.0,0.0,0.0,0.0,0.0,0.0,0.0,0.0,0.0,0.0,0.0,0.0,0.0,0.0,0.0,0.0,0.0,0.0,0.0,0.0,0.0,0.0,0.0,0.0,0.0,0.0,0.0,0.0,0.0,0.0,0.0,0.0,0.0,0.0,0.0,0.0,0.0,0.0,0.0,0.0,0.0,0.0,0.0,0.0,0.0,0.0,0.0,0.0,0.0,0.0,0.0,0.0,0.0,0.0,0.0,0.0,0.0,0.0,0.0,0.0,0.0,0.0,0.0,0.0,0.0,0.0,0.0,0.0,0.0,0.0,0.0,0.0,0.0,0.0,0.0,0.0,0.0,0.0,0.0,0.0,0.0,0.0,0.0,0.0,0.0,0.0,0.0,0.0,0.0,0.0,0.0,0.0,0.0,0.0,0.0,0.0,0.0,0.0,0.0,0.0,0.0,0.0,0.0,0.0,0.0,0.0,0.0,0.0,0.0,0.0,0.0,0.0,0.0,0.0,0.0,0.0,0.0,0.0,0.0,0.0,0.0,0.0,0.0,0.0,0.0,0.0,0.0,0.0,0.0,0.0,0.0,0.0,0.0,0.0,0.0,0.0,0.0,0.0,0.0,0.0,0.0,0.0,0.0,0.0,0.0,0.0,0.0,0.0,0.0,0.0,0.0,0.0,0.0,0.0,0.0,0.0,0.0,0.0,0.0,0.0,0.0,0.0,0.0,0.0,0.0,0.0,0.0,0.0,0.0,0.0,0.0,0.0,0.0,0.0,0.0,0.0,0.0,0.0,0.0,0.0,0.0,0.0,0.0,0.0,0.0,0.0,0.0,0.0,0.0,0.0,0.0,0.0,0.0,0.0,0.0,0.0,0.0,0.0,0.0,0.0,0.0,0.0,0.0,0.0,0.0,0.0,0.0,0.0,0.0,0.0,0.0,0.0,0.0,0.0,0.0,0.0,0.0,0.0,0.0,0.0,0.0,0.0,0.0,0.0,0.0,0.0,0.0,0.0,0.0,0.0,0.0,0.0,0.0,0.0,0.0,0.0,0.0,0.0,0.0,0.0,0.0,0.0,0.0,0.0,0.0,0.0,0.0,0.0,0.0,0.0,0.0,0.0,0.0,0.0,0.0,0.0,0.0,0.0,0.0,0.0,0.0,0.0,0.0,0.0,0.0,0.0,0.0,0.0,0.0,0.0,0.0,0.0,0.0,0.0,0.0,0.0,0.0,0.0,0.0,0.0,0.0,0.0,0.0,0.0,0.0,0.0,0.0,0.0,0.0,0.0,0.0,0.0,0.0,0.0,0.0,0.0,0.0,0.0,0.0,0.0,0.0,0.0,0.0,0.0,0.0,0.0,0.0,0.0,0.0,0.0,0.0,0.0,0.0,0.0,0.0,0.0,0.0,0.0,0.0,0.0,0.0,0.0,0.0,0.0,0.0,0.0,0.0,0.0,0.0,0.0,0.0,0.0,0.0,0.0,0.0,0.0,0.0,0.0,0.0,0.0,0.0,0.0,0.0,0.0,0.0,0.0,0.0,0.0,0.0,0.0,0.0,0.0,0.0,0.0,0.0,0.0,0.0,0.0,0.0,0.0,0.0,0.0,0.0,0.0,0.0,0.0,0.0,0.0,0.0,0.0,0.0,0.0,0.0,0.0,0.0,0.0,0.0,0.0,0.0,0.0,0.0,0.0,0.0,0.0,0.0,0.0,0.0,0.0,0.0,0.0,0.0,0.0,0.0,0.0,0.0,0.0,0.0,0.0,0.0,0.0,0.0,0.0,0.0,0.0,0.0,0.0,0.0,0.0,0.0,0.0,0.0,0.0,0.0,0.0,0.0,0.0,0.0,0.0,0.0,0.0,0.0,0.0,0.0,0.0,0.0,0.0,0.0,0.0,0.0,0.0,0.0,0.0,0.0,0.0,0.0,0.0,0.0,0.0,0.0,0.0,0.0,0.0,0.0,0.0,0.0,0.0,0.0,0.0,0.0,0.0,0.0,0.0,0.0,0.0,0.0,0.0,0.0,0.0,0.0,0.0,0.0,0.0,0.0,0.0,0.0,0.0,0.0,0.0,0.0,0.0,0.0,0.0,0.0,0.0,0.0,0.0,0.0,0.0,0.0,0.0,0.0,0.0,0.0,0.0,0.0,0.0,0.0,0.0,0.0,0.0,0.0,0.0,0.0,0.0,0.0,0.0,0.0,0.0,0.0,0.0,0.0,0.0,0.0,0.0,0.0,0.0,0.0,0.0,0.0,0.0,0.0,0.0,0.0,0.0,0.0,0.0,0.0,0.0,0.0,0.0,0.0,0.0,0.0,0.0,0.0,0.0,0.0,0.0,0.0,0.0,0.0,0.0,0.0,0.0,0.0,0.0,0.0,0.0,0.0,0.0,0.0,0.0,0.0,0.0,0.0,0.0,0.0,0.0,0.0,0.0,0.0,0.0,0.0,0.0,0.0,0.0,0.0,0.0,0.0,0.0,0.0,0.0,0.0,0.0,0.0,0.0,0.0,0.0,0.0,0.0,0.0,0.0,0.0,0.0,0.0,0.0,0.0,0.0,0.0,0.0,0.0,0.0,0.0,0.0,0.0,0.0,0.0,0.0,0.0,0.0,0.0,0.0,0.0,0.0,0.0,0.0,0.0,0.0,0.0,0.0,0.0,0.0,0.0,0.0,0.0,0.0,0.0,0.0,0.0,0.0,0.0,0.0,0.0,0.0,0.0,0.0,0.0,0.0,0.0,0.0,0.0,0.0,0.0,0.0,0.0,0.0,0.0,0.0,0.0,0.0,0.0,0.0,0.0,0.0,0.0,0.0,0.0,0.0,0.0,0.0,0.0,0.0,0.0,0.0,0.0,0.0,0.0,0.0,0.0,0.0,0.0,0.0,0.0,0.0,0.0,0.0,0.0,0.0,0.0,0.0,0.0,0.0,0.0,0.0,0.0,0.0,0.0,0.0,0.0,0.0,0.0,0.0,0.0,0.0,0.0,0.0,0.0,0.0,0.0,0.0,0.0,0.0,0.0,0.0,0.0,0.0,0.0,0.0,0.0,0.0,0.0,0.0,0.0,0.0,0.0,0.0,0.0,0.0,0.0,0.0,0.0,0.0,0.0,0.0,0.0,0.0,0.0,0.0,0.0,0.0,0.0,0.0,0.0,0.0,0.0,0.0,0.0,0.0,0.0,0.0,0.0,0.0,0.0,0.0,0.0,0.0,0.0,0.0,0.0,0.0,0.0,0.0,0.0,0.0,0.0,0.0,0.0,0.0,0.0,0.0,0.0,0.0,0.0,0.0,0.0,0.0,0.0,0.0,0.0,0.0,0.0,0.0,0.0,0.0,0.0,0.0,0.0,0.0,0.0,0.0,0.0,0.0,0.0,0.0,0.0,0.0,0.0,0.0,0.0,0.0,0.0,0.0,0.0,0.0,0.0,0.0,0.0,0.0,0.0,0.0,0.0,0.0,0.0,0.0,0.0,0.0,0.0,0.0,0.0,0.0,0.0,0.0,0.0,0.0,0.0,0.0,0.0,0.0,0.0,0.0,0.0,0.0,0.0,0.0,0.0,0.0,0.0,0.0,0.0,0.0,0.0,0.0,0.0,0.0,0.0,0.0,0.0,0.0,0.0,0.0,0.0,0.0,0.0,0.0,0.0,0.0,0.0,0.0,0.0,0.0,0.0,0.0,0.0,0.0,0.0,0.0,0.0,0.0,0.0,0.0,0.0,0.0,0.0,0.0,0.0,0.0,0.0,0.0,0.0,0.0,0.0,0.0,0.0,0.0,0.0,0.0,0.0,0.0,0.0,0.0,0.0,0.0,0.0,0.0,0.0,0.0,0.0,0.0,0.0,0.0,0.0,0.0,0.0,0.0,0.0,0.0,0.0,0.0,0.0,0.0,0.0,0.0,0.0,0.0,0.0,0.0,0.0,0.0,0.0,0.0,0.0,0.0,0.0,0.0,0.0,0.0,0.0,0.0,0.0,0.0,0.0,0.0,0.0,0.0,0.0,0.0,0.0,0.0,0.0,0.0,0.0,0.0,0.0,0.0,0.0,0.0,0.0,0.0,0.0,0.0,0.0,0.0,0.0,0.0,0.0,0.0,0.0,0.0,0.0,0.0,0.0,0.0,0.0,0.0,0.0,0.0,0.0,0.0,0.0,0.0,0.0,0.0,0.0,0.0,0.0,0.0,0.0,2.301,2.1895,0.0,0.0,0.0,0.0,0.0,0.0,0.0,0.0,0.0,0.0,0.0,0.0,0.0,0.0,0.0,0.0,0.0,0.0,0.0,0.0,0.0,0.0,0.0,0.0,0.0,0.0,0.0,0.0,0.0,0.0,0.0,0.0,0.0,0.0,0.0,0.0,0.0,2.3791,2.4702,2.5412,2.5933,2.676,2.646,2.5255,0.0,0.0,0.0,0.0,0.0,0.0,0.0,0.0,0.0,0.0,0.0,0.0,0.0,0.0,0.0,0.0,0.0,0.0,0.0,0.0,0.0,0.0,0.0,0.0,0.0,0.0,0.0,0.0,0.0,0.0,0.0,0.0,0.0,0.0,0.0,0.0,0.0,0.0,0.0,0.0,0.0,0.0,0.0,0.0,0.0,0.0,0.0,0.0,0.0,0.0,0.0,0.0,0.0,0.0,0.0,0.0,0.0,0.0,0.0,0.0,0.0,0.0,0.0,0.0,0.0,0.0,0.0,0.0,0.0,0.0,2.4662,2.3731,0.0,0.0,0.0,0.0,0.0,0.0,0.0,0.0,0.0,0.0,0.0,0.0,0.0,0.0,0.0,0.0,0.0,0.0,0.0,0.0,0.0,0.0,0.0,2.6432,2.6526,2.6526,2.6346,2.5946,0.0,0.0,0.0,0.0,0.0,0.0,2.4926,2.4877,2.4688,2.4295,2.53,2.6677,2.8362,2.9742,2.8856,2.609,2.5946,0.0,0.0,0.0,0.0,0.0,0.0,0.0,0.0,0.0,0.0,0.0,0.0,0.0,0.0,0.0,0.0,0.0,0.0,0.0,0.0,0.0,0.0,0.0,0.0,0.0,0.0,0.0,0.0,0.0,0.0,0.0,0.0,0.0,0.0,0.0,0.0,0.0,0.0,0.0,0.0,0.0,0.0,0.0,0.0,0.0,0.0,0.0,0.0,0.0,0.0,0.0,0.0,0.0,0.0,0.0,0.0,0.0,0.0,0.0,0.0,0.0,0.0,0.0,2.4944,2.5146,2.5855,2.6043,2.6579,2.7299,2.6567,2.6043,2.5623,2.4165,0.0,0.0,0.0,0.0,0.0,0.0,0.0,0.0,0.0,0.0,0.0,0.0,0.0,0.0,0.0,0.0,0.0,0.0,0.0,2.6276,2.6371,2.7012,2.743,2.743,2.6731,2.6236,2.6132,0.0,0.0,0.0,0.0,0.0,2.5063,2.5122,2.5508,2.6226,2.7864,2.9137,3.0076,3.0307,3.0158,2.9684,2.8931,2.7783,2.6355,0.0,0.0,0.0,0.0,0.0,0.0,0.0,0.0,0.0,0.0,0.0,0.0,0.0,0.0,0.0,0.0,0.0,0.0,0.0,0.0,0.0,0.0,0.0,0.0,0.0,0.0,0.0,0.0,0.0,0.0,0.0,0.0,0.0,0.0,0.0,0.0,0.0,0.0,0.0,0.0,0.0,2.4017,2.4594,0.0,0.0,0.0,0.0,0.0,0.0,0.0,0.0,0.0,0.0,0.0,0.0,0.0,2.4885,2.5012,2.588,2.6248,2.6162,2.7806,2.8525,2.8447,2.9448,2.9901,2.9916,2.9961,0.0,2.6618,2.6381,0.0,0.0,0.0,0.0,0.0,0.0,0.0,0.0,0.0,0.0,0.0,0.0,0.0,0.0,0.0,0.0,0.0,0.0,0.0,0.0,0.0,2.8384,2.9175,2.9172,2.9273,2.8735,2.7288,2.6826,0.0,0.0,0.0,2.5115,2.517,2.5154,2.6077,2.8007,3.0232,3.1521,3.1877,3.2353,3.2066,3.1132,3.1247,3.005,2.7898,2.7053,0.0,0.0,0.0,0.0,0.0,0.0,0.0,0.0,0.0,0.0,0.0,0.0,0.0,0.0,0.0,0.0,0.0,0.0,0.0,0.0,0.0,0.0,0.0,0.0,0.0,0.0,0.0,0.0,0.0,0.0,0.0,0.0,0.0,0.0,0.0,0.0,0.0,0.0,0.0,2.427,2.4619,2.4967,2.3563,2.2338,0.0,0.0,0.0,0.0,0.0,0.0,0.0,0.0,0.0,2.5907,2.6746,2.7629,2.8588,2.9516,2.9748,2.9289,3.0167,3.0582,3.0598,3.1012,3.1255,3.1325,3.1838,3.0869,2.8865,2.7912,2.6997,2.6107,0.0,0.0,0.0,0.0,2.364,2.3644,0.0,0.0,0.0,0.0,0.0,0.0,0.0,0.0,0.0,0.0,0.0,0.0,2.8382,3.0037,3.1091,3.1091,3.1478,3.0738,2.8391,2.7995,2.7083,2.5361,2.522,2.5194,2.5244,2.5869,2.7502,3.0146,3.2295,3.3465,3.368,3.433,3.3932,3.2731,3.3388,3.1954,2.9031,2.8628,2.7111,2.497,0.0,0.0,0.0,0.0,0.0,0.0,0.0,0.0,0.0,0.0,0.0,0.0,0.0,0.0,0.0,0.0,0.0,0.0,0.0,0.0,0.0,0.0,0.0,0.0,0.0,0.0,0.0,0.0,0.0,0.0,0.0,0.0,0.0,0.0,0.0,0.0,0.0,2.5774,2.6022,2.5995,2.5437,2.4436,0.0,0.0,0.0,0.0,0.0,0.0,2.6066,2.6498,2.7306,2.8521,2.9622,3.0701,3.1776,3.2647,3.2696,3.1955,3.2017,3.2097,3.2203,3.2135,3.2198,3.2357,3.2906,3.2326,3.0858,2.9582,2.8524,2.7648,2.6808,2.6443,2.6292,2.5258,2.4858,2.4812,0.0,0.0,0.0,0.0,0.0,0.0,0.0,0.0,0.0,0.0,0.0,2.939,3.0177,3.1878,3.2962,3.2958,3.2244,3.1041,2.9244,2.8425,2.7187,2.537,2.5357,2.539,2.5393,2.7876,3.0434,3.2996,3.3887,3.4728,3.5465,3.5504,3.5486,3.5405,3.5443,3.3124,2.9231,2.9954,2.9288,2.7558,2.5891,0.0,0.0,0.0,0.0,0.0,0.0,0.0,0.0,0.0,0.0,0.0,0.0,0.0,0.0,0.0,0.0,0.0,0.0,0.0,0.0,0.0,0.0,0.0,0.0,0.0,0.0,0.0,0.0,0.0,0.0,0.0,0.0,0.0,0.0,0.0,0.0,0.0,0.0,2.8707,2.8675,0.0,0.0,0.0,0.0,2.6154,2.7665,2.8646,2.8718,3.0285,3.119,3.1209,3.286,3.3455,3.2827,3.3698,3.3728,3.2921,3.3126,3.3156,3.3045,3.316,3.3227,3.3235,3.327,3.2761,3.1903,3.1706,3.1062,3.0144,2.9395,2.9028,2.8739,2.7234,2.6629,2.6467,0.0,0.0,0.0,0.0,0.0,0.0,0.0,0.0,2.5586,2.6502,2.8169,2.9598,3.0494,3.2713,3.4113,3.4079,3.4291,3.3473,3.1216,3.0228,2.8712,2.6437,2.5764,2.5987,2.7108,2.9683,3.1738,3.3201,3.5127,3.5921,3.5654,3.5653,3.5366,3.4833,3.4776,3.3633,3.173,3.1964,3.0463,2.7845,2.7171,2.5405,0.0,0.0,0.0,0.0,0.0,0.0,0.0,0.0,0.0,0.0,0.0,0.0,0.0,0.0,0.0,0.0,0.0,0.0,0.0,0.0,0.0,0.0,0.0,0.0,0.0,0.0,0.0,0.0,0.0,0.0,0.0,0.0,0.0,0.0,0.0,0.0,0.0,3.0659,3.156,0.0,2.9478,3.0226,3.0478,2.9646,3.1638,3.2932,3.294,3.354,3.414,3.4666,3.5373,3.5863,3.6111,3.5965,3.5443,3.4606,3.4676,3.4448,3.396,3.4487,3.4488,3.4109,3.4626,3.4022,3.2747,3.3267,3.2332,3.0578,3.0292,3.0168,3.0008,2.8879,2.8456,2.8322,0.0,0.0,0.0,0.0,0.0,0.0,0.0,0.0,2.6318,2.7813,2.929,3.0775,3.23,3.4059,3.5112,3.5073,3.5332,3.4394,3.1837,3.0804,2.9151,2.6573,2.6709,2.779,2.9816,3.2077,3.381,3.4955,3.6614,3.7138,3.6586,3.6585,3.6265,3.5703,3.5676,3.5195,3.4417,3.4336,3.2494,2.9533,2.8643,2.6893,2.4797,0.0,0.0,0.0,0.0,0.0,0.0,0.0,0.0,0.0,0.0,0.0,0.0,0.0,0.0,0.0,0.0,0.0,0.0,0.0,0.0,0.0,0.0,0.0,0.0,0.0,0.0,0.0,0.0,0.0,0.0,0.0,0.0,0.0,0.0,3.097,3.3094,3.245,3.4165,3.4479,3.2187,3.3474,3.4098,3.3218,3.5242,3.6414,3.6167,3.6396,3.6692,3.703,3.7397,3.7709,3.7994,3.752,3.6861,3.6049,3.5748,3.5349,3.4884,3.5408,3.5388,3.5006,3.5538,3.4947,3.365,3.4233,3.3324,3.1566,3.1552,3.1352,3.0971,3.0166,2.9667,2.9285,0.0,0.0,0.0,0.0,0.0,0.0,2.5382,2.6143,2.7626,3.0195,3.1394,3.2988,3.5543,3.5923,3.5991,3.5991,3.5206,3.3598,3.1006,2.9998,2.8379,2.5829,2.8177,3.0743,3.3327,3.5051,3.6758,3.8408,3.8363,3.8341,3.833,3.835,3.835,3.8345,3.8299,3.7824,3.7029,3.6969,3.5473,3.2935,3.0397,2.9291,2.881,0.0,0.0,0.0,0.0,0.0,0.0,0.0,0.0,0.0,0.0,0.0,0.0,0.0,0.0,0.0,0.0,0.0,0.0,0.0,0.0,0.0,0.0,0.0,0.0,0.0,0.0,0.0,0.0,0.0,0.0,0.0,0.0,0.0,3.0593,3.2717,3.4356,3.4347,3.6538,3.7402,3.576,3.7095,3.769,3.6823,3.829,3.8911,3.8189,3.8902,3.8989,3.8255,3.8981,3.9032,3.8294,3.823,3.786,3.7163,3.6265,3.5838,3.5861,3.5903,3.5924,3.5905,3.5897,3.5421,3.4645,3.4645,3.414,3.3378,3.3257,3.2654,3.1762,3.1117,3.0297,2.9368,0.0,0.0,0.0,0.0,0.0,0.0,2.5406,2.6133,2.7203,2.8589,3.0701,3.2597,3.394,3.5227,3.5993,3.5991,3.5209,3.3859,3.1865,3.0375,2.9233,2.8455,2.9723,3.1921,3.5112,3.6264,3.7383,3.8468,3.9101,3.9369,3.9326,3.9313,3.9286,3.9209,3.8583,3.816,3.7947,3.7912,3.7503,3.6605,3.3967,3.2127,3.0819,0.0,0.0,0.0,0.0,0.0,0.0,0.0,0.0,0.0,0.0,0.0,0.0,0.0,0.0,0.0,0.0,0.0,0.0,0.0,0.0,0.0,0.0,0.0,0.0,0.0,0.0,0.0,0.0,0.0,0.0,0.0,3.2362,3.4366,3.4115,3.6283,3.8349,3.9542,4.0849,4.1242,4.015,4.0971,4.128,4.0491,4.14,4.1952,4.1844,4.2059,4.1788,4.0956,4.1188,4.0946,4.0169,3.8992,3.8633,3.9043,3.754,3.6816,3.6816,3.6829,3.6501,3.5897,3.5906,3.5752,3.5538,3.5538,3.5404,3.5054,3.3771,3.3114,3.2872,3.2672,3.209,3.1339,0.0,0.0,0.0,0.0,0.0,0.0,2.5895,2.6719,2.7873,2.9513,3.143,3.3123,3.4345,3.5388,3.5859,3.5486,3.4665,3.3277,3.1185,3.0106,3.0024,3.1095,3.2666,3.4612,3.6975,3.8229,3.9075,3.9594,4.0067,4.0283,4.024,4.0229,4.0214,4.0166,3.9621,3.9389,3.9384,3.9368,3.9348,3.9171,3.7287,3.5463,3.3751,3.2549,3.1496,3.0559,2.9627,2.9653,2.9983,2.8933,0.0,0.0,0.0,0.0,0.0,0.0,0.0,0.0,0.0,0.0,0.0,0.0,0.0,0.0,0.0,0.0,0.0,0.0,0.0,0.0,0.0,0.0,0.0,0.0,3.5648,3.754,3.8574,3.9692,4.0892,4.2237,4.2818,4.2898,4.2398,4.2795,4.2922,4.2473,4.3234,4.3645,4.3442,4.3729,4.352,4.2739,4.2362,4.1961,4.1494,3.9851,3.9301,3.9772,3.8405,3.7743,3.7743,3.7734,3.7272,3.6455,3.6465,3.6274,3.594,3.594,3.594,0.0,0.0,0.0,0.0,0.0,3.2805,3.2101,0.0,0.0,0.0,0.0,0.0,0.0,2.6566,2.7492,2.9003,3.152,3.2753,3.4069,3.5819,3.5996,3.5683,3.4902,3.3886,3.2224,2.9759,2.9538,3.0807,3.3704,3.6066,3.7842,3.8992,4.0388,4.1081,4.109,4.1015,4.0986,4.0998,4.0998,4.0992,4.0997,4.0933,4.0906,4.0913,4.084,4.0823,4.0745,4.0023,3.8734,3.7029,3.5388,3.4264,3.3452,3.2365,3.152,3.0906,3.0553,0.0,0.0,0.0,0.0,0.0,0.0,0.0,0.0,0.0,0.0,0.0,0.0,0.0,0.0,0.0,0.0,0.0,0.0,0.0,0.0,0.0,0.0,0.0,0.0,3.9173,4.0726,4.3025,4.2765,4.2609,4.3392,4.3435,4.3401,4.3401,4.3478,4.3511,4.353,4.4303,4.451,4.3949,4.4526,0.0,0.0,0.0,4.2412,4.2314,4.0638,3.9859,3.9937,3.9062,3.8653,3.8653,3.8656,3.8177,3.7359,3.7318,3.6855,3.6132,3.6034,3.5995,3.5994,3.5939,3.5484,3.4745,3.3863,3.299,3.2229,0.0,0.0,0.0,0.0,0.0,0.0,2.6586,2.7547,2.8846,3.0701,3.2381,3.4061,3.5801,3.5996,3.5936,3.576,3.3711,3.1621,2.9725,2.9586,3.1655,3.6342,3.7024,3.8663,4.1594,4.123,4.1015,4.1015,4.0949,4.095,4.0996,4.0996,4.1009,4.1005,4.0998,4.0975,4.0974,4.0972,4.092,4.0863,4.0704,4.0023,3.8969,3.7912,3.7411,3.7074,3.5452,3.5198,3.5286,3.3224,3.2513,3.2391,3.1632,3.082,0.0,0.0,0.0,0.0,0.0,0.0,0.0,0.0,0.0,0.0,0.0,0.0,0.0,0.0,0.0,0.0,0.0,0.0,0.0,3.7918,4.0662,4.2969,4.4161,4.4742,4.5088,4.5194,4.5251,4.528,4.528,4.5334,4.5427,4.5533,4.5709,4.5796,4.5773,4.5917,4.5601,4.4772,4.389,4.3088,4.2385,4.0668,4.0141,4.0846,3.9966,0.0,3.9556,3.9606,3.9142,3.8283,3.7607,3.72,3.6985,3.6281,3.6008,3.6008,3.5983,3.5882,3.5649,3.4776,3.3899,3.3059,0.0,0.0,0.0,0.0,0.0,0.0,2.7272,2.7854,2.8653,2.9928,3.1296,3.2792,3.4512,3.4336,3.4081,3.406,3.2128,3.1074,3.1484,3.2324,3.4726,3.9004,3.9178,4.0154,4.2304,4.143,4.0948,4.0953,4.0914,4.0914,4.0953,4.0953,4.0968,4.0995,4.1007,4.103,4.1081,4.1481,4.1372,4.0988,4.1434,4.1077,4.0247,3.9742,3.9309,3.8833,3.7961,3.735,3.6811,3.5987,3.5111,3.4467,3.4872,3.4127,3.2763,0.0,0.0,0.0,0.0,0.0,0.0,0.0,0.0,0.0,0.0,0.0,0.0,0.0,0.0,3.4276,3.5985,0.0,3.9038,4.159,4.3105,4.4233,4.5084,4.5548,4.5793,4.5749,4.5803,4.5858,4.5858,4.5933,4.6037,4.6089,4.6167,4.6223,4.6297,4.6295,4.6097,4.5668,4.4379,4.3481,4.3052,4.1743,4.1315,4.1745,4.1745,4.153,4.11,4.1142,4.046,3.9229,3.8782,3.81,3.7221,3.6362,3.6265,3.6655,3.6655,3.638,3.5949,3.5502,3.4526,3.3335,0.0,0.0,0.0,0.0,0.0,0.0,0.0,2.8403,2.8837,2.9875,3.0657,3.1718,3.3223,3.2676,3.1952,3.1403,3.0271,3.0544,3.2768,3.486,3.7536,4.0954,4.1207,4.1722,4.2752,4.1861,4.1283,4.1126,4.1114,4.1036,4.0869,4.0869,4.093,4.1,4.1165,4.1269,4.1396,4.2182,4.2131,4.1584,4.2275,4.212,4.1467,4.1199,4.0572,3.9814,3.9465,3.8433,3.7303,3.7666,3.6852,3.596,3.7356,3.6958,3.5514,3.3262,3.3737,0.0,0.0,0.0,0.0,0.0,0.0,0.0,0.0,3.4093,3.464,3.5687,3.604,3.7138,4.0447,4.0757,4.1628,4.5034,4.5175,4.5072,4.5736,4.5834,4.5848,4.5848,4.5902,4.5949,4.5969,4.6076,4.6132,4.6132,4.6235,4.6303,4.6303,4.6302,4.6301,4.6301,4.4778,4.3957,4.3957,4.3099,4.265,4.265,4.3353,4.3236,4.2397,4.2397,4.1577,4.0112,3.9976,3.9,3.7497,3.6794,3.6911,3.7556,3.7557,3.7127,3.6462,3.613,3.5114,3.3864,0.0,0.0,0.0,0.0,0.0,0.0,0.0,0.0,2.9956,3.1581,3.1891,3.2324,3.3299,3.2634,3.1208,2.8923,2.9254,3.0055,3.1109,3.4213,3.7533,4.0951,4.178,4.2907,4.4495,4.3534,4.2682,4.1975,4.1916,4.1503,4.0805,4.0805,4.0852,4.0945,4.1731,4.2104,4.2226,4.3026,4.3382,4.3395,4.3442,4.3406,4.3211,4.2425,4.1567,4.0553,3.9005,3.8312,3.7938,3.6484,3.5863,3.5728,3.5941,3.6387,3.6077,3.206,3.1575,3.1532,2.7927,2.9565,3.2454,3.2977,3.4347,3.6493,0.0,3.9876,3.9319,4.0904,4.1854,4.2294,4.2009,4.3147,4.4265,4.4749,4.5351,4.5796,4.5874,4.5949,4.598,4.598,4.6031,4.6089,4.6162,4.622,4.6288,4.6288,4.6288,4.6306,4.6306,4.6304,4.6301,4.6301,4.5364,4.4856,4.4856,4.3998,4.3549,4.3568,4.3646,4.3236,4.2397,4.2399,4.1873,4.0935,4.0214,3.9355,3.8457,3.8359,3.8379,3.8457,3.8457,3.8398,3.8125,3.6562,3.5879,3.5488,0.0,0.0,0.0,0.0,0.0,0.0,0.0,0.0,0.0,3.0542,3.0644,3.1152,3.2498,3.144,3.0012,2.8431,2.9092,3.0379,3.2233,3.5123,3.8288,4.1708,4.2092,4.282,4.401,4.3519,4.2833,4.1983,4.2463,4.2528,4.2189,4.2189,4.2257,4.2364,4.2736,4.2965,4.3108,4.3962,4.4079,4.3739,4.4178,4.4086,4.3557,4.2643,4.1733,4.0657,3.8401,3.73,0.0,3.6011,3.5109,3.4643,3.6647,3.6472,3.4997,3.2237,3.2353,3.3541,3.4096,3.4572,3.5475,3.7802,3.932,4.0562,4.1826,4.1554,4.1535,4.3255,4.3889,4.418,4.4283,4.4903,4.5556,4.608,4.6435,4.6667,4.6699,4.6741,4.6608,4.6176,4.6594,4.6726,4.6241,4.6265,4.6308,4.6308,4.6308,4.6308,4.6308,4.6308,4.6307,4.6307,4.5448,4.4999,4.4999,4.4647,4.4452,4.4452,4.4979,4.4492,4.3164,4.3164,4.2402,4.1054,4.0252,3.9685,3.9314,3.8806,3.8904,3.9353,3.9353,3.9646,3.9842,3.8144,3.6875,3.5898,0.0,0.0,0.0,0.0,0.0,0.0,0.0,0.0,0.0,0.0,2.9961,3.0332,3.1307,2.9897,2.8624,2.7996,2.8969,3.0489,3.2557,3.5369,3.8354,4.1514,4.1762,4.2442,4.3753,4.3608,4.3193,4.2583,4.322,4.3416,4.3209,4.3197,4.3246,4.3362,4.3627,4.3817,4.3992,4.4862,4.4921,4.4479,4.5045,4.4781,4.3921,4.2766,4.1485,3.9995,3.7618,3.6242,3.5418,3.466,3.3596,3.3013,3.5504,3.5131,3.3476,3.1782,3.2306,3.4031,3.6766,3.7655,3.8403,4.0888,4.2863,4.4003,4.3327,4.3361,4.3957,4.547,4.558,4.56,4.6187,4.609,4.6129,4.6769,4.7068,4.7162,4.6979,4.7185,4.7148,4.6629,4.6911,4.7028,4.6613,4.6621,4.6562,4.6328,4.6308,4.6308,4.6308,4.6308,4.6308,4.6308,4.5683,4.5351,4.5351,4.5351,4.5351,4.5371,4.5996,4.5389,4.3688,4.32,4.2281,4.1068,4.0482,4.0228,4.0189,3.9545,3.9662,4.0228,4.0228,4.0599,4.0951,3.9745,3.8202,3.6677,0.0,0.0,0.0,0.0,0.0,0.0,0.0,0.0,0.0,0.0,0.0,0.0,0.0,2.8121,2.7065,2.7037,2.8616,2.9963,3.082,3.4118,3.7166,3.9675,4.0462,4.1987,4.4427,4.4338,4.4284,4.4317,4.4355,4.3956,4.3204,4.3209,4.3204,4.325,4.4161,4.4635,4.4827,4.5682,4.6113,4.6222,4.6256,4.5745,4.4767,4.3042,4.0808,3.8339,3.6574,3.5376,3.424,3.1712,3.0827,3.0808,3.0905,3.1463,3.1725,2.9992,3.0118,3.1024,3.1969,3.5853,3.964,3.9757,4.2869,4.5919,4.588,4.654,4.739,4.8308,4.7817,4.7234,4.7254,4.6579,4.6016,4.6035,4.6746,4.7021,4.6251,4.6852,4.7411,4.7452,4.6797,4.6654,4.7473,4.7551,4.7219,4.6361,4.6302,4.6302,4.6302,4.6302,4.6302,4.6302,4.6263,4.6263,4.6263,4.6263,4.6263,4.6263,4.6283,4.5384,4.3645,4.1947,4.1147,4.1107,4.1068,4.1068,4.1068,4.1048,4.1048,4.1068,4.1068,4.1087,4.1087,4.1049,3.9955,3.8392,0.0,0.0,0.0,0.0,0.0,0.0,0.0,0.0,0.0,0.0,0.0,0.0,0.0,0.0,0.0,0.0,2.9045,2.9569,3.1537,3.3296,3.5389,3.7867,3.9792,4.1177,4.1957,4.2988,4.3517,4.3544,4.3544,4.3992,4.485,4.4268,4.4303,4.4874,4.5247,4.5454,4.5546,4.5942,4.6483,4.7009,4.5895,4.5947,4.622,4.1626,3.9338,3.7969,0.0,3.1462,3.0994,2.9522,2.9044,2.9238,3.0344,3.0538,3.0347,3.0322,3.1321,3.3105,3.6253,3.9225,4.1827,4.3462,4.5375,4.6851,4.6851,4.7084,4.755,4.8425,4.6094,4.4093,4.4676,4.4074,4.3671,4.4248,4.6005,4.7228,4.6997,4.7216,4.7228,4.6754,4.6979,4.7284,4.7575,4.7077,4.6614,4.6321,4.6301,4.6301,4.6301,4.6301,4.6301,4.6301,4.6301,4.6301,4.6301,4.6301,4.6009,4.5423,4.4268,4.3406,4.2801,4.1625,4.1097,4.1097,4.1097,4.1097,4.1097,4.1097,4.1094,4.1108,4.1108,4.1104,4.1099,4.1106,4.0385,3.9274,0.0,0.0,0.0,0.0,0.0,0.0,0.0,0.0,0.0,0.0,0.0,0.0,0.0,0.0,0.0,0.0,0.0,2.9562,3.151,3.2448,3.3891,3.609,3.7687,3.8766,3.929,4.0595,4.1423,4.1703,4.2019,4.289,4.4289,4.3766,4.4129,4.524,4.5306,4.5376,4.544,4.5554,4.5621,4.5513,4.416,4.3921,4.3882,3.9386,3.7099,0.0,3.1486,2.9578,2.8934,2.8074,2.7987,2.8474,2.9835,3.0338,3.0594,3.1442,3.312,3.5552,3.9546,4.1664,4.3296,4.552,4.6484,4.6985,4.7276,4.734,4.7577,4.8452,4.5701,4.3297,4.386,4.3258,4.2753,4.3005,4.5191,4.6781,4.6544,4.6776,4.6912,4.6775,4.6983,4.7256,4.7567,4.6817,4.6432,4.6744,4.6764,4.6627,4.6315,4.6296,4.6296,4.6296,4.6296,4.6296,4.6296,4.6296,4.5866,4.4987,4.3226,4.2403,4.2364,4.1498,4.1104,4.1103,4.1099,4.1097,4.1097,4.1097,4.1094,4.1107,4.1107,4.11,4.1093,4.1103,4.0541,3.9726,0.0,0.0,0.0,0.0,0.0,0.0,0.0,0.0,0.0,0.0,0.0,0.0,0.0,0.0,0.0,0.0,0.0,0.0,3.0739,3.157,3.273,3.431,3.4391,3.5101,3.6581,3.7452,3.8223,3.8935,3.98,4.0681,4.1538,4.1605,4.2514,4.4083,4.411,4.4156,4.4212,4.4236,4.3392,4.1973,4.1152,3.9939,3.8396,3.6518,3.4289,3.2041,3.1025,2.9653,2.8178,2.7389,2.7738,2.8657,2.9553,3.0969,3.2483,3.3371,3.5451,3.818,4.1473,4.3049,4.4137,4.579,4.6238,4.6468,4.7225,4.7408,4.765,4.8525,4.6489,4.4564,4.4666,4.3923,4.3044,4.2272,4.4362,4.5836,4.5063,4.5675,4.6523,4.7421,4.6791,4.6633,4.751,4.6846,4.6708,4.7528,4.7567,4.7178,4.6339,4.63,4.63,4.63,4.63,4.63,4.63,4.6261,4.5812,4.4971,4.3273,4.2433,4.2375,4.1546,4.1131,4.1092,4.1098,4.1093,4.1093,4.1093,4.1093,4.1093,4.1093,4.1091,4.1091,4.1093,4.0586,3.9867,0.0,0.0,0.0,0.0,0.0,0.0,0.0,0.0,0.0,0.0,0.0,0.0,0.0,0.0,0.0,0.0,0.0,0.0,3.0741,3.101,3.1563,3.2524,3.3786,3.4328,3.3987,3.5393,3.5918,3.5477,3.6298,3.7159,3.8,3.8015,3.8635,3.9681,3.9103,3.888,3.8899,3.8377,3.828,3.8429,3.7616,3.7812,3.8203,3.4491,3.3084,3.2713,2.9938,2.8664,2.8366,2.8746,2.9871,3.1505,3.3653,3.4646,3.5424,3.7535,3.9525,4.1395,4.2866,4.4384,4.5646,4.6089,4.6644,4.7147,4.7357,4.7408,4.7654,4.851,4.4585,4.14,4.27,4.1688,4.0818,4.1248,4.3961,4.5972,4.5826,4.5983,4.6232,4.6522,4.6366,4.6573,4.7442,4.7325,4.7289,4.7504,4.6973,4.6534,4.63,4.63,4.63,4.63,4.63,4.63,4.63,4.5668,4.5215,4.4998,4.3899,4.3036,4.2392,4.2176,4.1705,4.1098,4.1096,4.1093,4.1093,4.1093,4.1108,4.11,4.11,4.1092,4.1103,4.1095,4.0964,4.0769,0.0,0.0,0.0,0.0,0.0,0.0,0.0,0.0,0.0,0.0,0.0,0.0,0.0,0.0,0.0,0.0,0.0,0.0,0.0,3.0806,3.0977,3.1407,3.2333,3.2546,3.1956,3.3244,3.3643,3.3102,3.396,3.4821,3.5644,3.5682,3.6355,3.7537,3.6698,3.6371,3.638,3.5612,3.5355,0.0,0.0,3.4922,3.5488,3.2656,3.1875,3.2051,3.0136,3.0153,3.128,3.2503,3.4057,3.5749,3.7214,3.7936,3.8679,4.0867,4.2487,4.387,4.5464,4.634,4.6806,4.6811,4.6864,4.6624,4.5468,4.5475,4.554,4.4926,4.1772,3.9542,4.0906,4.0979,4.0883,4.0983,4.3856,4.5962,4.5613,4.5597,4.5778,4.6188,4.6249,4.6437,4.6937,4.695,4.6928,4.6928,4.6865,4.6679,4.6314,4.6271,4.6269,4.6294,4.6271,4.6267,4.6267,4.5382,4.4968,4.4948,4.4102,4.3241,4.2403,4.2398,4.1925,4.1106,4.1098,4.1095,4.1095,4.1095,4.1092,4.1103,4.1103,4.1097,4.1107,4.1065,4.1065,4.1042,0.0,0.0,0.0,0.0,0.0,0.0,0.0,0.0,0.0,0.0,3.0897,3.0894,0.0,0.0,0.0,0.0,0.0,0.0,0.0,0.0,3.0799,3.0808,3.0746,3.0609,3.0447,3.1297,3.1554,3.1214,3.2242,3.3059,3.3641,3.3819,3.4677,3.6028,3.5054,3.4651,3.4661,3.3724,3.2935,3.2265,3.1854,3.168,3.1621,0.0,3.0898,3.0898,3.0898,3.2616,3.5149,3.6883,3.8595,4.0034,4.0385,4.1088,4.2105,4.3743,4.4836,4.5987,4.8193,4.8213,4.7606,4.7606,4.6944,4.5615,4.299,4.3032,4.2894,4.0321,3.9065,3.8718,3.9695,4.1039,4.1822,4.1412,4.3985,4.5802,4.5162,4.5126,4.5448,4.6191,4.6286,4.6295,4.629,4.6225,4.6201,4.6201,4.6903,4.7028,4.6321,4.6233,4.6233,4.6282,4.6233,4.6206,4.6206,4.5443,4.5069,4.505,4.425,4.3392,4.2554,4.2443,4.1911,4.1092,4.1097,4.1107,4.1107,4.1107,4.1088,4.1081,4.1081,4.1003,4.0896,4.0844,4.0754,4.0653,0.0,0.0,0.0,0.0,0.0,0.0,0.0,0.0,0.0,0.0,3.0898,3.0893,0.0,0.0,0.0,0.0,0.0,0.0,0.0,0.0,0.0,3.0799,3.0731,3.0367,2.9627,3.0409,3.0114,2.864,3.0193,3.0686,3.0171,3.0912,3.1445,3.17,3.0104,2.9477,2.9489,2.7899,2.7155,2.7128,2.8457,2.8984,2.9121,3.041,0.0,0.0,3.0898,3.3006,3.6031,3.7781,3.9493,4.1244,4.3411,4.4699,4.5597,4.6612,4.751,4.8232,4.8681,4.8213,4.7606,4.7606,4.6944,4.5615,4.299,4.3064,4.2943,4.0335,3.9092,3.897,4.0552,4.053,4.0863,4.2822,4.4253,4.5316,4.5884,4.5972,4.606,4.6198,4.6229,4.6226,4.6216,4.6217,4.6206,4.6206,4.6342,4.6359,4.6228,4.6209,4.6209,4.6211,4.6209,4.6206,4.6206,4.6059,4.5975,4.5955,4.5102,4.4238,4.3377,4.2653,4.1873,4.1094,4.1091,0.0,4.1107,4.1107,4.1071,4.1023,4.1023,4.054,3.987,3.9842,3.9414,3.8948,0.0,0.0,0.0,0.0,0.0,0.0,0.0,3.0773,3.0846,3.0856,3.0879,3.0897,3.0892,3.0846,3.08,0.0,0.0,0.0,0.0,0.0,0.0,0.0,3.0772,3.0565,3.0141,3.0517,3.0279,2.9408,0.0,3.0445,3.0042,3.0484,3.0722,3.0686,2.8978,2.823,2.8188,2.6432,2.6226,2.7129,2.7969,2.8848,2.9746,0.0,0.0,0.0,3.2051,3.3554,3.5583,3.7338,3.9052,4.1077,4.4584,4.5968,4.6554,4.7842,4.8505,4.8896,4.9345,4.8857,4.8115,4.7703,4.6593,4.4697,4.1177,4.1039,4.0684,3.7182,3.6861,3.7581,3.8842,3.9472,4.005,4.0823,4.2829,4.4267,4.4228,4.4994,4.5738,4.6202,4.6211,4.6203,4.6191,4.6209,4.6199,4.6199,4.6199,4.6209,4.6195,4.6195,4.6192,4.6203,4.6203,4.6203,4.6203,4.6196,4.5975,4.553,4.5092,4.4208,4.2919,4.2491,4.1867,4.1107,4.1107,4.1078,4.1041,4.1041,4.1019,4.0943,4.0943,4.0678,4.0228,3.9777,3.936,3.901,0.0,0.0,0.0,0.0,0.0,0.0,3.0662,3.0743,3.0806,3.081,3.0857,3.0879,3.0896,3.085,3.0824,0.0,0.0,0.0,0.0,0.0,0.0,0.0,0.0,0.0,3.0804,0.0,0.0,3.0711,3.0767,0.0,0.0,0.0,0.0,0.0,2.904,2.8393,2.8467,2.671,2.6872,0.0,0.0,2.9512,0.0,0.0,0.0,0.0,0.0,3.3964,3.4979,3.6716,3.8219,3.9992,4.375,4.5308,4.5991,4.7317,4.8096,4.874,4.9597,4.9325,4.8603,4.7801,4.6435,4.4092,3.9558,3.932,3.8809,3.4314,3.4796,3.6259,3.7063,3.8333,3.9154,3.8824,4.1076,4.2895,4.2953,4.4147,4.5452,4.6698,4.6619,4.6489,4.6472,4.632,4.6199,4.6199,4.6199,4.6203,4.62,4.62,4.6193,4.6199,4.6199,4.6199,4.6199,4.6004,4.5576,4.4894,4.4523,4.3624,4.2296,4.2114,4.1682,4.1078,4.1052,4.103,4.098,4.098,4.0837,4.0621,4.0621,4.0383,3.9981,3.9474,3.9187,3.8944,0.0,0.0,0.0,0.0,0.0,0.0,3.061,3.0714,3.0808,3.0801,3.0808,3.0838,3.0898,3.0897,3.0894,0.0,0.0,0.0,0.0,0.0,0.0,0.0,0.0,0.0,0.0,0.0,0.0,3.0795,3.0791,0.0,0.0,0.0,0.0,0.0,0.0,2.8731,2.937,2.7613,0.0,0.0,0.0,0.0,0.0,0.0,0.0,0.0,0.0,3.3965,3.4961,3.6717,3.742,3.7887,3.9856,4.2076,4.3967,4.4121,4.5854,4.7899,4.8701,4.8857,4.8603,4.7801,4.6885,4.4854,3.9753,3.9827,3.9531,3.4449,3.4796,3.6261,3.7131,3.7425,3.7995,3.9445,3.9954,4.1243,4.4327,4.4893,4.5887,4.8297,4.7865,4.738,4.7385,4.6667,4.6199,4.6199,4.6199,4.6199,4.6199,4.6199,4.6199,4.6199,4.6199,4.6199,4.6199,4.542,4.4972,4.4874,4.3293,4.2452,4.2276,4.1485,4.1077,4.1019,4.0939,4.0917,0.0,4.0912,4.0442,3.9717,3.9717,3.8717,3.7345,3.8069,3.7837,3.7257,0.0,0.0,0.0,0.0,0.0,0.0,3.0595,3.0688,3.0757,3.0784,3.0838,3.0874,3.0897,3.0898,3.0898,3.0895,0.0,0.0,0.0,0.0,0.0,0.0,0.0,0.0,0.0,0.0,3.0807,3.0807,3.08,0.0,0.0,0.0,0.0,0.0,0.0,2.9289,2.9529,2.8299,0.0,0.0,0.0,0.0,0.0,0.0,0.0,0.0,0.0,0.0,3.4883,3.6113,3.6523,3.6543,3.6718,3.7829,3.9681,4.2796,4.4432,4.5679,4.7569,4.8076,4.7861,4.7022,4.5773,4.3782,4.0148,3.9463,3.8566,3.4932,3.5145,3.612,3.645,3.6528,3.6567,3.6701,3.7604,3.8954,4.0828,4.2432,4.419,4.6205,4.6613,4.6716,4.6716,4.6394,4.6199,4.6199,4.6199,4.6199,4.6199,4.6199,4.6199,4.6199,4.6199,4.6199,4.6199,4.5342,4.488,4.4838,4.3604,4.3023,4.3013,4.2665,4.2213,4.1727,4.1689,4.1354,0.0,4.0839,4.0638,4.0272,3.9735,3.9098,3.8379,3.7677,3.7193,3.6884,0.0,0.0,0.0,0.0,0.0,3.0574,3.0565,3.0633,3.0691,3.0755,3.0838,3.0883,3.0894,3.0896,3.0898,3.0897,3.0897,0.0,0.0,0.0,0.0,0.0,0.0,0.0,0.0,0.0,3.0834,3.0834,3.083,3.0827,0.0,0.0,3.0832,3.0794,0.0,0.0,0.0,0.0,0.0,0.0,0.0,0.0,0.0,0.0,0.0,0.0,0.0,0.0,0.0,0.0,0.0,3.5507,3.4883,3.4941,3.615,4.0811,4.2543,4.3495,4.6128,4.7217,4.7391,4.6515,4.4795,4.2705,4.0343,3.8956,3.751,3.5188,3.5381,3.6004,3.6001,3.5999,3.5804,3.5176,3.6332,3.7665,3.874,4.0695,4.2645,4.4334,4.5092,4.5549,4.5794,4.6053,4.6196,4.6199,4.6199,4.6199,4.6199,4.6199,4.6192,4.6162,4.6162,4.6154,4.6142,4.5286,4.4822,4.4753,4.3908,4.3496,4.3495,4.3479,4.2989,4.2179,4.2144,4.1632,0.0,4.0804,4.0639,4.0352,3.9733,3.9346,3.8998,3.8025,3.7677,3.758,0.0,0.0,0.0,0.0,0.0,0.0,3.0504,3.0568,3.063,3.0688,3.075,3.082,3.0892,3.0894,3.0896,3.0898,3.0898,0.0,0.0,0.0,0.0,0.0,0.0,0.0,0.0,0.0,3.0898,3.0898,3.0898,3.0897,3.0897,3.0895,3.0895,3.0858,0.0,0.0,0.0,0.0,0.0,0.0,0.0,0.0,0.0,0.0,0.0,0.0,0.0,0.0,0.0,0.0,0.0,0.0,0.0,3.4101,3.412,3.7615,3.9836,4.1702,4.4319,4.6285,4.7391,4.6515,4.4343,4.1954,4.0198,3.8454,3.6748,3.5051,3.5381,3.6007,3.5997,3.5999,3.6002,3.5991,3.6734,3.7887,3.9546,4.0542,4.1763,4.3515,4.3729,4.4034,4.4832,4.5693,4.6192,4.6203,4.6199,4.6199,4.6199,4.6199,4.6162,4.6098,4.6098,4.6075,4.6002,4.5147,4.4695,4.4695,4.3869,4.3495,4.3495,4.3422,4.2933,4.21,4.2041,4.1551,0.0,4.0797,4.0294,3.9501,3.9501,3.8972,3.8309,3.9152,3.9462,3.9462,0.0,0.0,0.0,0.0,0.0,0.0,3.0504,3.0559,3.0617,3.0637,3.0658,3.0692,3.0752,3.0754,3.0765,3.0765,3.0854,0.0,0.0,0.0,0.0,0.0,0.0,0.0,0.0,3.0898,3.0897,3.0897,3.0897,3.0897,3.0917,3.1464,3.1425,3.0917,3.1189,3.1169,0.0,0.0,0.0,0.0,0.0,0.0,3.562,0.0,0.0,0.0,0.0,0.0,0.0,0.0,0.0,0.0,0.0,0.0,0.0,3.7047,3.7669,3.8309,4.1465,4.23,4.2357,4.2669,4.1688,4.0315,3.9162,3.8024,3.6885,3.581,3.581,3.6005,3.6009,3.5995,3.6372,3.7526,3.7982,3.8572,3.9644,4.1576,4.2855,4.2811,4.4354,4.5515,4.5751,4.6037,4.6192,4.6203,4.6154,4.6138,4.6138,4.6089,4.608,4.6098,4.6098,4.6075,4.6002,4.5142,4.4985,4.5508,4.4707,4.4581,4.5067,4.5047,4.4266,4.2925,4.2905,4.2086,4.0797,4.0797,4.0642,4.0332,3.9733,3.9327,3.9056,3.8721,3.8605,3.8605,0.0,0.0,0.0,0.0,0.0,0.0,3.0466,3.05,3.053,3.0563,3.0571,3.0621,3.0652,3.0681,3.0692,3.0699,3.0771,0.0,0.0,0.0,0.0,0.0,0.0,0.0,3.0824,3.0824,3.0823,3.082,3.082,3.082,3.0839,3.1346,3.1308,3.0859,3.1343,3.1283,0.0,0.0,0.0,0.0,0.0,0.0,3.5924,0.0,0.0,0.0,0.0,0.0,0.0,0.0,0.0,0.0,0.0,0.0,0.0,0.0,3.6184,3.6182,3.9319,3.9978,3.9937,4.0464,3.9483,3.8383,3.8479,3.734,3.6202,3.6044,3.6005,3.6005,3.6009,3.5995,3.6332,3.739,3.8391,3.9118,3.9312,4.1576,4.301,4.2459,4.4082,4.5389,4.5716,4.6002,4.6158,4.6164,4.6106,4.6071,4.6071,4.6017,4.6007,4.6022,4.6022,4.5991,4.5935,4.5386,4.5368,4.5854,4.5357,4.5357,4.5787,4.549,4.4601,4.3285,4.2957,4.2048,0.0,4.0797,4.0797,4.0758,4.0197,3.9984,3.9926,3.9379,3.9185,3.9185,0.0,0.0,0.0,0.0,0.0,0.0,0.0,3.0389,3.0419,3.0477,3.0549,3.0582,3.0584,3.0643,3.0697,3.0695,3.0691,0.0,0.0,0.0,0.0,0.0,0.0,0.0,3.0709,3.0709,3.0709,3.0706,3.0706,3.0706,3.0706,3.0765,3.0765,3.0706,3.075,3.0764,0.0,0.0,0.0,0.0,0.0,0.0,0.0,0.0,0.0,0.0,0.0,0.0,0.0,0.0,0.0,0.0,0.0,0.0,0.0,0.0,0.0,0.0,0.0,3.8867,3.9449,3.9507,3.7746,3.6412,3.7972,3.6481,0.0,3.583,3.6005,3.6007,3.5997,3.5999,3.6041,3.6166,3.8277,3.9626,3.8884,4.0914,4.2483,4.2496,4.3327,4.4153,4.4835,4.5644,4.611,4.6112,4.6054,4.6012,4.6007,4.6002,4.5969,4.5905,4.5886,4.5854,4.5807,4.5807,4.5807,4.5807,4.5807,4.5768,4.5691,4.4949,4.4091,0.0,4.2357,4.1545,4.0797,4.0797,4.0797,4.0797,4.0797,4.0797,4.0797,4.0797,4.0797,4.0797,0.0,0.0,0.0,0.0,0.0,0.0,0.0,0.0,0.0,0.0,3.0436,3.0469,3.0525,3.0535,3.0573,0.0,0.0,0.0,0.0,0.0,0.0,0.0,0.0,0.0,3.0694,3.0694,3.0706,3.0695,3.0695,3.0695,3.0714,3.1379,3.134,3.0734,3.1396,3.1315,0.0,0.0,0.0,0.0,0.0,0.0,0.0,0.0,0.0,0.0,3.49,3.4491,0.0,0.0,0.0,0.0,0.0,0.0,0.0,0.0,3.5846,3.5683,3.5627,0.0,3.6052,3.6734,3.6437,3.6098,0.0,3.6128,3.5752,3.5966,3.6005,3.6005,3.6007,3.5995,3.643,3.77,3.9528,4.0726,4.0543,4.2187,4.3383,4.3386,4.4755,4.5251,4.4118,4.5366,4.6238,4.6171,4.6159,4.6111,4.6007,4.6003,4.5953,4.5834,4.5808,4.5821,4.5807,4.5807,4.5807,4.5807,4.5807,4.5471,4.4891,4.469,4.3769,4.2299,4.2086,4.1545,4.0797,4.0797,4.0797,4.0797,4.0797,4.0797,4.0797,4.0797,4.0797,4.0797,0.0,0.0,0.0,0.0,0.0,0.0,0.0,0.0,0.0,0.0,3.0404,3.0416,3.0455,3.0453,3.0474,0.0,0.0,0.0,0.0,0.0,0.0,0.0,0.0,3.0658,3.0648,3.0648,3.0641,3.0649,3.0649,3.0642,3.0614,3.1084,3.1061,3.0622,3.1092,3.1053,0.0,0.0,0.0,0.0,3.4544,0.0,0.0,0.0,0.0,0.0,3.4105,3.3665,0.0,3.2923,3.3362,3.4062,0.0,0.0,0.0,0.0,3.6009,3.5908,3.542,3.4708,3.4305,3.5183,3.5103,3.5025,3.5823,3.5999,3.5999,3.5999,3.5999,3.6001,3.6006,3.6337,3.675,3.7265,3.9806,4.1974,4.2773,4.3012,4.3406,4.4207,4.5128,4.5484,4.4941,4.572,4.6239,4.6204,4.6172,4.6112,4.6049,4.6022,4.5969,4.5886,4.5822,4.5807,4.5807,4.5432,4.5258,4.5239,4.4833,4.4427,4.4001,4.3595,4.2899,4.197,4.1603,4.1203,4.0797,4.0797,4.0797,4.0797,4.0797,4.0797,4.0797,4.0797,4.0797,4.0797,0.0,0.0,0.0,0.0,0.0,0.0,0.0,0.0,0.0,0.0,0.0,0.0,0.0,0.0,0.0,0.0,0.0,0.0,0.0,0.0,0.0,0.0,3.0588,3.0574,3.0574,3.0588,3.0588,3.0574,3.0574,3.0559,3.0496,3.0496,3.0505,3.0504,3.0504,3.0562,3.0769,0.0,0.0,0.0,3.5039,0.0,0.0,0.0,0.0,0.0,0.0,0.0,0.0,3.2116,3.2437,3.3134,3.3339,0.0,0.0,0.0,0.0,0.0,3.5823,3.4813,3.3957,3.4718,3.424,3.4012,3.563,3.6006,3.5992,3.5992,3.5992,3.6073,3.6355,3.6781,3.6996,3.6654,3.9869,4.3066,4.4926,4.4033,4.3587,4.4662,4.5151,4.5523,4.5877,4.6091,4.6217,4.621,4.6158,4.6128,4.6118,4.6059,4.6017,4.6002,4.588,4.5807,4.5807,4.5007,4.4594,4.4594,4.373,4.3227,4.3073,4.2338,4.1932,4.1777,4.1106,0.0,4.0797,4.0797,4.0797,4.0797,4.0797,4.0797,4.0797,4.0797,4.0797,4.0797,0.0,0.0,0.0,0.0,0.0,0.0,0.0,0.0,0.0,0.0,0.0,0.0,0.0,0.0,0.0,0.0,0.0,0.0,0.0,0.0,0.0,3.0514,3.051,3.052,3.052,3.0525,3.0525,3.052,3.052,3.052,3.0496,3.0496,3.0505,3.0504,3.0504,3.0884,3.1587,3.2582,0.0,0.0,3.521,0.0,0.0,0.0,0.0,0.0,0.0,0.0,0.0,3.0994,3.1536,3.2333,3.3142,0.0,0.0,0.0,0.0,0.0,3.502,3.5164,3.5563,3.575,3.5155,3.4752,3.5765,3.6006,3.5992,3.5992,3.5992,3.6444,3.7937,3.7098,3.6884,3.896,4.1048,4.3273,4.5754,4.6519,4.6072,4.4138,4.5859,4.6386,4.4297,4.5429,4.6289,4.6288,4.6287,4.6241,4.6195,4.6122,4.6067,4.6002,4.588,4.5807,4.5807,4.5007,4.4594,4.4594,4.373,4.2918,4.2202,4.2067,4.1622,4.099,0.0,4.0797,4.0797,4.0797,4.0797,4.0797,4.0797,4.0797,4.0797,4.0797,4.0797,4.0797,0.0,0.0,0.0,0.0,0.0,0.0,0.0,0.0,0.0,0.0,0.0,0.0,0.0,0.0,0.0,0.0,0.0,0.0,0.0,0.0,3.0419,3.0431,3.0411,3.0433,3.0495,3.0509,3.0509,3.05,3.05,3.049,3.0455,3.0453,3.0442,3.045,3.045,3.0912,3.1754,3.2588,3.3447,0.0,0.0,0.0,0.0,0.0,0.0,0.0,0.0,0.0,0.0,0.0,3.0986,3.1466,3.24,0.0,0.0,0.0,0.0,0.0,3.5404,3.5251,3.5532,3.6989,3.6711,3.6313,3.7152,3.7725,3.7926,3.7497,3.7774,3.8345,3.9151,3.8995,3.9602,4.222,4.2516,4.3143,4.5309,4.5545,4.5214,4.4492,4.5469,4.5918,4.5176,4.582,4.6308,4.6308,4.6308,4.6289,4.6264,4.6197,4.6139,4.6109,4.5973,4.5917,4.5917,4.4563,4.3904,4.3885,4.3015,4.2164,4.1351,4.1351,4.1145,4.0797,0.0,4.0797,4.0797,4.0797,4.0797,4.0797,4.0797,4.0797,4.0797,4.0797,4.0797,4.0732,0.0,0.0,0.0,0.0,0.0,0.0,0.0,0.0,0.0,0.0,0.0,0.0,0.0,0.0,0.0,0.0,0.0,0.0,0.0,3.0292,3.0323,3.0361,3.0323,3.0354,3.0453,3.0447,3.0543,3.0761,3.0549,3.0422,3.0375,3.0385,3.0373,3.0373,3.0379,3.0981,3.2025,3.2641,3.3526,0.0,0.0,0.0,0.0,0.0,0.0,0.0,0.0,0.0,0.0,0.0,0.0,0.0,0.0,0.0,0.0,3.414,3.4976,3.5561,3.5376,3.5278,3.5753,3.7947,3.7882,3.7599,3.883,3.9637,3.9937,3.9313,3.9729,4.0243,4.0442,4.1167,4.2301,4.4096,4.3788,4.3789,4.5116,4.5078,4.5019,4.5273,4.5488,4.5781,4.6269,4.6308,4.6308,4.6308,4.6308,4.6308,4.6308,4.6239,4.6202,4.6202,4.6084,4.593,4.571,4.4509,4.3724,4.3285,4.2415,4.168,4.1087,4.1087,4.1087,4.1067,4.0874,4.0797,4.0797,4.0797,4.0797,4.0797,4.0797,4.0797,4.0797,4.0797,4.0797,4.0694,0.0,0.0,0.0,0.0,0.0,0.0,0.0,0.0,0.0,0.0,0.0,0.0,0.0,0.0,0.0,0.0,0.0,0.0,0.0,3.0292,3.0292,3.0318,3.0292,3.0292,3.0316,3.0305,3.0702,3.152,3.072,3.0316,3.0316,3.031,3.031,3.031,3.0373,3.1308,3.2814,3.2872,3.3872,3.5411,3.5468,0.0,0.0,0.0,0.0,0.0,0.0,0.0,0.0,0.0,0.0,0.0,0.0,0.0,3.2356,3.3232,3.4111,3.4601,3.3801,3.5311,3.7326,3.8264,3.7849,3.7864,4.035,4.0964,4.0992,4.0934,4.098,4.1259,4.2064,4.2928,4.33,4.2694,4.4511,4.6054,4.619,4.7558,4.7949,4.6387,4.6914,4.7129,4.6367,4.6308,4.6308,4.6308,4.6308,4.6308,4.6308,4.6239,4.6202,4.6202,4.6131,4.5667,4.4792,4.5467,4.496,4.3285,4.2415,4.197,4.1912,4.1912,4.1912,4.1874,4.1126,4.0797,4.0797,4.0797,4.0797,4.0797,4.0797,4.0797,4.0797,4.0797,4.0797,4.0771,0.0,0.0,0.0,0.0,0.0,0.0,0.0,0.0,0.0,0.0,0.0,0.0,0.0,0.0,0.0,0.0,0.0,0.0,0.0,3.0245,3.0245,3.0245,3.0245,3.0233,3.0234,3.0279,3.0471,3.0785,3.0465,3.0292,3.0292,3.0292,3.0305,3.031,3.0336,3.1007,3.2199,3.2699,3.3583,3.4737,3.5269,3.4654,0.0,0.0,0.0,0.0,0.0,0.0,0.0,0.0,3.0722,3.0918,3.1815,3.2467,3.2973,3.3301,3.4394,3.5311,3.4449,3.5697,3.7693,3.963,4.0278,4.0828,4.2371,4.2726,4.2711,4.2716,4.3152,4.345,4.3241,4.4355,4.5039,4.416,4.5762,4.6914,4.6386,4.7324,4.7656,4.6445,4.6582,4.666,4.6328,4.6308,4.6308,4.6308,4.6308,4.6308,4.6308,4.6287,4.6265,4.6265,4.62,4.5991,4.5637,4.5383,4.4915,4.4234,4.3813,4.2802,4.1327,4.1795,4.1738,4.1235,4.0932,4.0797,4.0797,4.0797,4.0797,4.0797,4.0797,4.0797,4.0797,4.0797,4.0759,4.0733,0.0,0.0,0.0,0.0,0.0,0.0,0.0,0.0,0.0,0.0,0.0,0.0,0.0,0.0,0.0,0.0,0.0,0.0,3.0211,3.0211,3.0211,3.0211,3.0211,3.0211,3.0211,3.0233,3.0394,3.0681,3.0681,3.0547,3.0279,3.0266,3.0267,3.0273,3.0286,3.0803,3.1706,3.2257,3.2994,3.384,3.4442,3.3814,0.0,0.0,0.0,0.0,0.0,0.0,0.0,0.0,3.0734,3.0873,3.1484,3.2097,3.2627,3.2918,3.403,3.5105,3.4788,3.5742,3.7441,4.0044,4.1143,4.2027,4.3728,4.4314,4.451,4.4516,4.4776,4.4821,4.4219,4.5098,4.5683,4.5098,4.6465,4.7305,4.6426,4.7051,4.7285,4.6406,4.6308,4.6308,4.6308,4.6308,4.6308,4.6308,4.6308,4.6308,4.6308,4.6308,4.6308,4.6308,4.6264,4.6096,4.5794,4.5141,4.4557,4.4011,4.4176,4.3368,4.173,4.197,4.1759,4.1236,4.0951,4.0837,4.0831,4.0809,4.0797,4.0797,4.0797,4.0797,4.0797,4.0797,4.0752,4.0694,0.0,0.0,0.0,0.0,0.0,0.0,0.0,0.0,0.0,0.0,0.0,0.0,0.0,0.0,0.0,0.0,0.0,0.0,3.0211,3.0211,3.0211,3.0211,3.0211,3.0211,3.0211,3.0211,3.0624,3.1484,3.1484,3.1045,3.0211,3.02,3.0188,3.0195,3.0273,3.0772,3.159,3.1604,3.2097,3.2897,3.2897,3.2429,3.1698,0.0,0.0,0.0,0.0,0.0,0.0,0.0,3.0706,3.0714,3.0788,3.0804,3.0987,3.1864,3.2727,3.3591,3.4471,3.5349,3.6617,3.9175,3.9819,4.0738,4.4222,4.5668,4.6293,4.6293,4.5619,4.5018,4.5,4.5019,4.5019,4.5,4.6465,4.7285,4.6426,4.7031,4.7266,4.6406,4.6308,4.6308,4.6308,4.6308,4.6308,4.6308,4.6308,4.6308,4.6308,4.6308,4.6308,4.6308,4.6289,4.5838,4.4901,4.4896,4.4016,4.2321,4.3106,4.3484,4.3452,4.2591,4.2198,4.2137,4.1278,4.0907,4.0903,4.0831,4.0797,4.0797,4.0797,4.0797,4.0797,4.0797,4.0752,4.0694,0.0,0.0,0.0,0.0,0.0,0.0,0.0,0.0,0.0,0.0,0.0,0.0,0.0,0.0,0.0,0.0,0.0,0.0,3.1102,3.0529,3.0211,3.0211,3.0211,3.0211,3.0211,3.0211,3.0326,3.0586,3.0586,3.0452,3.0211,3.0199,3.0194,3.0188,3.0221,3.04,3.0733,3.1347,3.1757,3.2045,3.2647,3.2398,3.1635,0.0,0.0,0.0,0.0,0.0,0.0,0.0,0.0,0.0,3.1506,3.1712,3.1895,3.2762,3.3626,3.4374,3.4627,3.5779,3.7536,4.0073,4.1175,4.2372,4.5259,4.5648,4.5553,4.6166,4.6092,4.5722,4.5117,4.5508,4.5703,4.5098,4.5957,4.6601,4.6348,4.6523,4.6582,4.6328,4.6308,4.6308,4.6308,4.6308,4.6308,4.6308,4.6308,4.6308,4.6308,4.6308,4.6308,4.6308,4.5703,4.5254,4.4979,4.4353,4.3806,4.3279,4.2903,4.2402,4.1811,4.2084,4.1887,4.1341,4.1087,4.0979,4.0972,4.0903,4.0834,4.0797,4.0797,4.0797,4.0797,4.0797,4.0739,4.0628,0.0,0.0,0.0,0.0,0.0,0.0,0.0,0.0,0.0,0.0,3.0087,3.0419,0.0,0.0,0.0,0.0,0.0,0.0,3.1401,3.091,3.0638,3.0686,3.0336,3.0171,3.0204,3.051,3.051,3.0211,3.0211,3.0211,3.0211,3.0529,3.0498,3.0213,3.0538,3.0513,3.0291,3.0822,3.1039,3.1078,3.1635,3.1546,3.1079,0.0,0.0,0.0,0.0,0.0,0.0,0.0,0.0,0.0,3.1926,3.2095,3.234,3.3558,3.4288,3.4998,3.6364,3.7009,3.7986,4.0897,4.2018,4.3078,4.5694,4.5889,4.5677,4.6189,4.6308,4.6133,4.5605,4.5957,4.6133,4.5605,4.5957,4.6308,4.6308,4.6308,4.6308,4.6308,4.6308,4.6308,4.6308,4.6308,4.6308,4.6308,4.6308,4.6308,4.6308,4.6308,4.6308,4.6308,4.5449,4.5,4.5,4.3789,4.3183,4.3164,4.2324,4.1659,4.1143,4.1594,4.1544,4.1076,4.1057,4.1017,4.1007,4.0964,4.0911,4.0873,4.0846,4.0848,4.0823,4.0777,4.07,4.0607,0.0,0.0,0.0,0.0,0.0,0.0,0.0,0.0,0.0,0.0,3.022,3.0616,0.0,0.0,0.0,0.0,0.0,0.0,0.0,3.1361,3.1313,3.1386,3.0643,3.0257,3.0319,3.1026,3.1045,3.0326,3.0249,3.0211,3.023,3.1026,3.1026,3.0338,3.1064,3.1006,3.0307,3.0232,3.0207,3.0207,3.0266,3.0286,3.0304,3.0304,0.0,0.0,0.0,0.0,0.0,0.0,0.0,0.0,3.2092,3.2108,3.2436,3.4098,3.4578,3.531,3.8669,3.8513,3.8222,4.1568,4.2584,4.3389,4.5759,4.6307,4.6307,4.6307,4.6308,4.6308,4.6308,4.6308,4.6308,4.6308,4.6308,4.6308,4.6308,4.6308,4.6308,4.6308,4.6308,4.6308,4.6308,4.6308,4.6308,4.6308,4.6308,4.6308,4.6308,4.6308,4.6269,4.6172,4.5332,4.4844,4.4766,4.3125,4.2285,4.2285,4.1543,4.1191,4.1191,4.1191,4.1191,4.1191,4.1142,4.1072,4.1,4.1,4.1016,4.0984,4.0924,4.0907,4.0874,4.0764,4.0661,4.0607,0.0,0.0,0.0,0.0,0.0,0.0,0.0,0.0,0.0,0.0,0.0,0.0,0.0,0.0,0.0,0.0,0.0,0.0,0.0,3.1969,3.1246,3.1324,3.118,3.1134,3.1142,3.1355,3.1389,3.1217,3.0529,3.0211,3.023,3.1083,3.1369,3.1159,3.1324,3.1331,3.1178,3.0479,3.0199,3.0199,3.0214,3.0247,3.0305,3.0298,3.0342,0.0,0.0,0.0,0.0,0.0,0.0,0.0,3.2092,3.2108,3.2319,3.3374,3.3679,3.4297,3.7075,3.8073,3.8973,4.1711,4.394,4.5603,4.6172,4.6308,4.6308,4.6308,4.6308,4.6308,4.6308,4.6308,4.6308,4.6308,4.6308,4.6308,4.6308,4.6308,4.6308,4.6308,4.6308,4.6308,4.6308,4.6308,4.6308,4.6308,4.6308,4.6308,4.6308,4.6308,4.5996,4.5293,4.4433,4.3652,4.2969,4.1953,4.1465,4.1465,4.1289,4.1191,4.1191,4.1191,4.1191,4.1191,4.1171,4.1143,4.1078,4.1078,4.1054,4.0984,4.0924,4.0907,4.0893,4.0814,4.0739,4.0661,0.0,0.0,0.0,0.0,0.0,0.0,0.0,0.0,0.0,0.0,0.0,0.0,0.0,0.0,0.0,0.0,0.0,0.0,0.0,0.0,3.2142,3.1779,3.2642,3.2542,3.1324,3.1779,3.1619,3.0825,3.0827,3.0605,3.023,3.1484,3.1637,3.0854,3.1668,3.1591,3.0854,3.0395,3.0211,3.0211,3.0206,3.0214,3.0266,3.0286,3.0317,3.0359,3.046,0.0,0.0,0.0,0.0,0.0,0.0,0.0,3.2886,3.3771,3.4311,3.5297,3.8291,3.8877,3.9309,4.2281,4.4666,4.6308,4.6308,4.6308,4.6308,4.6308,4.6308,4.6308,4.6308,4.6308,4.6308,4.6308,4.6308,4.6308,4.6308,4.6308,4.6308,4.6308,4.6308,4.6308,4.6308,4.6308,4.6308,4.6308,4.6308,4.6308,4.6308,4.5898,4.5469,4.5019,4.375,4.2851,4.2402,4.1601,4.1191,4.1191,4.1191,4.1191,4.1191,4.1191,4.1191,4.1191,4.1191,4.1171,4.1146,4.1146,4.1139,4.1081,4.1014,4.099,4.0981,4.0887,4.0835,4.077,0.0,0.0,0.0,0.0,0.0,0.0,0.0,0.0,0.0,0.0,0.0,0.0,0.0,0.0,0.0,0.0,0.0,0.0,0.0,0.0,0.0,3.2317,3.3875,3.3769,3.1655,3.2232,3.1957,3.0727,3.1211,3.1164,3.0636,3.205,3.1954,3.0682,3.1935,3.1725,3.0414,3.0261,3.0211,3.0211,3.0211,3.0206,3.0214,3.0266,3.0286,3.0322,3.0436,3.0989,3.168,3.1928,0.0,0.0,0.0,0.0,3.3534,3.4267,3.5098,3.6513,3.9954,4.0209,4.0231,4.3377,4.5117,4.6113,4.6269,4.6308,4.6308,4.6308,4.6308,4.6308,4.6308,4.6308,4.6308,4.6308,4.6308,4.6308,4.6308,4.6308,4.6308,4.6308,4.6308,4.6308,4.6308,4.6308,4.6308,4.6308,4.6308,4.623,4.6074,4.5391,4.4863,4.4551,4.3144,4.2324,4.2187,4.1523,4.1191,4.1191,4.1191,4.1191,4.1191,4.1191,4.1191,4.1191,4.1191,4.1191,4.1191,4.1191,4.1191,4.1191,4.1139,4.1109,4.1085,4.0964,4.0912,4.0878,0.0,0.0,0.0,0.0,0.0,0.0,0.0,0.0,0.0,0.0,3.3855,0.0,0.0,0.0,0.0,0.0,0.0,0.0,0.0,0.0,0.0,3.225,3.3223,3.3639,3.3289,3.272,3.2697,3.3215,3.1952,3.1641,3.2294,3.2562,3.2585,3.2355,3.1859,3.1541,3.1274,3.051,3.0211,3.0211,3.0211,3.0206,3.0188,3.0214,3.0248,3.0303,3.0395,3.0525,3.083,3.17,3.2013,0.0,0.0,0.0,3.3417,3.3532,3.4183,3.5635,3.9118,4.1503,4.3496,4.5469,4.5566,4.5371,4.6133,4.6308,4.6308,4.6308,4.6308,4.6308,4.6308,4.6308,4.6308,4.6308,4.6308,4.6308,4.6308,4.6308,4.6308,4.6308,4.6308,4.6308,4.6308,4.6308,4.6308,4.6308,4.6308,4.5976,4.5215,4.5058,4.4316,4.2793,4.2519,4.207,4.1367,4.125,4.1191,4.1191,4.1191,4.1191,4.1191,4.1191,4.1191,4.1191,4.1191,4.1191,4.1191,4.1191,4.1191,4.1191,4.1139,4.1109,4.1085,4.1014,4.0942,4.0905,0.0,0.0,0.0,0.0,0.0,0.0,0.0,0.0,0.0,0.0,0.0,3.4305,0.0,0.0,0.0,0.0,0.0,0.0,0.0,0.0,0.0,3.3563,3.3983,3.3986,3.3505,3.3214,3.3014,3.2919,3.2726,3.2845,3.3211,3.3246,3.3067,3.268,3.2336,3.1916,3.1446,3.0567,3.0211,3.0211,3.0211,3.0479,3.0875,3.0392,3.0521,3.0912,3.0494,3.0389,3.0515,3.1045,3.1245,3.1287,3.1354,0.0,0.0,0.0,3.3622,3.5463,3.8944,4.2129,4.4609,4.5371,4.5644,4.582,4.6211,4.6308,4.6308,4.6308,4.6308,4.6308,4.6308,4.6308,4.6308,4.6308,4.6308,4.6308,4.6308,4.6308,4.6308,4.6308,4.6308,4.6308,4.6308,4.6308,4.6308,4.6308,4.5859,4.5391,4.5019,4.4062,4.3183,4.2422,4.1953,4.1562,4.1191,4.1191,4.1191,4.1191,4.1191,4.1191,4.1191,4.1191,4.1191,4.1191,4.1191,4.1191,4.1191,4.1191,4.1191,4.1191,4.1169,4.1167,4.1147,4.1117,4.1091,4.1065,0.0,0.0,0.0,0.0,0.0,0.0,0.0,0.0,0.0,0.0,0.0,0.0,0.0,0.0,0.0,0.0,0.0,0.0,0.0,0.0,0.0,3.4612,3.4645,3.4365,3.3715,3.3589,3.3336,3.2912,3.3412,3.3799,3.4015,3.4042,3.3798,3.3279,3.2657,3.2042,3.1427,3.0567,3.0211,3.023,3.0433,3.0911,3.1427,3.099,3.1259,3.1721,3.0893,3.0642,3.0695,3.0601,3.063,3.0694,3.0772,3.1402,0.0,0.0,0.0,3.5642,3.8476,4.1269,4.3574,4.4453,4.498,4.5488,4.6152,4.6308,4.6308,4.6308,4.6308,4.6308,4.6308,4.6308,4.6308,4.6308,4.6308,4.6308,4.6308,4.6308,4.6308,4.6308,4.6308,4.6308,4.6308,4.6094,4.5976,4.5976,4.5156,4.457,4.4355,4.3105,4.2305,4.2109,4.1504,4.1191,4.1191,4.1191,4.1191,4.1191,4.1191,4.1191,4.1191,4.1191,4.1191,4.1191,4.1191,4.1191,4.1191,4.1191,4.1191,4.1191,4.1191,4.1191,4.1191,4.1191,4.1191,4.1152,0.0,0.0,0.0,0.0,0.0,0.0,0.0,0.0,0.0,0.0,0.0,0.0,3.4281,3.4255,3.4295,3.4494,3.4516,0.0,0.0,0.0,0.0,3.4612,3.4594,0.0,3.4537,3.3805,3.3799,3.4584,3.3912,3.4027,3.4841,3.4972,3.5016,3.4873,3.2526,3.144,3.1343,3.0548,3.0211,3.0261,3.1102,3.1427,3.1496,3.226,3.2653,3.2625,3.1759,3.1481,3.143,3.0738,3.0552,3.0628,3.0754,3.1409,3.2101,0.0,0.0,0.0,3.7168,3.8164,3.9707,4.2969,4.3183,4.3242,4.5723,4.6308,4.6308,4.6308,4.6308,4.6308,4.6308,4.6308,4.6308,4.6308,4.6308,4.6308,4.6308,4.6308,4.6308,4.6308,4.6308,4.6308,4.6308,4.5547,4.5078,4.5078,4.4258,4.3418,4.2578,4.2441,4.2051,4.1289,4.1211,4.1191,4.1191,4.1191,4.1191,4.1191,4.1191,4.1191,4.1191,4.1191,4.1191,4.1191,4.1191,4.1191,4.1191,4.1191,4.1191,4.1191,4.1191,4.1191,4.1191,4.1191,4.1152,4.1092,0.0,0.0,0.0,0.0,0.0,0.0,0.0,0.0,0.0,0.0,0.0,0.0,0.0,3.3714,3.3363,3.3434,3.3568,0.0,0.0,0.0,0.0,3.4612,3.4612,3.4612,3.4612,3.432,3.4312,3.4634,3.3848,3.3908,3.4761,3.4291,3.4377,3.4841,3.3578,3.2996,3.2916,3.155,3.1011,3.1064,3.1328,3.1767,3.2279,3.2585,3.3051,3.3532,3.323,3.2436,3.159,3.1981,0.0,0.0,0.0,0.0,3.1386,3.1945,3.3551,3.535,3.623,3.793,3.9726,4.0957,4.2266,4.3476,4.4414,4.5508,4.6308,4.6308,4.6308,4.6308,4.6308,4.6308,4.6308,4.6308,4.6308,4.6308,4.6308,4.6308,4.6308,4.6308,4.6308,4.6074,4.5527,4.5176,4.4766,4.4219,4.3359,4.2734,4.2422,4.1914,4.1504,4.1211,4.1191,4.1191,4.1191,4.1191,4.1191,4.1191,4.1191,4.1191,4.1191,4.1191,4.1191,4.1191,4.1191,4.1191,4.1191,4.1191,4.1191,4.1191,4.1191,4.1191,4.1191,4.1191,4.1172,4.1152,0.0,0.0,0.0,0.0,0.0,0.0,0.0,0.0,0.0,3.378,0.0,0.0,0.0,0.0,3.3332,3.3403,3.3462,3.3818,3.4564,3.4612,3.4612,3.4612,3.4612,3.4612,3.4612,3.4612,3.4612,3.4612,3.3815,3.3723,3.4273,3.3465,3.3401,3.3951,3.3568,3.3562,3.3741,3.2368,3.1794,3.1874,3.2462,3.2859,3.318,3.3742,3.4342,3.4789,3.4507,3.3873,3.3247,0.0,0.0,0.0,0.0,0.0,0.0,0.0,0.0,3.3612,3.4453,3.6172,3.793,3.8809,4.0527,4.2207,4.3066,4.4394,4.5508,4.5801,4.6094,4.6308,4.6308,4.6308,4.6308,4.6308,4.6308,4.6308,4.6308,4.6308,4.6308,4.6308,4.6308,4.6074,4.5488,4.5176,4.4648,4.3769,4.2891,4.2285,4.2012,4.1484,4.1191,4.1191,4.1191,4.1191,4.1191,4.1191,4.1191,4.1191,4.1191,4.1191,4.1191,4.1191,4.1191,4.1191,4.1191,4.1191,4.1191,4.1191,4.1191,4.1191,4.1191,4.1191,4.1191,4.1191,4.1191,4.1191,0.0,0.0,0.0,0.0,0.0,0.0,0.0,0.0,3.3408,3.3408,0.0,0.0,0.0,0.0,0.0,3.4561,3.4397,3.4393,3.4591,3.4612,3.4612,3.4612,0.0,0.0,3.4612,3.4612,3.4612,3.4612,3.3865,3.3501,3.3482,3.2675,3.2289,3.2289,3.2363,3.2863,3.3591,3.2831,3.2507,3.2686,3.4471,3.4677,3.4113,3.5872,3.6538,3.6424,3.5602,3.5818,0.0,3.5705,0.0,0.0,0.0,0.0,0.0,0.0,0.0,0.0,0.0,0.0,0.0,3.6504,3.7851,3.9219,4.1699,4.3008,4.3945,4.4785,4.5683,4.6308,4.6308,4.6308,4.6308,4.6308,4.6308,4.6308,4.6308,4.6308,4.6308,4.6308,4.6308,4.6289,4.6269,4.5508,4.4629,4.373,4.2871,4.2051,4.123,4.1191,4.1191,4.1191,4.1191,4.1191,4.1191,4.1191,4.1191,4.1191,4.1191,4.1191,4.1191,4.1191,4.1191,4.1191,4.1191,4.1191,4.1191,4.1191,4.1172,4.1152,4.1191,4.1191,4.1191,4.1191,4.1191,4.1191,0.0,0.0,0.0,0.0,0.0,3.3393,3.3393,3.352,3.3619,0.0,0.0,0.0,3.3908,3.4023,3.4161,3.4381,3.4328,3.4393,3.4591,3.4612,3.4612,3.4612,3.4612,3.4612,3.4612,3.4612,3.4612,3.4612,3.3805,3.344,3.3421,3.2558,3.2154,3.2154,3.2174,3.2315,3.2542,3.2458,3.2795,3.3458,3.4491,3.4804,3.4812,3.6615,3.7299,3.7346,3.78,3.7311,3.6564,0.0,3.5412,3.3039,0.0,0.0,0.0,0.0,0.0,0.0,3.1167,0.0,0.0,0.0,0.0,0.0,3.8555,4.1308,4.3769,4.4004,4.5254,4.6308,4.6308,4.6308,4.6308,4.6308,4.6308,4.6308,4.6308,4.6308,4.6308,4.6308,4.6308,4.6055,4.543,4.5137,4.4375,0.0,4.2539,4.2051,4.123,4.1191,4.1191,4.1191,4.1191,4.1191,4.1191,4.1191,4.1191,4.1191,4.1191,4.1191,4.1191,4.1191,4.1191,4.1191,4.1191,4.1191,4.1191,4.1191,4.082,4.0312,4.0957,4.1191,4.1191,4.1191,4.1191,4.1191,0.0,0.0,0.0,0.0,3.3393,3.3393,3.3393,3.3509,3.3577,0.0,0.0,0.0,3.4111,3.4049,3.4111,3.4386,3.434,3.4393,3.4591,3.4612,3.4612,3.4612,3.4612,3.4612,3.4612,3.4612,3.4612,3.4612,3.3794,3.339,3.3371,3.2518,3.2105,3.2105,3.2105,3.2292,3.2649,3.2768,3.3129,3.3753,3.5237,3.5663,3.5608,3.7384,3.807,3.8175,3.8718,0.0,3.8162,3.8666,3.6658,0.0,0.0,0.0,0.0,0.0,0.0,0.0,0.0,0.0,0.0,0.0,0.0,0.0,3.7128,3.9804,4.2304,4.3008,4.4258,4.5215,4.5215,4.5215,4.5332,4.5703,4.5762,4.5879,4.625,4.6308,4.6308,4.6308,4.6308,4.6094,4.5586,4.5547,4.4961,4.3594,4.3144,4.2422,4.1269,4.0859,4.0664,4.0664,4.0293,4.0117,4.0117,4.0117,4.0293,4.0664,4.0664,4.0859,4.1191,4.1191,4.1191,4.1191,4.1191,4.0996,4.0684,4.1055,4.0898,4.0488,4.0996,4.1191,4.1191,4.1191,4.1191,4.1191,0.0,0.0,3.3393,3.3393,3.3393,3.3393,3.3393,3.3393,3.3393,0.0,3.3577,3.3847,3.4197,3.4099,3.4161,3.4528,3.4397,3.4393,3.4591,3.4612,3.4612,3.4612,3.4612,3.4612,3.4612,3.4612,3.4612,3.4612,3.3888,3.3494,3.3381,3.2622,3.2208,3.2115,3.2011,3.2443,3.3269,3.3269,3.3402,3.384,3.6281,3.6898,3.651,3.8172,3.8843,3.8897,3.8926,3.9509,4.0253,4.0072,3.8082,0.0,0.0,0.0,0.0,0.0,3.1517,0.0,0.0,0.0,0.0,0.0,3.3344,0.0,3.6636,3.8357,4.0057,4.164,4.2734,4.3418,4.3418,4.3418,4.3672,4.4453,4.4726,4.5195,4.6152,4.6308,4.6308,4.6308,4.6308,4.6308,4.6308,4.6308,4.5937,4.5078,4.4101,4.2871,4.1289,4.0469,4.0,3.9902,3.9141,3.8691,3.8594,3.8594,3.9043,3.9902,3.9902,4.0351,4.1191,4.1191,4.1191,4.1191,4.1191,4.0762,4.0098,4.0879,4.1133,4.1074,4.1152,4.1191,4.1191,4.1191,4.1191,4.1191,0.0,3.3393,3.3393,3.3393,3.3393,3.3393,3.3393,3.3393,3.3393,3.3393,3.3577,3.3726,3.382,3.3921,3.4099,3.4328,3.4316,3.4393,3.4591,3.4612,3.4612,3.4612,3.4612,3.4612,3.4612,3.4612,3.4612,3.4612,3.4505,3.4112,3.3481,3.3312,3.2851,3.2155,3.1448,3.1588,3.2349,3.2349,3.3148,3.4548,3.6404,3.7438,3.7983,3.909,3.9505,3.9528,3.9654,3.9874,3.9947,3.864,3.7832,3.6944,0.0,0.0,0.0,3.2787,0.0,0.0,0.0,0.0,0.0,0.0,0.0,0.0,3.4969,3.6554,3.8099,3.9137,4.0544,4.1619,4.1601,4.1659,4.1738,4.1914,4.3066,4.4492,4.6074,4.6308,4.6308,4.6308,4.6308,4.6308,4.6308,4.6308,4.5937,4.5078,4.3535,4.2226,4.125,4.1035,4.0625,3.9922,3.9746,3.9316,3.8613,3.8594,3.9043,3.9902,3.9902,4.0351,4.1191,4.1191,4.1191,4.1191,4.1191,4.1094,4.0957,4.1133,4.0781,4.0215,4.0937,4.1191,4.1191,4.1191,4.1191,4.1191,3.3393,3.3393,3.3393,3.3393,3.3393,3.3393,3.3393,3.3393,3.3393,3.3393,3.3577,3.3698,3.3698,3.3868,3.4036,3.4136,3.4245,3.434,3.445,3.4539,3.4612,3.4612,3.4612,3.4612,3.4612,3.4612,3.4612,3.4612,3.4634,3.4459,3.4103,3.4053,3.4053,3.4009,3.312,3.3212,3.3963,3.3531,3.4076,3.5353,3.6603,3.7568,3.8394,3.9305,3.9665,3.9717,3.9781,3.9933,3.9983,3.9157,3.8383,0.0,3.6247,3.5622,3.5105,0.0,3.3875,3.4,0.0,0.0,0.0,3.2252,0.0,0.0,0.0,3.5701,3.7014,3.8332,3.8918,3.9193,3.9196,3.9235,3.9392,3.9823,4.1347,4.3047,4.4765,4.5742,4.6308,4.6308,4.6308,4.6308,4.6308,4.6308,4.5937,4.5078,4.3789,4.2676,4.1836,4.1016,4.0351,3.9902,3.9062,3.8398,3.7969,3.7519,3.7969,3.9258,3.9258,3.9941,4.1191,4.1191,4.1191,4.1191,4.1191,4.1191,4.1191,4.1191,4.0937,4.0586,4.1035,4.1191,4.1191,4.1191,4.1191,4.1191,3.3393,3.3393,3.3393,3.3393,3.3393,3.3393,3.3393,3.3393,3.3393,3.3393,3.385,3.4101,3.3954,3.4383,3.4687,3.4687,3.4748,3.4758,3.4765,3.4821,3.4846,3.4846,3.4677,3.4677,3.4846,3.4688,3.4612,3.4612,3.4623,3.4655,3.4727,3.4666,3.5012,3.5657,3.4945,3.4988,3.5615,3.5071,3.5353,3.6197,3.7016,3.7624,3.8169,3.9026,3.9387,3.9444,3.9637,3.9837,3.9998,3.9867,3.909,3.8106,3.7781,3.7366,0.0,0.0,0.0,0.0,0.0,0.0,0.0,0.0,0.0,3.3792,0.0,0.0,0.0,3.7521,3.729,3.6842,3.7023,3.6907,3.7083,3.7964,3.9411,4.0975,4.2498,4.4218,4.5547,4.6211,4.6152,4.6113,4.6289,4.6308,4.5801,4.459,4.416,4.3496,4.2461,4.1113,4.0312,4.0156,3.8457,3.7461,3.7305,3.6445,3.6797,3.8359,3.8359,3.9258,4.0957,4.0957,4.1035,4.1191,4.1191,4.1191,4.1191,4.1191,4.1191,4.1191,4.1191,4.1191,4.1191,4.1191,4.1191,4.1191,3.3393,3.3393,3.3393,3.3393,3.3393,3.3393,3.3393,3.3393,3.3393,3.3393,3.4819,3.5553,3.4836,3.6217,3.7196,3.7196,3.6713,3.6434,3.644,3.5995,3.5747,3.5747,3.5015,3.4958,3.5747,3.4996,3.4612,3.4612,3.4655,3.4708,3.4788,3.4778,3.4835,3.491,3.4764,3.4712,3.4789,3.5465,3.6216,3.7035,3.7831,3.7793,0.0,3.8131,3.8462,3.8561,3.9395,3.9717,3.9649,0.0,3.9285,3.9575,0.0,3.8117,3.8398,3.6717,0.0,0.0,0.0,0.0,0.0,0.0,3.4242,0.0,0.0,0.0,3.3971,3.4938,0.0,3.5236,3.6012,0.0,0.0,3.6146,3.7105,3.8081,3.9039,4.0623,4.2832,4.5937,4.5625,4.5449,4.623,4.6308,4.5293,4.2871,4.4043,4.4121,4.248,4.2226,4.1797,4.1074,3.9355,3.8086,3.7305,3.6445,3.6484,3.7441,3.7441,3.8359,4.0059,4.0059,4.0469,4.1191,4.1191,4.1191,4.1191,4.1191,4.1191,4.1191,4.1191,4.1191,4.1191,4.1191,4.1191,4.1191,3.3393,3.3393,3.3393,3.3393,3.3393,3.3393,3.3393,3.3393,3.3574,3.4045,3.4437,3.4763,3.4891,3.6131,3.6901,3.6743,3.7173,3.7394,3.7229,3.6384,3.5897,3.5897,3.5071,3.4771,3.5146,3.4789,3.4612,3.4612,3.4666,3.4718,3.4798,3.4798,3.5052,3.5495,3.5423,3.5633,3.6077,3.6441,3.6791,3.7129,3.7467,3.7411,0.0,3.8556,3.9063,3.9101,3.95,3.9665,3.9648,0.0,3.9586,0.0,0.0,0.0,0.0,3.7524,0.0,0.0,0.0,0.0,0.0,0.0,0.0,0.0,3.4533,0.0,3.4232,0.0,0.0,0.0,0.0,0.0,0.0,0.0,3.639,3.7605,3.8488,3.9214,4.074,4.3689,4.33,4.3124,4.3964,4.4941,4.4883,4.3262,4.3828,4.3926,4.3183,4.2676,4.2246,4.1914,4.0723,3.9687,3.8828,3.7441,3.7187,3.8047,3.8047,3.8691,3.9902,3.9902,4.0371,4.1172,4.0664,4.0723,4.1191,4.1191,4.1191,4.1191,4.1191,4.1191,4.1191,4.1191,4.1191,4.1191,3.3701,0.0,0.0,3.3481,3.3495,3.3509,3.3549,3.3563,3.3753,3.4276,3.4553,3.4804,3.5115,3.6611,3.7521,3.7325,3.8214,3.8641,3.8272,3.7348,3.6853,3.6911,3.5653,3.5165,3.5597,3.495,3.4612,3.4612,3.4666,3.4718,3.4798,3.4827,3.5129,3.5704,3.5859,3.6238,3.6802,3.7242,3.7429,3.7448,3.7692,3.7786,3.7899,3.8876,3.9383,3.9589,3.9589,3.9631,3.964,3.9402,3.9558,0.0,3.9688,3.9406,3.8941,0.0,0.0,0.0,3.6039,0.0,0.0,0.0,0.0,0.0,0.0,0.0,0.0,0.0,0.0,0.0,0.0,0.0,0.0,0.0,0.0,3.6889,3.7757,3.7899,3.8918,4.1713,4.152,4.1326,0.0,4.3261,4.3828,4.2734,4.3301,4.3691,4.3691,4.3105,4.2754,4.2754,4.1738,4.0781,3.9902,3.8418,3.7851,3.8242,3.8496,3.8809,3.9199,3.9434,4.0019,4.0801,4.0176,4.0391,4.1191,4.1191,4.1191,4.1191,4.1191,4.1191,4.1191,4.1191,4.1191,4.1191,3.4407,3.3936,0.0,3.3675,3.3684,3.3766,3.3947,3.3985,3.3926,3.3748,3.5751,3.6811,3.5869,3.8518,4.0383,4.0365,4.0628,4.0567,3.9946,3.9398,3.9216,3.9464,3.7155,3.6592,3.815,3.5822,3.4612,3.4612,3.4666,3.4718,3.4798,3.4868,3.4906,3.4963,3.5685,3.5991,3.6039,3.761,3.8263,3.8338,3.9176,3.9514,3.9439,0.0,3.8863,3.9589,3.9589,0.0,0.0,3.8631,3.8959,0.0,0.0,0.0,0.0,0.0,0.0,0.0,0.0,0.0,0.0,3.6424,0.0,0.0,0.0,0.0,3.4331,0.0,0.0,0.0,0.0,0.0,0.0,0.0,0.0,0.0,0.0,3.6085,3.7347,4.0737,4.1129,4.0816,0.0,4.1502,4.1796,0.0,4.2304,4.3691,4.3691,4.3672,4.3652,4.3652,4.2051,4.0781,3.9902,3.9004,3.8144,3.7344,3.8203,3.8164,3.7402,3.8262,3.9121,3.9941,3.9902,4.0391,4.1191,4.1191,4.1191,4.1191,4.1191,4.1191,4.1191,4.1191,4.1191,4.1191,0.0,0.0,3.4527,3.4335,3.4078,3.3921,3.3985,3.3881,3.455,3.661,3.7122,3.7953,3.97,4.1476,4.2565,4.2601,4.2851,4.2931,4.2745,4.1176,4.0308,4.0384,3.8525,3.7493,3.7512,3.6156,3.52,3.4666,3.4778,3.4848,3.4868,3.4898,3.4907,3.4925,3.5677,3.6274,3.6832,3.7854,3.8638,0.0,0.0,3.9251,3.877,0.0,3.9345,3.9589,3.9589,3.9589,0.0,3.927,3.9369,3.9599,3.9368,3.9109,3.8886,3.8712,3.826,3.7768,0.0,0.0,3.7719,3.6642,0.0,0.0,0.0,0.0,0.0,0.0,0.0,0.0,0.0,0.0,0.0,0.0,0.0,0.0,0.0,3.5999,3.6438,3.7581,3.8739,3.9112,3.8253,0.0,0.0,3.994,4.123,4.2539,4.3633,4.3691,4.3965,4.4531,4.3457,4.2441,4.1562,4.0156,3.9023,3.8164,3.8457,3.8457,3.8164,3.8476,3.9394,4.0723,4.0156,4.0391,4.1191,4.1191,4.1191,4.1191,4.1191,4.1191,4.1191,4.1191,4.1191,4.1191,3.4162,3.4502,3.48,3.4442,3.4555,3.4686,3.4686,3.5219,3.6352,3.8343,3.8818,3.9727,4.1685,4.3136,4.3969,4.4023,4.4533,4.4634,4.4128,4.2768,4.19,4.1698,4.0084,3.9089,0.0,0.0,3.6381,3.5601,3.5404,3.5181,3.4897,3.4908,3.4889,3.4917,3.5405,3.6224,3.7308,3.7751,3.8625,0.0,0.0,3.9269,0.0,0.0,3.942,3.9176,0.0,3.9589,3.9589,3.9589,3.9589,3.9602,3.9649,3.9272,3.8827,3.8943,3.8595,3.818,3.8269,3.8531,0.0,3.7452,3.7442,0.0,3.633,0.0,3.6487,0.0,0.0,0.0,0.0,0.0,0.0,0.0,0.0,0.0,0.0,3.5972,3.6002,3.6007,3.6992,3.7582,3.7313,3.8314,3.9099,3.9413,4.0253,4.1465,0.0,4.3535,4.4101,4.4961,4.4141,4.3281,4.2402,4.1035,3.9766,3.8594,3.8906,3.873,3.8144,3.8457,3.9375,4.0703,4.0137,4.0391,4.1191,4.1191,4.1191,4.1191,4.1191,4.1191,4.1191,4.1191,4.1191,4.1191,3.5182,3.4841,3.4458,3.4216,3.5191,3.601,3.601,3.7835,3.9189,3.9117,4.0881,4.214,4.2049,4.367,4.4784,4.4802,4.5713,4.5692,4.4333,4.4199,4.393,4.3388,4.1792,4.1267,4.1999,0.0,0.0,0.0,3.651,3.5729,3.4897,3.4908,3.4908,3.4908,3.4898,3.5835,3.739,3.732,3.8304,3.9889,3.9751,3.9635,3.9545,3.9589,3.9051,3.8413,3.9289,3.9589,3.9589,3.9589,3.9589,3.9589,3.9589,3.9637,3.9693,3.9693,3.9781,3.9889,3.9889,3.9374,3.8857,3.88,3.828,0.0,0.0,0.0,3.7749,0.0,0.0,0.0,0.0,0.0,0.0,0.0,0.0,0.0,0.0,0.0,3.5999,3.5999,3.6006,3.6327,3.7156,3.7235,3.759,3.8475,3.9296,4.0546,0.0,4.3183,4.4062,4.5039,4.418,4.3301,4.2461,4.1621,4.0351,3.8672,3.9492,3.9023,3.7461,3.8281,3.9141,3.9961,3.9961,4.043,4.1191,4.1191,4.1191,4.1191,4.1191,4.1191,4.1191,4.1191,4.123,4.125,3.5503,3.5869,3.6365,3.6434,3.7145,3.7701,3.7762,3.949,4.1393,4.3037,4.3962,4.5115,4.6866,4.7132,4.7295,4.7555,4.7452,4.7069,4.6308,4.5648,4.4965,4.4219,4.3219,4.2502,4.2159,4.1,3.9395,3.7349,3.7212,3.6359,3.4908,3.4898,3.4908,3.4908,3.4898,3.5835,3.739,3.732,3.8304,3.9889,3.9751,3.9323,3.8836,0.0,3.9051,3.8413,3.9289,3.9589,3.9589,3.9589,3.9589,3.9589,3.9589,3.9614,3.9619,3.9619,3.9644,3.9691,3.9735,3.9686,3.9477,3.8941,3.8718,3.8487,0.0,0.0,0.0,0.0,0.0,0.0,0.0,0.0,0.0,0.0,0.0,0.0,0.0,0.0,0.0,3.5988,3.5997,3.6085,3.6307,3.6337,3.6694,3.7574,3.785,3.9257,4.2246,4.2617,4.373,4.5898,4.4492,4.3594,4.3379,4.1933,4.0644,3.957,3.9785,3.9668,3.9238,3.9453,4.0039,4.0879,4.0879,4.0996,4.1191,4.1191,4.1191,4.1191,4.1191,4.1191,4.1191,4.1191,4.1582,4.2012,3.6405,3.7016,3.7743,3.7883,3.9644,4.0766,3.9939,4.1087,4.2844,4.5083,4.5735,4.6524,4.7868,4.8187,4.8383,4.8587,4.8567,4.8247,4.756,4.6749,0.0,4.5156,4.4347,4.3755,4.3384,4.2662,0.0,3.905,0.0,3.7166,3.5457,3.5078,3.4908,3.4908,3.4898,3.5846,3.7488,3.8248,3.933,4.0512,4.0423,4.0288,0.0,4.0188,3.9864,3.9408,3.9552,3.9589,3.9589,3.9589,3.9589,3.9589,3.9589,3.9589,3.9589,3.9589,3.9589,3.9614,3.9637,3.9777,3.9797,3.9374,3.9432,3.9441,3.8946,3.884,3.9107,0.0,3.9259,3.8473,0.0,0.0,0.0,0.0,0.0,0.0,0.0,0.0,0.0,0.0,3.6255,3.635,3.6024,3.6001,3.636,3.7221,3.7652,3.8533,4.0097,4.1952,4.3476,4.455,4.4004,4.3691,4.3691,4.2031,4.0762,3.9902,3.9902,3.9902,3.9902,3.9902,4.0371,4.1191,4.1191,4.1191,4.1191,4.1191,4.1191,4.1191,4.1191,4.1191,4.1191,4.1191,4.1484,4.1816,3.7591,3.8177,3.8788,3.885,4.1937,4.3922,4.2458,4.3215,4.4615,4.6466,4.7075,4.7362,4.7342,4.807,4.8569,4.8587,4.9113,4.9084,4.8281,4.7473,4.6704,4.5984,4.5153,4.4783,4.4919,4.4296,4.3062,0.0,3.972,3.8068,3.6339,3.5363,3.5022,3.5211,3.5116,3.6046,0.0,3.9585,4.0737,4.133,4.1419,4.1786,4.2157,4.1345,4.094,4.0735,3.9939,3.9614,3.9589,3.9589,3.9589,3.9589,3.9589,3.9589,3.9589,3.9589,3.9589,3.9589,3.9589,3.9738,3.9878,3.99,4.0096,4.0291,4.0301,4.0301,4.0301,4.0301,3.9699,3.9145,0.0,0.0,0.0,0.0,0.0,0.0,0.0,0.0,0.0,0.0,0.0,0.0,3.6688,3.6246,3.6415,3.7397,3.8178,3.8413,0.0,0.0,4.3417,4.2753,4.3476,4.3828,4.3691,4.2148,4.0918,4.0078,4.0078,4.0078,4.0078,4.0078,4.0488,4.1191,4.1191,4.1191,4.1191,4.1191,4.1191,4.1191,4.1191,4.1191,4.1191,4.1191,4.1191,4.1211,3.8487,3.9113,3.9681,3.9692,4.1775,4.3919,4.5332,4.7857,4.9677,4.993,4.9854,4.9776,4.971,4.8902,4.842,4.8587,4.8889,4.8886,4.8394,0.0,0.0,4.6184,4.5313,4.4919,4.5049,4.4928,4.3721,0.0,0.0,3.8944,3.7173,3.5609,3.5647,3.6917,3.6282,3.6938,3.8689,4.0462,0.0,4.1532,4.2138,4.2436,4.243,4.1506,4.1147,4.1022,4.0148,3.9738,3.9589,3.9589,3.9589,3.9589,3.9589,3.9589,3.9589,3.9589,3.9589,3.9589,3.9589,3.9679,3.9751,3.9878,4.0015,4.0157,4.0263,4.0301,4.0301,4.0301,4.0186,3.9843,3.9126,0.0,0.0,0.0,0.0,0.0,0.0,0.0,0.0,0.0,0.0,3.9452,0.0,3.7585,3.6665,3.8257,3.851,3.945,0.0,0.0,4.3964,0.0,4.4687,4.4433,0.0,0.0,4.1777,4.0976,4.0976,4.0976,4.0976,4.0976,4.1055,4.1191,4.1191,4.1191,4.1191,4.1191,4.1191,4.1191,4.1191,4.1191,4.1191,4.1191,4.1191,4.1289,3.9323,3.9635,4.0328,4.168,4.3744,4.6031,4.8423,5.1006,5.2252,5.0961,5.0323,5.0046,5.0225,4.9677,4.9396,4.967,4.954,4.9378,4.9201,4.8388,4.7623,4.6966,4.6111,4.5536,4.5211,4.5203,4.416,4.2011,0.0,3.9619,3.7382,3.614,3.6026,3.6852,3.7337,3.8279,0.0,0.0,0.0,4.2773,4.3162,4.3558,4.3808,4.2916,4.2291,4.1711,4.0858,4.0223,3.9762,3.9762,3.9762,3.9762,3.9762,3.9762,3.975,3.9672,3.9649,3.9637,3.9614,3.9649,3.9728,3.9878,4.0005,4.0137,4.0263,4.0301,4.0301,4.0301,4.0301,4.0167,3.9747,3.9028,0.0,0.0,0.0,0.0,0.0,0.0,3.8769,0.0,0.0,0.0,0.0,0.0,3.6657,3.8463,0.0,0.0,0.0,0.0,4.3026,0.0,0.0,0.0,4.4375,0.0,4.2207,4.1816,4.1406,4.1191,4.1191,4.1191,4.1191,4.1191,4.1191,4.1191,4.1191,4.1191,4.1191,4.1191,4.1191,4.1191,4.1191,4.1191,4.1191,4.1269,4.093,4.1005,4.1767,4.419,4.6442,4.8612,5.0681,5.2881,5.3638,5.1786,5.0841,5.0379,5.0496,5.0345,5.0293,5.0406,5.0033,4.9757,4.9673,4.8871,4.8087,4.7403,4.6614,4.5897,4.5316,4.5307,4.4414,0.0,0.0,0.0,3.7943,3.6947,3.6606,3.691,0.0,0.0,0.0,0.0,4.2704,4.3935,4.4187,4.4633,4.5052,4.4233,4.3311,4.2367,4.1573,4.0707,3.9994,3.9994,3.9962,3.99,3.99,3.99,3.9878,3.9762,3.9739,3.9735,3.9679,3.9708,3.9762,3.9911,4.0026,4.0137,4.0263,4.0301,4.0301,4.0301,4.0301,4.0301,4.0301,3.9784,0.0,0.0,0.0,0.0,0.0,0.0,0.0,0.0,0.0,0.0,3.8112,3.7529,3.7556,0.0,0.0,0.0,3.7139,0.0,0.0,0.0,0.0,4.4394,4.4706,0.0,4.248,4.2128,4.1504,4.1191,4.1191,4.1191,4.1191,4.1191,4.1191,4.1191,4.1191,4.1191,4.1191,4.1191,4.1191,4.1191,4.1191,4.1191,4.1191,4.1211,4.4303,4.4619,4.5171,4.6941,4.911,5.0719,5.096,5.2881,5.4225,5.4004,5.3271,5.243,5.1557,5.0825,5.014,4.9559,4.9476,4.9278,4.8916,4.8142,4.7365,4.6631,4.584,4.5362,4.5307,4.5307,4.4435,0.0,0.0,4.0878,0.0,3.8145,3.7804,0.0,0.0,0.0,0.0,4.298,4.3793,4.4064,4.4857,4.522,4.5191,4.4321,4.347,4.2649,4.1771,4.095,4.0253,4.0253,4.0106,3.99,3.99,3.99,3.99,3.9889,3.9878,3.9878,3.9867,3.9878,3.9911,4.0046,4.0077,4.0137,4.0263,4.0301,4.0301,4.0301,4.0301,4.0301,4.0301,4.0234,4.0195,0.0,0.0,0.0,0.0,0.0,4.065,4.1362,0.0,0.0,4.155,4.1628,4.0785,0.0,3.8527,0.0,0.0,0.0,0.0,4.2303,4.4746,4.5311,4.3752,4.3631,4.2791,4.1211,4.1209,4.1191,4.1191,4.1191,4.1191,4.1191,4.1191,4.1191,4.1191,4.1191,4.1191,4.1191,4.1191,4.1191,4.1191,4.1191,4.1191,4.1308,4.6477,4.661,4.7308,4.9553,5.0691,5.1819,5.34,5.4382,5.4952,5.4952,5.4277,5.3555,5.2884,5.205,5.1324,5.0764,5.024,4.9873,4.9704,4.8953,4.8136,4.7311,4.6481,4.5793,4.5307,4.5307,4.4683,0.0,0.0,0.0,0.0,0.0,0.0,0.0,0.0,4.2515,4.3002,4.367,4.4282,4.4819,4.5163,4.5307,4.5269,4.4914,4.3959,4.2813,4.2947,4.2144,4.1017,4.1017,4.0635,4.0137,4.0137,4.0137,4.0127,4.0046,4.0026,4.0005,3.9922,4.029,4.0588,4.02,4.0459,4.0737,4.0377,4.0301,4.0301,4.0301,4.0301,4.0301,4.0301,4.0301,4.0301,4.0298,0.0,0.0,0.0,0.0,0.0,4.0969,0.0,4.0176,0.0,4.0181,4.0165,0.0,0.0,0.0,0.0,0.0,0.0,4.3162,0.0,4.4013,4.4372,4.3366,4.2507,4.1813,4.1404,4.1191,4.1191,4.1191,4.1191,4.1191,4.1191,4.1191,4.1191,4.1191,4.1191,4.1191,4.1191,4.1191,4.1191,4.1191,4.1191,4.1328,4.902,4.9134,4.987,5.2246,5.266,5.3283,5.5122,5.5403,5.5307,5.5059,5.4558,5.4023,5.3428,5.2829,5.2131,5.1291,5.0665,5.0092,4.9595,4.9022,4.822,4.7111,4.6481,0.0,4.5307,4.5307,4.4847,4.3927,4.3344,0.0,0.0,0.0,0.0,0.0,4.2755,4.3472,4.4025,4.4274,4.4743,4.5307,4.5307,4.5307,4.5269,4.501,4.4188,4.3157,4.3252,4.2507,4.1495,4.1495,4.0979,4.0301,4.0301,4.0301,4.0291,4.0195,4.0328,4.0489,4.0408,4.0815,4.1159,4.0642,4.0948,4.1235,4.0769,4.0845,4.1027,4.1027,4.0645,4.0358,4.0616,4.0454,4.0301,4.0299,0.0,0.0,0.0,4.0495,0.0,0.0,3.9996,3.9323,3.845,3.947,0.0,0.0,0.0,0.0,0.0,0.0,0.0,0.0,0.0,0.0,4.4063,4.2896,4.2178,4.1913,4.1422,4.1191,4.1191,4.1191,4.1191,4.1191,4.1191,4.1191,4.1191,4.1191,4.1191,4.1191,4.1191,4.1191,4.123,4.1465,4.1406,4.1348,5.2403,5.2747,5.3282,5.5059,5.5345,5.5352,5.5403,5.5403,5.5097,5.4237,5.4123,5.3766,5.29,5.2805,5.2117,5.0455,5.0302,4.9595,4.7941,4.7807,4.7073,0.0,0.0,4.5307,4.5307,4.5307,4.4876,4.4006,0.0,0.0,4.2775,0.0,4.2775,4.2813,4.3624,4.3987,4.4064,4.4914,4.5288,4.5307,4.5307,4.5307,4.5201,4.4331,4.4006,4.3777,4.2125,4.1514,4.1495,4.1495,4.0979,4.0301,4.0301,4.0301,4.0301,4.0301,4.0864,4.1476,4.1476,4.1495,4.1495,4.1495,4.1495,4.1495,4.1495,4.2144,4.2775,4.2775,4.1457,4.054,4.1342,4.0845,4.0301,4.0301,0.0,0.0,0.0,4.0452,0.0,4.0496,4.0496,4.0169,3.9361,4.0912,0.0,0.0,0.0,0.0,0.0,0.0,0.0,4.0929,4.2581,0.0,4.215,4.2239,4.187,4.1013,4.1141,4.1191,4.1191,4.1191,4.1191,4.1191,4.1191,4.1191,4.1191,4.1191,4.1191,4.1191,4.1191,4.1191,4.1308,4.209,4.1875,4.1445,5.4467,5.4581,5.4753,5.5307,5.5403,5.5403,5.5403,5.5403,5.5097,5.4218,5.4104,5.3569,5.2136,5.1983,5.1525,0.0,5.0302,5.0073,0.0,4.8418,4.7559,4.7035,4.5908,4.5307,4.5307,4.5307,4.5163,4.4895,0.0,0.0,0.0,4.3624,4.394,4.4513,4.4762,4.4895,4.4895,4.5182,4.5307,4.5307,4.5307,4.5307,4.5269,4.4991,4.4188,4.3271,4.3864,4.3348,4.2469,4.3023,4.3032,4.2727,4.2183,4.1609,4.1113,4.1113,4.1724,4.2393,4.2393,4.2794,4.308,4.2526,4.2794,4.3061,4.2507,4.2603,4.2794,4.2794,4.2374,4.2087,4.2335,4.2183,4.182,4.1208,4.1216,0.0,4.0483,0.0,4.0496,4.0496,4.0496,4.0189,3.9381,4.085,0.0,0.0,0.0,0.0,0.0,0.0,0.0,0.0,4.1821,0.0,4.2222,4.1722,4.1337,4.107,4.1714,4.2012,4.1992,4.1445,4.1191,4.1191,4.1191,4.1191,4.1191,4.1191,4.1523,4.2012,4.2012,4.2383,4.2949,4.3183,4.2754,4.2187,5.5403,5.5403,5.5403,5.5403,5.5403,5.5403,5.5403,5.5403,5.5097,5.4218,5.3817,5.3091,5.1742,5.1314,0.0,5.0359,5.0302,5.0168,4.9862,4.8869,4.8009,4.733,4.6309,4.5602,4.5307,4.5307,0.0,4.5307,4.4743,4.4494,4.4494,4.4494,4.4781,4.5307,4.5307,4.5307,4.5307,4.5307,4.5307,4.5307,4.5307,4.5307,4.5258,4.4934,4.436,4.3787,4.4208,4.3883,4.3329,4.3834,4.3796,4.351,4.331,4.2889,4.2374,4.2087,4.2584,4.3252,4.3252,4.3624,4.3873,4.3386,4.3624,4.3949,4.3787,4.3482,4.3348,4.3673,4.3233,4.2889,4.3195,4.3004,4.2507,4.1628,4.1598,4.1393,4.0522,0.0,4.0496,0.0,0.0,0.0,0.0,4.07,4.1343,0.0,0.0,0.0,0.0,0.0,4.1703,4.1694,4.1546,4.171,4.2258,4.1786,4.1714,4.2048,4.2615,4.2891,4.2851,4.2031,4.1836,4.2109,4.1465,4.1562,4.2109,4.1797,4.2148,4.2891,4.2891,4.3223,4.3691,4.3691,4.3144,4.248,5.5403,5.5403,5.5403,5.5403,5.5403,5.5403,5.5403,5.5403,5.5097,5.4218,5.3397,5.2556,5.1684,5.0875,5.0378,5.0302,0.0,0.0,4.9243,4.9129,4.8353,4.6672,4.6538,4.6118,4.5326,4.5307,4.5307,4.5307,4.5307,4.5307,4.5307,4.5307,4.5307,4.5307,4.5307,4.5307,4.5307,4.5307,4.5307,4.5307,4.5307,4.5307,4.5201,4.4399,4.4571,4.501,4.3501,4.3386,4.393,4.4045,4.3558,4.3023,4.3834,4.4083,4.394,4.3119,4.3463,4.4083,4.4083,4.4083,4.4083,4.4083,4.4083,4.4293,4.5125,4.4666,4.4312,4.5125,4.4055,4.3195,4.3949,4.3482,4.266,4.1734,4.1694,4.147,4.055,4.046,4.0496,0.0,0.0,0.0,4.0496,4.0496,4.0554,0.0,0.0,0.0,0.0,0.0,4.1017,4.0881,4.1805,4.2299,4.2298,4.2366,4.2831,4.3692,4.3709,4.373,4.3769,4.2832,4.2871,4.3613,4.1992,4.2207,4.3633,4.2812,4.3008,4.3789,4.3789,4.3789,4.3789,4.3789,4.3203,4.2402,5.5403,5.5403,5.5403,5.5403,5.5403,5.5403,5.5403,5.5403,5.5097,5.4218,5.3913,5.3225,5.1773,5.1417,5.1028,5.0359,5.0302,5.0225,5.0034,4.9442,4.8621,4.754,4.6863,4.6118,4.5326,4.5307,4.5307,4.5307,4.5307,4.5307,4.5307,4.5307,4.5307,4.5307,4.5307,4.5307,4.5307,4.5307,4.5307,4.5307,4.5307,4.5307,4.5288,4.5067,4.4704,4.4341,4.4609,4.4017,4.3291,4.4551,4.4468,4.3933,4.4734,4.5022,4.4899,4.3989,4.4322,4.4991,4.4991,4.4991,4.4991,4.4991,4.4991,4.5048,4.5239,4.5144,4.5048,4.5269,4.4972,4.4762,4.4953,4.4838,4.4228,4.2738,4.2555,4.2131,4.0669,4.0495,4.0496,0.0,4.0496,4.0496,4.0496,4.0496,4.1054,0.0,0.0,4.1873,4.3624,4.3046,4.2696,4.2751,4.3131,4.3349,4.3334,4.3357,4.3807,4.4667,4.4004,4.4043,4.4648,4.3105,4.2871,4.3633,4.2578,4.2715,4.3672,4.3476,4.3906,4.4687,4.4687,4.4687,4.4687,4.4687,4.3711,4.2402,5.5403,5.5409,5.5403,5.5403,5.5403,5.5403,5.5403,5.5396,5.5097,5.4218,5.4104,5.3607,5.2289,5.183,5.1398,5.0951,5.0531,5.0302,5.0302,4.9882,4.9098,4.7845,4.7349,4.6538,4.5326,4.5307,4.5307,4.5307,4.5307,4.5307,4.5307,4.5307,4.5307,4.5307,4.5307,4.5307,4.5307,4.5307,4.5307,4.5307,4.5307,4.5307,4.5307,4.5307,4.501,4.4666,4.5156,4.4764,4.4133,4.5043,4.5073,4.4777,4.5217,4.538,4.5294,4.4794,4.4954,4.5307,4.5307,4.5307,4.5307,4.5307,4.5307,4.5307,4.5307,4.5307,4.5307,4.5307,4.5328,4.5338,4.5338,4.5339,4.4795,4.312,4.2908,4.2368,4.0732,4.0503,4.065,4.1046,4.1085,4.1239,4.1643,4.1681,4.2085,4.3028,4.2566,0.0,4.422,4.44,4.4092,4.3374,4.3916,4.4224,4.4252,4.4667,4.5137,4.5586,4.5117,4.5137,4.5547,4.4199,4.4062,4.4824,4.3555,4.3711,4.4863,4.4453,4.4805,4.5547,4.5156,4.5,4.4902,4.4101,4.3457,4.2949,5.5409,5.5421,5.542,5.542,5.542,5.542,5.5408,5.5396,5.5129,5.439,5.4193,5.3772,5.2912,5.2103,5.1567,5.1434,5.0753,5.0314,5.0302,5.0187,4.948,4.8067,4.7731,4.694,4.5507,4.5354,4.5307,4.5307,4.5307,4.5307,4.5307,4.5307,4.5317,4.5317,4.5328,4.5328,4.5328,4.5317,4.5317,4.5317,4.5307,4.5307,4.5307,4.5307,4.5317,4.5317,4.5379,4.5322,4.5227,4.5352,4.5333,4.5237,4.5371,4.541,4.541,4.539,4.5369,4.5328,4.5317,4.5317,4.5328,4.5328,4.5328,4.5328,4.5328,4.5328,4.5328,4.5328,4.5369,4.5399,4.5399,4.539,4.4911,4.3367,4.3164,4.2614,4.0932,0.0,4.1123,4.1731,4.1923,4.2297,4.3028,4.3104,4.3143,4.3278,4.3912,4.4355,4.4489,4.5356,4.5186,4.3711,4.4557,4.5057,4.5116,4.5896,4.6308,4.6308,4.6308,4.6308,4.6269,4.5391,4.5488,4.6211,4.4609,4.4805,4.623,4.5508,4.5625,4.623,4.5488,4.5117,4.4824,4.334,4.3183,4.3594,5.5456,5.548,5.548,5.548,5.548,5.5468,5.5408,5.5395,5.5351,5.5212,5.46,5.3853,5.2973,5.2177,5.1406,5.0728,5.05,5.0348,5.0302,4.9652,4.9167,4.8907,4.7494,4.6577,4.6328,4.564,4.5307,4.5307,4.5307,4.5307,4.5307,4.5348,4.5369,4.5379,4.538,4.5381,4.5381,4.537,4.5369,4.5388,4.5317,4.5307,4.5307,4.5359,4.5369,4.5379,4.539,4.4969,4.449,4.517,4.4988,4.4574,4.5208,4.5438,4.5476,4.5429,4.539,4.5371,4.5389,4.539,4.5381,4.5381,4.5381,4.5381,4.5381,4.5381,4.5381,4.5381,4.539,4.539,4.539,4.54,4.5112,4.4228,4.4093,4.3506,4.1838,0.0,4.247,4.1865,4.245,4.2951,4.3085,4.3104,4.3374,4.4066,4.422,4.4624,4.5364,4.5569,4.5552,4.5337,4.5806,4.6067,4.6073,4.623,4.6308,4.6308,4.6308,4.6308,4.6269,4.5391,4.5488,4.623,4.5234,4.5371,4.6289,4.6152,4.6172,4.6289,4.6152,4.5644,4.4961,4.4707,4.4219,4.3672,5.5492,5.5527,5.5551,5.5551,5.5551,5.5539,5.5516,5.548,5.5291,5.4865,5.4858,5.4403,5.31,5.2625,5.2072,5.1229,5.0728,5.0446,5.0404,5.0026,4.9606,4.916,4.7973,4.6863,4.5925,4.5542,4.5351,4.5351,4.5351,4.5351,4.5351,4.54,4.5409,4.5409,4.539,4.54,4.54,4.54,4.5409,4.5409,4.5361,4.5351,4.5351,4.54,4.5409,4.54,4.5448,4.5217,4.4968,4.536,4.5272,4.5051,4.5398,4.5522,4.5531,4.5457,4.5429,4.54,4.54,4.541,4.54,4.54,4.54,4.54,4.54,4.54,4.54,4.54,4.5429,4.5448,4.5448,4.5485,4.5244,4.4435,4.431,0.0,4.2673,4.2854,4.3104,4.3143,4.3508,4.3932,4.4393,4.4451,4.4605,4.4979,4.4998,4.519,4.5575,4.5668,4.5723,4.5746,4.5974,4.6147,4.6242,4.6242,4.6266,4.6308,4.6308,4.6308,4.6289,4.5879,4.5918,4.6289,4.5879,4.5937,4.6308,4.6308,4.6308,4.625,4.5781,4.5351,4.4941,4.4473,4.4336,4.4336,5.5539,5.5585,5.5618,5.5618,5.5618,5.5618,5.5596,5.5551,5.5228,5.4423,5.4672,5.4377,5.288,5.2565,5.2212,5.1529,5.0886,5.0532,5.0542,5.0478,5.0065,4.9245,4.8238,4.6972,4.5419,4.54,4.54,4.54,4.54,4.54,4.541,4.5419,4.5419,4.5419,4.5438,4.5438,4.5457,4.5429,4.5419,4.5419,4.541,4.54,4.541,4.5419,4.5419,4.5429,4.5504,4.5522,4.5522,4.5577,4.5594,4.5594,4.5594,4.5594,4.5586,4.555,4.5495,4.5438,4.5438,4.5438,4.5438,4.5438,4.5438,4.5438,4.5438,4.5438,4.5438,4.5438,4.5495,4.5522,4.5522,4.5568,4.5383,4.4701,0.0,4.4316,4.3489,4.3547,4.3835,4.4239,4.447,4.4874,4.5537,4.5594,4.5594,4.5594,4.5594,4.5594,4.5594,4.57,4.5757,4.5783,4.5889,4.6029,4.6202,4.621,4.6243,4.6308,4.6308,4.6308,4.6308,4.6308,4.6308,4.6308,4.6308,4.6308,4.6308,4.6308,4.6308,4.623,4.5566,4.5293,4.5195,4.4316,4.4551,4.5176,5.5662,5.5692,5.5684,5.5684,5.5684,5.5662,5.5607,5.5596,5.5285,5.4411,5.3697,5.2916,5.1994,5.1278,5.0827,5.0769,5.0662,5.0613,5.0673,5.0623,5.0159,4.9235,4.7662,4.6359,4.5419,4.54,4.54,4.54,4.54,4.54,4.541,4.5457,4.5495,4.5495,4.5559,4.5586,4.5577,4.5513,4.5495,4.5495,4.5429,4.54,4.541,4.5476,4.5495,4.5504,4.5568,4.5586,4.5586,4.5594,4.5594,4.5594,4.5594,4.5594,4.5594,4.5586,4.5586,4.5586,4.5586,4.5586,4.5586,4.5586,4.5586,4.5586,4.5586,4.5586,4.5586,4.5586,4.5586,4.5586,4.5586,4.5594,4.5575,4.5518,0.0,0.0,4.4335,4.4921,4.5152,4.4393,4.5017,4.5537,4.5594,4.5594,4.5594,4.5594,4.5594,4.5594,4.5594,4.5603,4.5629,4.5717,4.5949,4.6116,4.6202,4.6265,4.6308,4.6308,4.6308,4.6308,4.6308,4.6308,4.6308,4.6308,4.6308,4.6308,4.6308,4.6308,4.6308,4.6289,4.623,4.6191,4.6094,4.5234,4.5469,4.6074,5.5684,5.5703,5.5703,5.5703,5.5703,5.5703,5.5682,5.5248,5.4795,5.4466,5.3689,5.2834,5.195,5.1605,5.1241,5.075,5.0692,5.0663,5.0712,5.0692,5.0009,4.8577,4.7914,4.6935,4.556,4.5522,4.5522,4.5522,4.5522,4.5522,4.5522,4.5559,4.5568,4.5568,4.5586,4.5594,4.5594,4.5577,4.5568,4.5568,4.5522,4.5522,4.5522,4.5559,4.5568,4.5568,4.5586,4.5594,4.5594,4.5594,4.5594,4.5594,4.5594,4.5594,4.5594,4.5594,4.5594,4.5594,4.5594,4.5594,4.5594,4.5594,4.5594,4.5594,4.5594,4.5594,4.5594,4.5594,4.5594,4.5594,4.5594,4.5594,4.5594,4.5594,0.0,4.5479,4.5152,4.5402,4.5479,4.5152,4.5402,4.5594,4.5594,4.5594,4.5594,4.5594,4.5594,4.5594,4.5594,4.5594,4.5631,4.5701,4.584,4.5939,4.6013,4.6117,4.62,4.6239,4.6288,4.6308,4.6308,4.6308,4.6308,4.6308,4.6308,4.6308,4.6308,4.6308,4.6308,4.6308,4.6308,4.6308,4.6269,4.5937,4.6016,4.6172,5.5703,5.5703,5.5703,5.5703,5.5703,5.5703,5.5703,5.5011,5.4395,5.4126,5.3337,5.2472,5.1625,5.1529,5.1298,5.075,5.0712,5.0712,5.0712,5.0712,5.0029,4.8567,4.8009,4.7182,4.6028,4.5748,4.5594,4.5594,4.5594,4.5594,4.5594,4.5594,4.5594,4.5594,4.5594,4.5594,4.5594,4.5594,4.5594,4.5594,4.5594,4.5594,4.5594,4.5594,4.5594,4.5594,4.5594,4.5594,4.5594,4.5594,4.5594,4.5594,4.5594,4.5594,4.5594,4.5594,4.5594,4.5594,4.5594,4.5594,4.5594,4.5594,4.5594,4.5594,4.5594,4.5594,4.5594,4.5594,4.5594,4.5594,4.5594,4.5594,4.5594,4.5594,4.5594,4.5594,4.5594,4.5594,4.5594,4.5594,4.5594,4.5594,4.5594,4.5594,4.5594,4.5594,4.5594,4.5594,4.5594,4.5594,4.5622,4.5676,4.5737,4.579,4.5841,4.6011,4.6125,4.6165,4.6239,4.6267,4.6267,4.6289,4.6308,4.6308,4.6308,4.6308,4.6308,4.6308,4.6308,4.6308,4.6308,4.6308,4.6269,4.5996,4.6074,4.6172,5.5703,5.5703,5.5703,5.5703,5.5703,5.5703,5.5684,5.5011,5.4184,5.3299,5.2423,5.1587,5.0789,5.0712,5.0712,5.0712,5.0712,5.0712,5.0712,5.0712,5.0308,4.9452,4.7798,4.6904,4.6885,4.6028,4.5594,4.5594,4.5594,4.5594,4.5594,4.5594,4.5594,4.5594,4.5594,4.5594,4.5594,4.5594,4.5594,4.5594,4.5594,4.5594,4.5594,4.5594,4.5594,4.5594,4.5594,4.5594,4.5594,4.5594,4.5594,4.5594,4.5594,4.5594,4.5594,4.5594,4.5594,4.5594,4.5594,4.5594,4.5594,4.5594,4.5594,4.5594,4.5594,4.5594,4.5594,4.5594,4.5594,4.5594,4.5594,4.5594,4.5594,4.5594,4.5594,4.5594,4.5594,4.5594,4.5594,4.5594,4.5594,4.5594,4.5594,4.5594,4.5594,4.5594,4.5594,4.5594,4.5594,4.5594,4.5594,4.5594,4.5676,4.5698,4.5708,4.5964,4.6098,4.6098,4.6162,4.6202,4.6204,4.6267,4.6308,4.6308,4.6308,4.6308,4.6308,4.6308,4.6308,4.6308,4.6308,4.6308,4.6191,4.5332,4.5566,4.6172,5.5703,5.5703,5.5703,5.5703,5.5703,5.5511,5.4934,5.4145,5.328,5.2404,5.1568,5.0971,5.0731,5.0712,5.0712,5.0712,5.0712,5.0712,5.0712,5.0712,5.0577,5.0327,4.8663,4.7182,4.6009,4.5729,4.5594,4.5594,4.5594,4.5594,4.5594,4.5594,4.5594,4.5594,4.5594,4.5594,4.5594,4.5594,4.5594,4.5594,4.5594,4.5594,4.5594,4.5594,4.5594,4.5594,4.5594,4.5594,4.5594,4.5594,4.5594,4.5594,4.5594,4.5594,4.5594,4.5594,4.5594,4.5594,4.5594,4.5594,4.5594,4.5594,4.5594,4.5594,4.5594,4.5594,4.5594,4.5594,4.5594,4.5594,4.5594,4.5594,4.5594,4.5594,4.5594,4.5594,4.5594,4.5594,4.5594,4.5594,4.5594,4.5594,4.5594,4.5594,4.5594,4.5594,4.5594,4.5594,4.5594,4.5594,4.5594,4.5594,4.5676,4.5709,4.5698,4.5872,4.5969,4.6027,4.6098,4.6131,4.6131,4.615,4.6155,4.6158,4.6207,4.6237,4.6238,4.6288,4.6308,4.6308,4.6308,4.6308,4.6269,4.6016,4.6074,4.6269,5.5703,5.5703,5.5703,5.5703,5.5703,5.553,5.5049,5.3953,5.301,5.2481,5.1414,5.0712,5.0712,5.0712,5.0712,5.0712,5.0712,5.0712,5.0712,5.0712,5.0558,5.0212,4.8856,4.7625,4.6605,4.5941,4.5594,4.5594,4.5594,4.5594,4.5594,4.5594,4.5594,4.5594,4.5594,4.5594,4.5594,4.5594,4.5594,4.5594,4.5594,4.5594,4.5594,4.5594,4.5594,4.5594,4.5594,4.5594,4.5594,4.5594,4.5594,4.5594,4.5594,4.5594,4.5594,4.5594,4.5594,4.5594,4.5594,4.5594,4.5594,4.5594,4.5594,4.5594,4.5594,4.5594,4.5594,4.5594,4.5594,4.5594,4.5594,4.5594,4.5594,4.5594,4.5594,4.5594,4.5594,4.5594,4.5594,4.5594,4.5594,4.5594,4.5594,4.5594,4.5594,4.5594,4.5594,4.5594,4.5594,4.5594,4.5594,4.5594,4.564,4.5665,4.5701,4.5771,4.5841,4.5911,4.5993,4.6024,4.6052,4.6087,4.6115,4.6142,4.6173,4.621,4.6241,4.6288,4.6308,4.6308,4.6308,4.6308,4.6308,4.6308,4.6308,4.6308,5.5607,5.5645,5.5684,5.5607,5.5645,5.5684,5.5588,5.4299,5.326,5.3106,5.1741,5.0789,5.0712,5.0712,5.0712,5.0712,5.0712,5.0712,5.0712,5.0712,5.0308,4.9433,4.8567,4.8067,4.799,4.6413,4.5594,4.5594,4.5594,4.5594,4.5594,4.5594,4.5594,4.5594,4.5594,4.5594,4.5594,4.5594,4.5594,4.5594,4.5594,4.5594,4.5594,4.5594,4.5594,4.5594,4.5594,4.5594,4.5594,4.5594,4.5594,4.5594,4.5594,4.5594,4.5594,4.5594,4.5594,4.5594,4.5594,4.5594,4.5594,4.5594,4.5594,4.5594,4.5594,4.5594,4.5594,4.5594,4.5594,4.5594,4.5594,4.5594,4.5594,4.5594,4.5594,4.5594,4.5594,4.5594,4.5594,4.5594,4.5594,4.5594,4.5594,4.5594,4.5594,4.5594,4.5594,4.5594,4.5594,4.5594,4.5594,4.5594,4.5594,4.5631,4.5693,4.5693,4.5722,4.5781,4.5861,4.5914,4.598,4.6035,4.6092,4.6165,4.6169,4.621,4.6268,4.6289,4.6289,4.6289,4.6308,4.6308,4.6308,4.6308,4.6308,4.6308,5.4876,5.5261,5.5491,5.4876,5.528,5.5491,5.4857,5.4453,5.3722,5.2365,5.1865,5.1395,5.077,5.0712,5.0712,5.0712,5.0712,5.0712,5.0712,5.0712,5.0308,4.9433,4.8567,4.7817,4.7173,4.6144,4.5594,4.5594,4.5594,4.5594,4.5594,4.5594,4.5594,4.5594,4.5594,4.5594,4.5594,4.5594,4.5594,4.5594,4.5594,4.5594,4.5594,4.5594,4.5594,4.5594,4.5594,4.5594,4.5594,4.5594,4.5594,4.5594,4.5594,4.5594,4.5594,4.5594,4.5594,4.5594,4.5594,4.5594,4.5594,4.5594,4.5594,4.5594,4.5594,4.5594,4.5594,4.5594,4.5594,4.5594,4.5594,4.5594,4.5594,4.5594,4.5594,4.5594,4.5594,4.5594,4.5594,4.5594,4.5594,4.5594,4.5594,4.5594,4.5594,4.5594,4.5594,4.5594,4.5594,4.5594,4.5594,4.5594,4.5594,4.5614,4.5631,4.5631,4.5654,4.5723,4.5734,4.5757,4.5764,4.578,4.5828,4.5886,4.5944,4.6002,4.6068,4.6189,4.6213,4.6235,4.6288,4.6308,4.6308,4.6308,4.6308,4.6308,5.5068,5.5107,5.5126,5.5068,5.5415,5.5434,5.4626,5.4145,5.3395,5.2077,5.1568,5.1164,5.075,5.0712,5.0712,5.0712,5.0712,5.0712,5.0712,5.0712,5.0308,4.9433,4.8567,4.7894,4.749,4.624,4.5594,4.5594,4.5594,4.5594,4.5594,4.5594,4.5594,4.5594,4.5594,4.5594,4.5594,4.5594,4.5594,4.5594,4.5594,4.5594,4.5594,4.5594,4.5594,4.5594,4.5594,4.5594,4.5594,4.5594,4.5594,4.5594,4.5594,4.5594,4.5594,4.5594,4.5594,4.5594,4.5594,4.5594,4.5594,4.5594,4.5594,4.5594,4.5594,4.5594,4.5594,4.5594,4.5594,4.5594,4.5594,4.5594,4.5594,4.5594,4.5594,4.5594,4.5594,4.5594,4.5594,4.5594,4.5594,4.5594,4.5594,4.5594,4.5594,4.5594,4.5594,4.5594,4.5594,4.5594,4.5594,4.5594,4.5594,4.5594,4.5594,4.5594,4.562,4.5643,4.5687,4.5703,4.5708,4.5708,4.5742,4.5796,4.5847,4.5908,4.6007,4.6073,4.6125,4.6155,4.6235,4.6244,4.6264,4.6289,4.6308,4.6308,5.5164,5.4741,5.4434,5.4953,5.5164,5.5049,5.4376,5.3664,5.2895,5.2,5.1318,5.0837,5.0731,5.0712,5.0712,5.0712,5.0712,5.0712,5.0712,5.0712,5.0308,4.9433,4.8567,4.8048,4.7894,4.6394,4.5671,4.5825,4.5671,4.5594,4.5594,4.5594,4.5594,4.5594,4.5594,4.5594,4.5594,4.5594,4.5594,4.5594,4.5594,4.5594,4.5594,4.5594,4.5594,4.5594,4.5594,4.5594,4.5594,4.5594,4.5594,4.5594,4.5594,4.5594,4.5594,4.5594,4.5594,4.5594,4.5594,4.5594,4.5594,4.5594,4.571,4.5787,4.5633,4.5594,4.5633,4.5787,4.5825,4.5825,4.5825,4.5825,4.5768,4.5614,4.5729,4.5768,4.5614,4.5729,4.5768,4.5614,4.5594,4.5594,4.5594,4.5594,4.5594,4.5594,4.5594,4.5594,4.5594,4.5594,4.5594,4.5594,4.5594,4.5594,4.5594,4.5594,4.5594,4.5594,4.5648,4.569,4.5684,4.5684,4.5723,4.579,4.579,4.585,4.5939,4.5957,4.6017,4.6064,4.6131,4.6175,4.6207,4.6287,4.6308,4.6308,5.3664,5.3453,5.3164,5.2519,5.3049,5.351,5.3395,5.328,5.2895,5.2,5.1808,5.1471,5.0789,5.0712,5.0712,5.0712,5.0712,5.0712,5.0712,5.0712,5.0308,4.9433,4.8567,4.7778,4.7077,4.6105,4.597,4.6721,4.597,4.5594,4.5594,4.5594,4.5594,4.5594,4.5594,4.5594,4.5594,4.5594,4.5594,4.5594,4.5594,4.5594,4.5594,4.5594,4.5594,4.5594,4.5594,4.5594,4.5594,4.5594,4.5594,4.5594,4.5594,4.5594,4.5594,4.5594,4.5594,4.5594,4.5594,4.5594,4.5594,4.5594,4.6163,4.6528,4.5768,4.5594,4.5806,4.6567,4.6721,4.6721,4.6721,4.6721,4.649,4.5729,4.622,4.6471,4.571,4.624,4.6432,4.5691,4.5594,4.5594,4.5594,4.5594,4.5594,4.5594,4.5594,4.5594,4.5594,4.5594,4.5594,4.5594,4.5594,4.5594,4.5594,4.5594,4.5594,4.5594,4.5622,4.5603,4.5612,4.5612,4.5646,4.5703,4.5703,4.5723,4.5752,4.5796,4.5861,4.5938,4.5998,4.6098,4.6207,4.6287,4.6308,4.6308,5.3914,5.3145,5.25,5.2596,5.2953,5.3049,5.2538,5.2462,5.2183,5.1337,5.1221,5.1087,5.075,5.0712,5.0712,5.0712,5.0712,5.0712,5.0712,5.0712,5.0308,4.9433,4.9029,4.8432,4.7586,4.6759,4.6509,4.6904,4.6028,4.5594,4.5594,4.5594,4.5594,4.5594,4.5594,4.5594,4.5594,4.5594,4.5594,4.5594,4.5594,4.5594,4.5594,4.5594,4.5594,4.5594,4.5594,4.5594,4.5594,4.5594,4.5594,4.5594,4.5594,4.5594,4.5594,4.5594,4.5594,4.5594,4.5594,4.5594,4.5594,4.5594,4.6259,4.6797,4.6413,4.6663,4.6971,4.6913,4.6904,4.7038,4.749,4.7192,4.6932,4.699,4.7317,4.7278,4.6432,4.6663,4.6586,4.571,4.5594,4.5594,4.5594,4.5594,4.5594,4.5594,4.5594,4.5594,4.5594,4.5594,4.5594,4.5594,4.5594,4.5594,4.5594,4.5594,4.5594,4.5594,4.5594,4.5594,4.5594,4.5594,4.5622,4.564,4.564,4.5665,4.5695,4.5727,4.5773,4.5848,4.5954,4.6108,4.6265,4.6289,4.6308,4.6308]}]]